[[{"header":{"parameterUnit":"m.s-1","parameterCategory":1,"la1":30.6,"la2":29.2853,"lo1":-89.7004,"lo2":-87.6739,"dy":0.0162,"dx":0.0183,"nx":112,"ny":82,"refTime":"2023-06-01T12:00:00:Z","depth":0,"parameterNumber":2,"parameterNumberName":"U-component_of_WINDS"},"data":[0.0,0.0,0.0,0.0,0.0,0.0,0.0,0.0,0.0,0.0,0.0,0.0,0.0,0.0,0.0,0.0,0.0,0.0,0.0,0.0,0.0,0.0,0.0,0.0,0.0,0.0,0.0,0.0,0.0,0.0,0.0,0.0,0.0,0.0,0.0,0.0,0.0,0.0,0.0,0.0,0.0,0.0,0.0,0.0,0.0,0.0,0.0,0.0,0.0,0.0,0.0,0.0,0.0,0.0,0.0,0.0,0.0,0.0,0.0,0.0,0.0,0.0,0.0,0.0,0.0,0.0,0.0,0.0,0.0,0.0,0.0,0.0,0.0,0.0,0.0,0.0,0.0,0.0,0.0,0.0,0.0,0.0,0.0,0.0,0.0,0.0,0.0,0.0,0.0,0.0,2.2996,2.5665,2.9825,3.1774,3.0229,2.9878,2.8145,2.4427,0.0,0.0,0.0,0.0,0.0,0.0,0.0,0.0,0.0,0.0,0.0,0.0,0.0,0.0,0.0,0.0,0.0,0.0,0.0,0.0,0.0,0.0,0.0,0.0,0.0,0.0,0.0,0.0,0.0,0.0,0.0,0.0,0.0,0.0,0.0,0.0,0.0,0.0,0.0,0.0,0.0,0.0,0.0,0.0,0.0,0.0,0.0,0.0,0.0,0.0,0.0,0.0,0.0,0.0,0.0,0.0,0.0,0.0,0.0,0.0,0.0,0.0,0.0,0.0,0.0,0.0,0.0,0.0,0.0,0.0,0.0,0.0,0.0,0.0,0.0,0.0,0.0,0.0,0.0,0.0,0.0,0.0,0.0,0.0,0.0,0.0,0.0,0.0,0.0,0.0,0.0,0.0,0.0,0.0,0.0,0.0,0.0,0.0,0.0,0.0,0.0,0.0,0.0,0.0,2.3628,2.7912,3.0791,3.1774,3.0229,2.8842,2.6924,2.4278,0.0,0.0,0.0,0.0,0.0,0.0,0.0,0.0,0.0,0.0,0.0,0.0,0.0,0.0,0.0,0.0,0.0,0.0,0.0,0.0,0.0,0.0,0.0,0.0,0.0,0.0,0.0,0.0,0.0,0.0,0.0,0.0,0.0,0.0,0.0,0.0,0.0,0.0,0.0,0.0,0.0,0.0,0.0,0.0,0.0,0.0,0.0,0.0,0.0,0.0,0.0,0.0,0.0,0.0,0.0,0.0,0.0,0.0,0.0,0.0,0.0,0.0,0.0,0.0,0.0,0.0,0.0,0.0,0.0,0.0,0.0,0.0,0.0,0.0,0.0,0.0,0.0,0.0,0.0,0.0,0.0,0.0,0.0,0.0,0.0,0.0,0.0,0.0,0.0,0.0,0.0,0.0,0.0,0.0,0.0,0.0,0.0,0.0,0.0,0.0,0.0,0.0,0.0,2.3827,2.563,2.8579,3.0598,3.1124,2.9579,2.8017,2.6269,2.427,2.4025,0.0,0.0,0.0,0.0,0.0,0.0,0.0,0.0,0.0,0.0,0.0,0.0,0.0,0.0,0.0,0.0,0.0,0.0,0.0,0.0,0.0,0.0,0.0,0.0,0.0,0.0,0.0,0.0,0.0,0.0,0.0,0.0,0.0,0.0,0.0,0.0,0.0,0.0,0.0,0.0,0.0,0.0,0.0,0.0,0.0,0.0,0.0,0.0,0.0,0.0,0.0,0.0,0.0,0.0,0.0,0.0,0.0,0.0,0.0,0.0,0.0,0.0,0.0,0.0,0.0,0.0,0.0,0.0,0.0,0.0,0.0,0.0,0.0,0.0,0.0,0.0,0.0,0.0,0.0,0.0,0.0,0.0,0.0,0.0,0.0,0.0,0.0,0.0,0.0,0.0,0.0,0.0,0.0,0.0,0.0,0.0,0.0,0.0,0.0,0.0,0.0,0.0,2.5647,2.7192,2.8737,3.0124,3.0317,2.8754,2.721,2.5637,2.3999,2.3101,0.0,0.0,0.0,0.0,0.0,0.0,0.0,0.0,0.0,0.0,0.0,0.0,0.0,0.0,0.0,0.0,0.0,0.0,0.0,0.0,0.0,0.0,0.0,0.0,0.0,0.0,0.0,0.0,0.0,0.0,0.0,0.0,0.0,0.0,0.0,0.0,0.0,0.0,0.0,0.0,0.0,0.0,0.0,0.0,0.0,0.0,0.0,0.0,0.0,0.0,0.0,0.0,0.0,0.0,0.0,0.0,0.0,0.0,0.0,0.0,0.0,0.0,0.0,0.0,0.0,0.0,0.0,0.0,0.0,0.0,0.0,0.0,0.0,0.0,0.0,0.0,0.0,0.0,0.0,0.0,0.0,0.0,0.0,0.0,0.0,0.0,0.0,0.0,0.0,0.0,0.0,0.0,0.0,0.0,0.0,0.0,0.0,0.0,0.0,0.0,0.0,0.0,2.5647,2.7192,2.8737,2.9667,2.9527,2.7912,2.6367,2.4769,2.3109,2.23,0.0,0.0,0.0,0.0,0.0,0.0,0.0,0.0,0.0,0.0,0.0,0.0,0.0,0.0,0.0,0.0,0.0,0.0,0.0,0.0,0.0,0.0,0.0,0.0,0.0,0.0,0.0,0.0,0.0,0.0,0.0,0.0,0.0,0.0,0.0,0.0,0.0,0.0,0.0,0.0,0.0,0.0,0.0,0.0,0.0,0.0,0.0,0.0,0.0,0.0,0.0,0.0,0.0,0.0,0.0,0.0,0.0,0.0,0.0,0.0,0.0,0.0,0.0,0.0,0.0,0.0,0.0,0.0,0.0,0.0,0.0,0.0,0.0,0.0,0.0,0.0,0.0,0.0,0.0,0.0,0.0,0.0,0.0,0.0,0.0,0.0,0.0,0.0,0.0,0.0,0.0,0.0,0.0,0.0,0.0,0.0,0.0,0.0,0.0,0.0,0.0,0.0,2.5647,2.7016,2.8035,2.8421,2.8175,2.7104,2.5595,2.4427,2.3754,0.0,0.0,0.0,0.0,0.0,0.0,0.0,0.0,0.0,0.0,0.0,0.0,0.0,0.0,0.0,0.0,0.0,0.0,0.0,0.0,0.0,0.0,0.0,0.0,0.0,0.0,0.0,0.0,0.0,0.0,0.0,0.0,0.0,0.0,0.0,0.0,0.0,0.0,0.0,0.0,0.0,0.0,0.0,0.0,0.0,0.0,0.0,0.0,0.0,0.0,0.0,0.0,0.0,0.0,0.0,0.0,0.0,0.0,0.0,0.0,0.0,0.0,0.0,0.0,0.0,0.0,0.0,0.0,0.0,0.0,0.0,0.0,0.0,0.0,0.0,0.0,0.0,0.0,0.0,0.0,0.0,0.0,0.0,0.0,0.0,0.0,0.0,0.0,0.0,0.0,0.0,0.0,0.0,0.0,0.0,0.0,0.0,0.0,0.0,0.0,0.0,0.0,2.4401,2.5532,2.6613,2.7596,2.749,2.7052,2.6297,2.4805,2.3884,2.3807,0.0,0.0,0.0,0.0,0.0,0.0,0.0,0.0,0.0,0.0,0.0,0.0,0.0,0.0,0.0,0.0,0.0,0.0,0.0,0.0,0.0,0.0,0.0,0.0,0.0,0.0,0.0,0.0,0.0,0.0,0.0,0.0,0.0,0.0,0.0,0.0,0.0,0.0,0.0,0.0,0.0,0.0,0.0,0.0,0.0,0.0,0.0,0.0,0.0,0.0,0.0,0.0,0.0,0.0,0.0,0.0,0.0,0.0,0.0,0.0,0.0,0.0,0.0,0.0,0.0,0.0,0.0,0.0,0.0,0.0,0.0,0.0,0.0,0.0,0.0,0.0,0.0,0.0,0.0,0.0,0.0,0.0,0.0,0.0,0.0,0.0,0.0,0.0,0.0,0.0,0.0,0.0,0.0,0.0,0.0,0.0,0.0,0.0,0.0,0.0,0.0,0.0,2.4995,2.5347,2.5981,2.7508,2.7016,2.6262,2.5472,2.3997,2.3028,0.0,0.0,0.0,0.0,0.0,0.0,0.0,0.0,0.0,0.0,0.0,0.0,0.0,0.0,0.0,0.0,0.0,0.0,0.0,0.0,0.0,0.0,0.0,0.0,0.0,0.0,0.0,0.0,0.0,0.0,0.0,0.0,0.0,0.0,0.0,0.0,0.0,0.0,0.0,0.0,0.0,0.0,0.0,0.0,0.0,0.0,0.0,0.0,0.0,0.0,0.0,0.0,0.0,0.0,0.0,0.0,0.0,0.0,0.0,0.0,0.0,0.0,0.0,0.0,0.0,0.0,0.0,0.0,0.0,0.0,0.0,0.0,0.0,0.0,0.0,0.0,0.0,0.0,0.0,0.0,0.0,0.0,0.0,0.0,0.0,0.0,0.0,0.0,0.0,0.0,0.0,0.0,0.0,0.0,0.0,0.0,0.0,0.0,0.0,0.0,0.0,0.0,0.0,2.4427,2.5085,2.5577,2.6033,2.5893,2.5454,2.4682,2.3699,2.3077,2.3028,0.0,0.0,0.0,0.0,0.0,0.0,0.0,0.0,0.0,0.0,0.0,0.0,0.0,0.0,0.0,0.0,0.0,0.0,0.0,0.0,0.0,0.0,0.0,0.0,0.0,0.0,0.0,0.0,0.0,0.0,0.0,0.0,0.0,0.0,0.0,0.0,0.0,0.0,0.0,0.0,0.0,0.0,0.0,0.0,0.0,0.0,0.0,0.0,0.0,0.0,0.0,0.0,0.0,0.0,0.0,0.0,0.0,0.0,0.0,0.0,0.0,0.0,0.0,0.0,0.0,0.0,0.0,0.0,0.0,0.0,0.0,0.0,0.0,0.0,0.0,0.0,0.0,0.0,0.0,0.0,0.0,0.0,0.0,0.0,0.0,0.0,0.0,0.0,0.0,0.0,0.0,0.0,0.0,0.0,0.0,0.0,0.0,0.0,0.0,0.0,0.0,0.0,2.455,2.5121,2.5647,2.6244,2.577,2.5226,2.4769,2.3734,2.3095,2.3003,0.0,0.0,0.0,0.0,0.0,0.0,0.0,0.0,0.0,0.0,0.0,0.0,0.0,0.0,0.0,0.0,0.0,0.0,0.0,0.0,0.0,0.0,0.0,0.0,0.0,0.0,0.0,0.0,0.0,0.0,0.0,0.0,0.0,0.0,0.0,0.0,0.0,0.0,0.0,0.0,0.0,0.0,0.0,0.0,0.0,0.0,0.0,0.0,0.0,0.0,0.0,0.0,0.0,0.0,0.0,0.0,0.0,0.0,0.0,0.0,0.0,0.0,0.0,0.0,0.0,0.0,0.0,0.0,0.0,0.0,0.0,0.0,0.0,0.0,0.0,0.0,0.0,0.0,0.0,0.0,0.0,0.0,0.0,0.0,0.0,0.0,0.0,0.0,0.0,0.0,0.0,0.0,0.0,0.0,0.0,0.0,0.0,0.0,0.0,0.0,0.0,0.0,2.5049,2.5269,2.5858,2.7332,2.6174,2.5296,2.5296,2.3962,2.3045,2.2944,0.0,0.0,0.0,0.0,0.0,0.0,0.0,0.0,0.0,0.0,0.0,0.0,0.0,0.0,0.0,0.0,0.0,0.0,0.0,0.0,0.0,0.0,0.0,0.0,0.0,0.0,0.0,0.0,0.0,0.0,0.0,0.0,0.0,0.0,0.0,0.0,0.0,0.0,0.0,0.0,0.0,0.0,0.0,0.0,0.0,0.0,0.0,0.0,0.0,0.0,0.0,0.0,0.0,0.0,0.0,0.0,0.0,0.0,0.0,0.0,2.5758,2.5012,0.0,0.0,0.0,0.0,0.0,0.0,0.0,0.0,0.0,0.0,0.0,0.0,0.0,0.0,0.0,0.0,0.0,0.0,0.0,0.0,0.0,0.0,0.0,0.0,0.0,0.0,0.0,0.0,0.0,0.0,0.0,0.0,0.0,0.0,0.0,0.0,0.0,0.0,0.0,0.0,2.4401,2.4524,2.4875,2.5788,2.5068,2.455,2.455,2.3646,2.3095,2.307,2.297,0.0,0.0,0.0,0.0,0.0,0.0,0.0,0.0,0.0,0.0,0.0,0.0,0.0,0.0,0.0,0.0,0.0,0.0,0.0,0.0,0.0,0.0,0.0,0.0,0.0,0.0,0.0,0.0,0.0,0.0,0.0,0.0,0.0,0.0,0.0,0.0,0.0,0.0,0.0,0.0,0.0,0.0,0.0,0.0,0.0,0.0,0.0,0.0,0.0,0.0,0.0,0.0,0.0,0.0,0.0,0.0,0.0,0.0,0.0,2.6774,2.563,0.0,0.0,0.0,0.0,0.0,0.0,0.0,0.0,0.0,0.0,0.0,0.0,0.0,0.0,0.0,0.0,0.0,0.0,0.0,0.0,0.0,0.0,0.0,0.0,0.0,0.0,0.0,0.0,0.0,0.0,0.0,0.0,0.0,0.0,0.0,0.0,0.0,0.0,0.0,0.0,2.4708,2.4822,2.5243,2.6384,2.584,2.5243,2.4857,2.412,2.3498,2.3087,2.302,0.0,0.0,0.0,0.0,0.0,0.0,0.0,0.0,0.0,0.0,0.0,0.0,0.0,0.0,0.0,0.0,0.0,0.0,0.0,0.0,0.0,0.0,0.0,0.0,0.0,0.0,0.0,0.0,0.0,0.0,0.0,0.0,0.0,0.0,0.0,0.0,0.0,0.0,0.0,0.0,0.0,0.0,0.0,0.0,0.0,0.0,0.0,0.0,0.0,0.0,0.0,0.0,0.0,3.0112,3.0828,3.1356,3.1356,3.1824,3.2411,2.8727,2.7195,2.7269,2.6303,0.0,0.0,0.0,0.0,0.0,0.0,0.0,0.0,0.0,0.0,0.0,0.0,0.0,0.0,0.0,0.0,0.0,0.0,0.0,0.0,0.0,0.0,2.572,2.5827,2.645,2.6631,2.5144,0.0,0.0,0.0,0.0,0.0,0.0,0.0,0.0,0.0,0.0,0.0,2.5253,2.5401,2.5946,2.735,2.6718,2.5928,2.5261,2.4506,2.3779,2.3055,2.3045,2.2995,0.0,0.0,0.0,0.0,0.0,0.0,0.0,0.0,0.0,0.0,0.0,0.0,0.0,0.0,0.0,0.0,0.0,0.0,0.0,0.0,0.0,0.0,0.0,0.0,0.0,0.0,0.0,0.0,0.0,0.0,0.0,0.0,2.5313,2.5313,0.0,0.0,0.0,0.0,0.0,0.0,0.0,0.0,0.0,0.0,0.0,0.0,0.0,2.9827,3.0628,3.1827,3.2119,3.1577,3.2959,3.3301,3.2724,3.2724,3.358,3.4933,3.2943,0.0,2.8961,2.7399,0.0,0.0,0.0,0.0,0.0,0.0,0.0,0.0,0.0,0.0,0.0,0.0,0.0,0.0,0.0,0.0,0.0,0.0,0.0,0.0,0.0,0.0,2.6718,2.7474,2.8184,2.8448,2.7512,2.6227,2.4976,2.4024,2.3692,2.3544,0.0,0.0,0.0,0.0,0.0,0.0,2.5296,2.5401,2.5752,2.6665,2.5454,2.4567,2.4462,2.3716,2.3175,2.302,2.2952,2.2893,2.2816,2.2764,0.0,0.0,0.0,0.0,0.0,0.0,0.0,0.0,0.0,0.0,0.0,0.0,0.0,0.0,0.0,0.0,0.0,0.0,0.0,0.0,0.0,0.0,0.0,0.0,0.0,0.0,0.0,0.0,0.0,2.6169,2.6409,2.5418,2.6159,2.639,0.0,0.0,0.0,0.0,0.0,0.0,0.0,0.0,0.0,2.978,3.035,3.1212,3.2374,3.3294,3.3881,3.4148,3.5263,3.5853,3.5984,3.5984,3.6522,3.7448,3.6259,3.4884,3.325,3.0243,2.8236,2.6972,0.0,0.0,0.0,0.0,2.6526,2.6526,2.6526,2.6526,2.6507,2.6414,0.0,0.0,0.0,0.0,0.0,0.0,0.0,2.66,2.6951,2.7908,2.8879,2.9208,2.9839,3.0136,2.931,2.8461,2.7219,2.5093,2.4548,2.4277,2.3847,2.3417,0.0,0.0,0.0,2.4664,2.5928,2.6086,2.6384,2.7139,2.6244,2.5401,2.4963,2.4208,2.3551,2.3087,2.2977,2.2944,2.2868,2.279,2.2738,0.0,0.0,0.0,0.0,0.0,0.0,0.0,0.0,0.0,0.0,0.0,0.0,0.0,0.0,0.0,0.0,0.0,0.0,0.0,0.0,0.0,0.0,0.0,0.0,0.0,0.0,0.0,0.0,2.6986,2.7486,2.5534,2.7217,2.7775,0.0,0.0,0.0,0.0,0.0,0.0,2.9159,3.0564,3.177,3.2645,3.2959,3.379,3.5275,3.5964,3.6583,3.7159,3.7713,3.8305,3.8925,3.8871,3.9167,3.9695,3.8878,3.8061,3.7002,3.2897,3.0352,2.894,2.7938,2.7548,2.7622,2.8217,2.844,2.844,2.844,2.844,2.8384,2.7976,2.7455,2.6916,2.6712,0.0,0.0,0.0,0.0,2.8476,2.8695,2.9702,3.0743,3.0904,3.1495,3.1788,3.0906,3.0501,2.9435,2.6505,2.5714,2.5262,2.4574,2.4093,0.0,2.4715,2.4795,2.5242,2.6444,2.6771,2.7016,2.7385,2.6929,2.6279,2.5472,2.4717,2.4032,2.3428,2.3125,2.2927,2.2893,2.2816,2.2764,2.2712,0.0,0.0,0.0,0.0,0.0,0.0,0.0,0.0,0.0,0.0,0.0,0.0,0.0,0.0,0.0,0.0,0.0,0.0,0.0,0.0,0.0,0.0,0.0,0.0,0.0,0.0,0.0,0.0,0.0,2.5591,2.8245,0.0,0.0,0.0,0.0,3.0071,3.0987,3.1833,3.2602,3.3506,3.4757,3.6378,3.7781,3.9318,4.096,4.1651,4.1598,4.084,4.0664,4.0597,4.0565,4.0383,4.0746,4.1423,4.0606,3.977,3.8655,3.4569,3.2377,3.1448,2.989,2.9277,2.9277,2.9332,2.9332,2.9332,2.9332,2.9332,2.9463,3.0188,3.0392,3.0225,2.9463,2.9221,0.0,0.0,2.9277,2.9518,3.0278,3.1006,3.1745,3.2502,3.3195,3.3405,3.2429,3.2073,3.1057,2.7979,2.6956,2.6393,2.5709,0.0,2.5296,2.5331,2.5998,2.6525,2.6595,2.721,2.7385,2.6736,2.663,2.6279,2.5472,2.4717,2.426,2.4147,2.3371,2.285,2.2816,2.2738,2.2712,2.2712,2.2712,0.0,0.0,0.0,0.0,0.0,0.0,0.0,0.0,0.0,0.0,0.0,0.0,0.0,0.0,0.0,0.0,0.0,0.0,0.0,0.0,0.0,0.0,0.0,0.0,0.0,0.0,0.0,0.0,3.0294,3.2718,0.0,3.1679,3.1525,3.191,3.2776,3.4141,3.5295,3.6142,3.7488,3.8712,3.9693,4.0233,4.0997,4.2036,4.2272,4.2316,4.2139,4.1882,4.1742,4.1723,4.1485,4.1446,4.1571,4.1293,4.0698,3.977,3.7764,3.5832,3.4067,3.2915,3.2488,3.2488,3.2488,3.2823,3.3157,3.208,3.2061,3.2265,3.1002,3.0615,3.0466,2.9649,2.976,3.0169,3.0169,3.0909,3.1894,3.2692,3.3481,3.4259,3.5055,3.4995,3.4676,3.4301,3.3579,3.2492,3.0749,2.9229,2.788,2.6686,2.6311,2.6332,2.6806,2.6736,2.7157,2.8667,2.8175,2.7789,2.8052,2.7192,2.649,2.6209,2.5015,2.4278,2.42,2.3388,2.2868,2.2816,2.2738,2.2712,2.2712,2.2712,2.301,0.0,0.0,0.0,0.0,0.0,0.0,0.0,0.0,0.0,0.0,0.0,0.0,0.0,0.0,0.0,0.0,0.0,0.0,0.0,0.0,0.0,0.0,0.0,0.0,0.0,3.1872,3.4083,3.3814,3.6276,3.7219,3.5238,3.5045,3.5411,3.6257,3.7623,3.8796,3.9662,4.0758,4.169,4.2354,4.2392,4.2738,4.3477,4.3476,4.3365,4.31,4.2848,4.2688,4.2586,4.2329,4.2267,4.2389,4.211,4.1702,4.1107,3.9993,3.8748,3.7373,3.5702,3.5033,3.5033,3.5033,3.5404,3.5739,3.4624,3.4587,3.4773,3.3175,3.2678,3.2567,3.2028,3.2251,3.2678,3.2678,3.3417,3.4364,3.4903,3.541,3.5959,3.6451,3.6147,3.5678,3.5579,3.4603,3.3567,3.2853,3.1201,2.9503,2.8187,2.7877,2.7964,2.8438,2.8105,2.8351,2.9913,2.893,2.8403,2.9228,2.7912,2.7087,2.735,2.5963,2.5068,2.5014,2.4173,2.3537,2.3267,2.3404,2.3367,2.3064,2.3553,2.3847,2.3984,0.0,0.0,0.0,0.0,0.0,0.0,0.0,0.0,0.0,0.0,0.0,0.0,0.0,0.0,0.0,0.0,0.0,0.0,0.0,0.0,0.0,0.0,0.0,3.059,3.4199,3.6546,3.5834,3.8623,3.9642,3.718,3.843,3.9738,4.0546,4.1393,4.2258,4.3124,4.3181,4.3547,4.4316,4.4335,4.4739,4.5586,4.5586,4.5016,4.3939,4.3722,4.3479,4.3248,4.2965,4.3262,4.3968,4.3188,4.2816,4.2686,4.1107,4.0921,4.1274,3.8042,3.6798,3.6835,3.676,3.6705,3.6686,3.6723,3.6705,3.6686,3.6686,3.6686,3.6686,3.6686,3.6686,3.6686,3.6686,3.6686,3.6705,3.6723,3.6671,3.6663,3.6682,3.6609,3.6482,3.6201,3.5218,3.4317,3.4124,3.2727,3.1271,3.0296,3.0141,3.0141,3.0141,3.0124,0.0,3.0176,2.9457,2.9246,3.0053,2.8719,2.807,2.8842,2.7508,2.663,2.6584,2.5719,2.4896,2.4164,2.4694,2.4643,2.3839,2.5206,2.5538,2.4735,0.0,0.0,0.0,0.0,0.0,0.0,0.0,0.0,0.0,0.0,0.0,0.0,0.0,0.0,0.0,0.0,0.0,0.0,0.0,0.0,0.0,3.273,3.4301,3.4891,3.7565,3.9835,4.0893,4.2335,4.297,4.2277,4.2124,4.2393,4.3181,4.347,4.3989,4.4874,4.4913,4.5009,4.524,4.524,4.5355,4.5586,4.5419,4.5148,4.4838,4.4386,4.4146,4.4064,4.3804,4.3782,4.3986,4.3763,4.3336,4.276,4.2314,4.1924,4.1386,3.9268,3.9175,4.003,3.8228,3.7188,3.6779,3.7355,3.7188,3.6686,3.6686,3.6686,3.6686,3.6686,3.6686,3.6686,3.6686,3.6686,3.6816,3.7411,3.7559,3.7681,3.8275,3.7959,3.7424,3.7121,3.6333,3.5345,3.4232,3.3636,3.2808,3.119,3.0896,3.0896,3.0896,3.044,3.051,3.1616,3.0598,3.0071,3.0808,3.0018,2.9299,2.893,2.7982,2.7145,2.6487,2.5662,2.5084,2.478,2.4913,2.4902,2.4678,2.548,2.578,0.0,0.0,0.0,0.0,0.0,0.0,0.0,0.0,0.0,0.0,0.0,0.0,0.0,0.0,0.0,0.0,0.0,0.0,0.0,0.0,0.0,0.0,3.6483,3.8681,4.0219,4.1393,4.2604,4.397,4.4874,4.5259,4.4874,4.4412,4.4335,4.4797,4.4836,4.5066,4.5566,4.5586,4.5586,4.5586,4.5586,4.5586,4.5586,4.5342,4.514,4.503,4.4599,4.4346,4.4221,4.4079,4.4005,4.4005,4.4005,4.3726,4.328,4.2946,4.2723,4.2445,0.0,0.0,0.0,0.0,3.8637,3.8247,3.8358,3.8098,3.7708,3.7708,3.7708,3.7708,3.7708,3.7708,3.7708,3.7708,3.7708,3.7801,3.8284,3.8395,3.8525,3.899,3.8729,3.8313,3.7978,3.7156,3.6199,3.518,3.4621,0.0,3.2844,3.2125,3.1703,3.1703,3.1335,3.1388,3.2283,3.1317,3.0966,3.2037,3.0931,3.0036,2.9878,2.8842,0.0,0.0,0.0,2.6097,2.5954,2.5643,0.0,0.0,0.0,2.6343,2.6343,2.6572,0.0,0.0,2.5862,2.6065,0.0,0.0,0.0,0.0,0.0,0.0,0.0,0.0,0.0,0.0,0.0,0.0,0.0,0.0,0.0,0.0,4.0546,4.297,4.5509,4.5297,4.5124,4.5797,4.6567,4.6701,4.5817,4.574,4.5701,4.5605,4.5682,4.5701,4.5605,4.5682,0.0,0.0,0.0,4.5586,4.5586,4.5438,4.517,4.48,4.4613,4.4354,4.4005,4.4005,4.4005,4.4005,4.4005,4.4005,4.3949,4.3225,4.3355,4.3856,4.2426,4.1757,4.1516,4.0903,4.0606,4.042,3.964,0.0,0.0,3.938,3.938,3.938,3.938,3.9324,3.925,3.925,3.9175,3.9101,3.9101,3.9101,3.9101,3.9101,3.9073,3.8942,3.8628,3.7731,3.6847,3.6416,3.5508,3.4793,3.4705,3.3564,3.2634,3.2529,3.2511,3.2493,3.2406,3.1844,3.1949,3.3231,3.1633,0.0,3.1036,2.9825,2.8636,2.7639,2.7526,2.7421,2.7282,2.6609,2.6575,2.7282,2.7089,2.7007,2.7007,2.6808,2.6691,2.6691,2.6691,2.6691,0.0,0.0,0.0,0.0,0.0,0.0,0.0,0.0,0.0,0.0,0.0,0.0,0.0,0.0,0.0,4.1424,4.3063,4.4701,4.7259,4.8086,4.8221,4.7682,4.7778,4.7548,4.674,4.6644,4.6355,4.5643,4.624,4.6336,4.5624,4.6278,4.6336,4.5605,4.5586,4.5586,4.5586,4.6032,4.5761,4.4819,4.5243,0.0,4.4005,4.4005,4.4005,4.4005,4.4005,4.4005,4.3986,4.3838,4.3856,4.3968,4.3652,4.2742,4.1664,4.2147,4.1924,4.133,4.1163,4.1126,4.1126,4.1126,4.1126,4.1126,4.1126,4.0661,0.0,4.0141,3.964,3.9101,3.9101,3.9101,3.9101,3.9101,3.8894,3.8609,3.8281,3.7769,3.7095,3.6106,3.5726,3.5407,3.4793,3.4442,3.4021,3.3371,3.3283,3.3055,3.2476,3.2774,3.2932,3.2634,3.2757,3.2143,3.0457,3.0053,2.9201,2.7613,2.739,2.7313,2.7299,2.7144,2.7144,2.7299,2.7089,2.7007,2.7007,2.6808,2.6691,2.6691,2.6691,2.6691,0.0,0.0,0.0,0.0,0.0,0.0,0.0,0.0,0.0,0.0,0.0,3.4122,3.5843,0.0,4.0885,4.392,4.5811,4.7353,4.8586,4.949,4.9567,4.8259,4.849,4.8259,4.7028,4.6913,4.6721,4.6278,4.6644,4.6721,4.6278,4.6663,4.6701,4.6259,4.624,4.6432,4.6855,4.6626,4.6142,4.5445,4.5187,4.4691,4.4005,4.4005,4.4005,4.4005,4.4005,4.4005,4.4005,4.4005,4.4005,4.4005,4.4005,4.3503,4.2797,4.2797,4.2556,4.2129,4.1739,4.159,4.1534,4.1126,4.1256,4.1516,4.1107,4.0996,4.0996,4.0996,4.068,4.0253,3.9863,3.9751,3.964,3.9194,3.8836,3.8504,3.8168,3.7948,3.7578,3.6805,3.6659,3.6535,3.6146,3.5962,3.5443,3.4266,3.374,3.3494,3.3547,3.3529,3.3652,3.4073,3.374,3.3038,3.1914,3.0307,2.8862,2.7565,2.7722,2.7851,2.7851,2.7851,2.8023,2.8385,2.7859,2.7742,2.8118,2.7946,2.7841,2.7841,2.7841,2.7638,0.0,0.0,0.0,0.0,0.0,0.0,0.0,3.1767,3.2662,3.4183,3.5965,3.788,3.9923,4.2375,4.4614,4.6174,4.8293,4.97,4.9663,5.0259,5.0124,4.8566,4.899,4.8894,4.7547,4.7258,4.7162,4.7162,4.7316,4.7335,4.7162,4.7316,4.7317,4.7144,4.7144,4.7451,4.8086,4.7241,4.659,4.6168,4.5191,4.4496,4.4079,4.4017,4.4005,4.4005,4.4005,4.4005,4.4005,4.4005,4.4005,4.4005,4.4005,4.4005,4.3912,4.3262,4.302,4.2946,4.2296,4.2073,4.1962,4.1311,4.1534,4.1943,4.1293,4.1441,4.1832,4.1832,4.172,4.1441,4.0791,4.0513,4.0215,3.951,3.8966,3.8535,3.8249,3.8135,3.7982,3.7685,3.7542,3.7505,3.7505,3.7206,3.6513,3.5109,3.4354,3.4126,3.4635,3.4266,3.4353,3.5478,3.46,3.3775,3.3301,3.0712,2.8784,2.8001,2.838,2.861,2.861,2.861,2.8885,2.9489,2.8733,2.8613,2.9211,2.9202,2.9231,2.9211,2.9347,2.8924,2.7515,2.8198,2.9651,3.1815,3.1937,3.2715,0.0,3.8344,3.8679,3.965,4.1779,4.3573,4.3863,4.5938,4.7946,4.8929,4.9911,5.0566,5.0548,5.0643,5.0374,4.945,4.9431,4.9412,4.9219,4.8505,4.8043,4.8043,4.8771,4.8868,4.8101,4.8794,4.8816,4.799,4.7971,4.8009,4.8105,4.7991,4.7433,4.6459,4.6074,4.5342,4.4346,4.4091,4.4005,4.4005,4.4005,4.4005,4.4005,4.4005,4.4005,4.4005,4.4005,4.4005,4.3986,4.3893,4.3875,4.3856,4.3763,4.3726,4.3726,4.3633,4.3652,4.3708,4.3615,4.315,4.2667,4.2667,4.2147,4.1571,4.1479,4.094,4.0364,4.0271,3.9409,3.8579,3.8548,3.8314,3.8101,3.8034,3.7721,3.7505,3.7505,3.7206,3.6689,3.5811,3.5618,3.5337,3.4758,3.5197,3.5372,3.4863,3.5249,3.4723,3.2704,3.1358,3.0332,2.9602,2.9453,2.9386,2.9386,2.9386,2.942,2.9506,2.9317,2.9248,2.9211,2.9785,3.0031,2.9989,3.0649,3.0192,3.0573,3.146,3.2734,3.472,3.6134,3.7715,4.0333,4.1306,4.206,4.3385,4.4916,4.6171,4.6622,4.7973,4.9114,4.9446,5.0235,5.0793,5.0756,5.0368,4.9942,4.9614,4.8707,4.8285,4.8715,4.8444,4.8461,4.8924,4.9292,4.9332,4.8967,4.9277,4.9259,4.8875,4.8856,4.9106,4.9606,4.9106,4.8548,4.7955,4.7186,4.6471,4.5829,4.509,4.4488,4.4005,4.4005,4.4005,4.4005,4.4005,4.4005,4.4005,4.4005,4.4005,4.4005,4.4005,4.4005,4.4005,4.4005,4.4005,4.3912,4.3448,4.3615,4.3912,4.3448,4.3392,4.3503,4.3503,4.3262,4.289,4.2407,4.2054,4.1683,4.12,4.0566,4.0042,4.0005,3.9511,3.9086,3.9086,3.8937,3.8624,3.7951,3.7952,3.7686,3.664,3.611,3.5864,3.6004,3.5899,3.553,3.4776,3.4969,3.4214,3.1897,3.1218,3.0576,2.9863,3.0058,3.0196,3.0196,3.0196,3.0593,3.1472,3.0932,3.1082,3.1824,3.2049,3.2139,3.2036,3.2341,3.2154,3.2576,3.394,3.5607,3.7718,4.005,4.2125,4.3169,4.4272,4.5399,4.6641,4.7554,4.8269,4.8623,4.955,5.011,4.9614,5.0497,5.1037,5.0538,4.9975,4.9431,4.8968,4.7847,4.731,4.7844,4.7937,4.8398,4.944,4.9539,4.9656,4.987,4.9815,4.9778,4.9759,4.9779,5.0048,5.0683,4.9837,4.9297,4.9094,4.7876,4.7197,4.6977,4.6066,4.5157,4.4358,4.4358,4.4358,4.4339,4.4098,4.4005,4.4005,4.4005,4.4005,4.4005,4.4005,4.4005,4.4005,4.4005,4.4005,4.3893,4.3318,4.3522,4.3893,4.3318,4.354,4.4005,4.4005,4.4005,4.3875,4.328,4.2965,4.2649,4.2073,4.1588,4.123,4.1162,4.0701,4.0246,4.0152,4.0038,3.9692,3.8722,3.8777,3.8578,3.7488,3.6812,3.6584,3.6935,3.6478,3.5934,3.5372,3.5127,3.4231,3.2283,3.176,3.1203,3.0438,3.0785,3.0989,3.0989,3.1196,3.18,3.2886,3.2462,3.2706,3.3704,3.3836,3.3812,3.3711,3.3711,3.3812,3.2522,3.4719,3.7595,4.0848,4.3086,4.4929,4.6573,4.8275,4.9513,4.9571,5.0229,5.0558,4.9803,5.0951,5.1498,4.9856,5.0977,5.1498,4.9876,4.9625,4.9006,4.7364,4.7133,4.7113,4.7133,4.7133,4.7809,4.947,4.9656,5.0024,5.0822,5.0791,5.0736,5.0663,5.0664,5.0664,5.0702,4.9837,4.9394,4.9356,4.7967,4.7302,4.7276,4.6738,4.6011,4.5249,4.5249,4.5249,4.5194,4.4358,4.4005,4.4005,4.4005,4.4005,4.4005,4.4005,4.4005,4.4005,4.4005,4.4005,4.4005,4.3968,4.3986,4.4005,4.3968,4.3986,4.4005,4.4005,4.4005,4.3986,4.3968,4.3373,4.2797,4.276,4.2166,4.159,4.159,4.1571,4.1415,4.1034,4.0628,4.0239,3.983,3.9487,3.9006,3.8199,3.8058,3.7777,3.7075,3.697,3.6935,3.6917,3.6233,3.5405,3.4469,3.3626,3.2767,3.1877,3.1804,3.1765,3.1765,3.2455,3.2852,3.2904,3.3493,3.3808,3.3704,3.4363,3.4592,3.4455,3.4455,3.4861,3.6325,3.9036,4.1778,4.5302,4.7492,4.9088,5.021,5.0945,5.1041,4.9939,4.901,4.8106,4.7264,4.755,4.7917,4.7944,4.9389,5.031,4.9749,4.9672,4.9034,4.7294,4.71,4.6868,4.6288,4.6752,4.7816,4.9537,4.9656,5.0008,5.0841,5.0846,5.0793,5.0775,5.072,5.0702,5.0702,5.0414,5.026,5.024,4.8848,4.7664,4.6768,4.6573,4.5751,4.4469,4.5045,4.4971,4.4413,4.4116,4.4005,4.4005,4.4005,4.4005,4.4005,4.4005,4.4005,4.4005,4.4005,4.4005,4.4005,4.4005,4.4005,4.4005,4.4005,4.4005,4.4005,4.4005,4.4005,4.4005,4.4005,4.3801,4.3596,4.3596,4.3392,4.3188,4.3188,4.276,4.2279,4.1875,4.169,4.1213,3.9991,4.0188,3.9957,3.8345,3.7672,3.7268,3.7023,3.6987,3.6777,3.6268,3.5969,3.5265,3.3911,3.3434,3.2819,3.1946,3.1856,3.2024,3.2507,3.2766,3.3386,3.4404,3.4639,3.4977,3.5368,3.5497,3.5487,3.5338,3.5294,3.5368,4.0095,4.2869,4.5317,4.8864,5.0809,5.1892,5.2144,5.195,5.1351,4.9977,4.8314,4.6748,4.5583,4.538,4.5438,4.5699,4.6946,4.8101,4.8682,4.8778,4.8469,4.7657,4.756,4.7347,4.6786,4.7231,4.7908,4.8701,4.9308,4.9872,5.0433,5.069,5.0846,5.0846,5.0775,5.0739,5.0739,5.074,5.0625,5.0399,4.948,4.8145,4.6513,4.7107,4.6457,4.4915,4.5491,4.5417,4.4841,4.4246,4.4005,4.4005,4.4005,4.4005,4.4005,4.4005,4.4005,4.4005,4.4005,4.4005,4.4005,4.4005,4.4005,4.4005,4.4005,4.4005,4.4005,4.4005,4.4005,4.4005,4.4005,4.4005,4.4005,4.4005,4.4005,4.4005,4.4005,4.3596,4.3113,4.272,4.2532,4.2032,4.087,4.0775,4.0471,3.9135,3.8304,3.7602,3.7058,3.6987,3.6794,3.6285,3.5987,3.5332,3.4239,3.3816,3.3254,3.2325,3.2216,3.2283,3.2507,3.3041,3.3783,3.4783,3.5294,3.5769,3.6225,3.6036,3.5888,3.5817,3.5667,3.5622,4.3653,4.6051,4.8159,5.1505,5.2917,5.3265,5.2395,5.1486,5.0577,4.9687,4.8043,4.6283,4.4639,4.4388,4.4156,4.3421,4.4136,4.5374,4.6999,4.727,4.7579,4.8372,4.8508,4.8527,4.8527,4.8566,4.8237,4.7366,4.8798,4.9726,4.9765,5.0488,5.0919,5.0957,5.0866,5.0829,5.0868,5.0812,5.0488,4.9936,4.9819,4.8616,4.6564,4.8091,4.7906,4.6364,4.642,4.6401,4.6252,4.4655,4.4005,4.4005,4.4005,4.4005,4.4005,4.4005,4.4005,4.4005,4.4005,4.4005,4.4005,4.4005,4.4005,4.4005,4.4005,4.4005,4.4005,4.4005,4.4005,4.4005,4.4005,4.4005,4.4005,4.4005,4.4005,4.4005,4.4005,4.4005,4.3892,4.3474,4.3069,4.2657,4.2239,4.1273,4.0516,4.0524,3.9849,3.8813,3.7251,3.704,3.7023,3.6987,3.632,3.5749,3.5501,3.4857,3.4015,3.2955,3.2904,3.2593,3.1886,3.3248,3.4059,3.4145,3.5476,3.6174,3.6208,3.5949,3.5817,3.5817,3.5667,3.5622,4.6564,4.9029,5.1218,5.3561,5.3826,5.3265,5.2395,5.1061,4.9397,4.7231,4.4446,4.2067,4.1003,4.1332,4.2106,4.3131,4.5626,4.7811,4.8894,4.9552,4.9784,4.9417,4.99,5.0268,5.0268,5.0848,5.0867,4.9997,4.9784,4.9958,5.0558,5.0793,5.1199,5.1838,5.1225,5.1153,5.1752,5.1064,5.0547,5.0187,4.9334,4.8182,4.6817,4.7034,4.6215,4.4674,4.5324,4.5231,4.4599,4.4191,4.4005,4.4005,4.4005,4.4005,4.4005,4.4005,4.4005,4.4005,4.4005,4.4005,4.4005,4.4005,4.4005,4.4005,4.4005,4.4005,4.4005,4.4005,4.4005,4.4005,4.4005,4.4005,4.4005,4.4005,4.4005,4.4005,4.4005,4.4005,4.3892,4.3474,4.2829,4.2257,4.1831,4.1516,4.113,4.0569,4.0323,3.9603,3.8023,3.783,3.7602,3.704,3.6733,3.6247,3.5553,3.5265,3.451,3.299,3.2904,3.2817,3.2628,3.299,3.3749,3.4887,3.5283,3.5725,3.6259,3.6062,3.5932,3.5932,3.5711,3.5622,4.9923,5.1885,5.3433,5.4525,5.4136,5.2975,5.0983,4.9204,4.725,4.4659,4.2048,3.9959,3.9088,3.963,4.0539,4.1487,4.4175,4.6728,4.8333,4.961,5.048,5.0751,5.1525,5.2047,5.2047,5.2472,5.2414,5.1544,5.1409,5.1409,5.1467,5.1834,5.2279,5.2763,5.1934,5.1512,5.1554,5.1042,5.0644,5.0327,4.9229,4.809,4.6977,4.6725,4.5898,4.4705,4.519,4.5115,4.4649,4.4296,4.4147,4.4147,4.4147,4.4147,4.4147,4.4147,4.4147,4.4116,4.4085,4.4085,4.4085,4.4005,4.4005,4.4005,4.4005,4.4005,4.4005,4.4005,4.4005,4.4005,4.4005,4.4005,4.4005,4.4005,4.4005,4.4005,4.4005,4.4005,4.3892,4.3474,4.2867,4.236,4.1941,4.1719,4.1464,4.1042,4.0972,4.0533,3.9305,3.8848,3.8339,3.7549,3.7439,3.7003,3.6093,3.6,3.522,3.3524,3.3731,3.3611,3.2938,3.3559,3.4318,3.518,3.5508,3.5887,3.6301,3.6148,3.6079,3.6079,3.58,3.5684,5.3033,5.4291,5.4929,5.4832,5.3962,5.2279,4.8972,4.6709,4.4601,4.2164,4.0326,3.8953,3.8315,3.8914,3.9623,3.9939,4.2048,4.4523,4.7096,4.8759,5.0364,5.2163,5.3033,5.3594,5.3807,5.3826,5.3517,5.2763,5.3401,5.3343,5.226,5.3033,5.344,5.3323,5.2705,5.1892,5.0925,5.0897,5.0736,5.0451,4.9328,4.822,4.7151,4.6727,4.6097,4.5331,4.5331,4.535,4.5275,4.4565,4.4285,4.4285,4.4285,4.4285,4.4285,4.4285,4.4285,4.4304,4.4214,4.4184,4.4135,4.4036,4.4005,4.4005,4.4005,4.4005,4.4005,4.4005,4.4005,4.4005,4.4005,4.4005,4.4005,4.4005,4.4005,4.4005,4.4005,4.4005,4.3892,4.3474,4.3105,4.2716,4.2279,4.1899,4.1675,4.1604,4.1604,4.1358,4.0709,3.9866,3.9006,3.8199,3.7983,3.7586,3.6754,3.6661,3.5954,3.4375,3.4835,3.4559,3.3128,3.4335,3.5094,3.5197,3.5818,3.6197,3.6301,3.6251,3.6225,3.6165,3.5905,3.5817,5.4252,5.518,5.5625,5.4967,5.3053,5.0635,4.7947,4.491,4.2144,4.0307,3.8566,3.7522,3.8102,3.8914,4.0191,4.2299,4.4175,4.6283,4.8875,4.9513,5.0596,5.2995,5.3401,5.4039,5.5432,5.5567,5.5509,5.5354,5.549,5.4581,5.2318,5.3033,5.3169,5.2453,5.2975,5.2511,5.0925,5.0897,5.0863,5.0791,4.9433,4.8319,4.7395,4.6243,4.5256,4.449,4.449,4.4479,4.4419,4.4311,4.4274,4.4214,4.4304,4.4285,4.4285,4.4244,4.4214,4.4214,4.4085,4.4036,4.4036,4.4005,4.4005,4.4005,4.4005,4.4005,4.4005,4.4005,4.4005,4.4005,4.4005,4.4005,4.4005,4.4005,4.4005,4.4005,4.4005,4.4005,4.3892,4.3474,4.3318,4.3069,4.232,4.2115,4.1984,4.1631,4.1604,4.1552,4.1429,4.0182,3.9006,3.8199,3.7405,3.6882,3.6702,3.6502,3.598,3.5059,3.5128,3.48,3.3921,3.4145,3.4576,3.518,3.5318,3.568,3.6301,3.6251,3.6225,3.6165,3.5905,3.5817,5.52,5.5722,5.5586,5.3865,5.1854,4.9262,4.5336,4.2492,4.0094,3.7947,3.6864,3.64,3.6826,3.8315,3.9913,4.1119,4.3111,4.5394,4.7985,4.9126,5.0654,5.3188,5.4271,5.5122,5.5915,5.6012,5.5838,5.5412,5.576,5.547,5.4233,5.4175,5.3981,5.3575,5.3072,5.2414,5.1583,5.0716,5.0275,5.0256,4.9029,4.792,4.695,4.6157,4.5303,4.4401,4.4401,4.4373,4.4344,4.4401,4.4373,4.4344,4.4401,4.4401,4.4401,4.4373,4.4362,4.4344,4.4237,4.4188,4.4207,4.4116,4.4085,4.4085,4.4005,4.4055,4.4085,4.4005,4.4005,4.4005,4.4005,4.4005,4.4005,4.4005,4.4005,4.4005,4.4005,4.4005,4.3923,4.3744,4.3542,4.3212,4.2619,4.236,4.205,4.1675,4.1604,4.1604,4.1604,4.0621,3.9779,3.9375,3.8531,3.7777,3.7293,3.6752,3.6074,3.5249,3.5559,3.5439,3.4697,3.5025,3.5404,3.5766,3.5766,3.5956,3.6301,3.6276,3.6233,3.6233,3.6079,3.5949,5.5528,5.5877,5.5393,5.284,5.0654,4.7889,4.3092,4.0404,3.8334,3.6149,3.5704,3.5742,3.5936,3.758,3.9127,3.97,4.1448,4.3711,4.6438,4.8159,5.0152,5.2898,5.4542,5.5606,5.5973,5.6012,5.5741,5.5103,5.5644,5.6012,5.6012,5.5393,5.489,5.4523,5.3188,5.2298,5.1931,5.0442,4.9784,4.9939,4.8694,4.7646,4.6833,4.6335,4.5552,4.456,4.4524,4.4487,4.4487,4.4487,4.4487,4.4487,4.4487,4.4515,4.4515,4.4487,4.4487,4.4487,4.4383,4.4383,4.4373,4.4274,4.4214,4.4184,4.4036,4.4085,4.4135,4.4036,4.4005,4.4005,4.4005,4.4005,4.4005,4.4005,4.4005,4.4005,4.4005,4.4005,4.4005,4.4005,4.3744,4.3371,4.2867,4.2541,4.2157,4.1675,4.1604,4.1604,4.1604,4.1078,4.0709,4.0683,3.9721,3.8701,3.7875,3.7116,3.6333,3.5473,3.5973,3.6042,3.5456,3.599,3.6301,3.6301,3.6301,3.6301,3.6301,3.6301,3.6301,3.6301,3.6191,3.6122,5.4677,5.5451,5.5393,5.284,4.9745,4.6399,4.2821,3.9475,3.6864,3.5897,3.5704,3.5916,3.6651,3.698,3.7928,4.0288,4.0868,4.2164,4.5452,4.6728,4.8585,5.1912,5.3149,5.4329,5.5857,5.6012,5.5973,5.5896,5.5973,5.6012,5.6012,5.5935,5.52,5.3672,5.3459,5.2627,5.1041,5.0152,5.0074,5.077,4.8964,4.8048,4.7914,4.6652,4.5615,4.477,4.4587,4.4487,4.4411,4.4468,4.444,4.4411,4.4487,4.4515,4.4487,4.4411,4.4411,4.4383,4.4344,4.4314,4.4314,4.4285,4.4244,4.4184,4.4036,4.4005,4.4005,4.4005,4.4005,4.4005,4.4005,4.4005,4.4005,4.4005,4.4005,4.4005,4.4005,4.4005,4.4005,4.4005,4.3955,4.3693,4.2922,4.2772,4.2462,4.1719,4.1604,4.1604,4.1604,4.1552,4.1455,4.1321,3.9922,3.8694,3.7892,3.7577,3.7085,3.6249,3.6266,3.6266,3.6197,3.6266,3.6301,3.6301,3.6301,3.6301,3.6301,3.6301,3.6301,3.6301,3.6105,3.6019,5.3362,5.4987,5.5258,5.2182,4.9243,4.6071,4.2164,3.9011,3.6671,3.5858,3.5704,3.58,3.611,3.6574,3.7406,3.8972,3.9243,4.0423,4.3827,4.5045,4.7038,5.0945,5.2647,5.4155,5.5838,5.6012,5.6012,5.6012,5.6012,5.6012,5.6012,5.5548,5.4967,5.4291,5.3265,5.2376,5.1699,5.0364,4.9861,5.0171,4.9431,4.8461,4.7317,4.7133,4.6525,4.5533,4.4812,4.4749,4.5162,4.4674,4.4487,4.444,4.4487,4.4515,4.4515,4.4487,4.4458,4.4458,4.443,4.443,4.443,4.4354,4.4344,4.4314,4.4207,4.4207,4.4218,4.4207,4.4177,4.4177,4.4177,4.4147,4.4104,4.4005,4.4005,4.4005,4.4005,4.4005,4.4005,4.4005,4.4005,4.3809,4.3248,4.3177,4.2885,4.2092,4.1941,4.1856,4.1648,4.1604,4.156,4.1515,4.042,3.9329,3.8478,3.7863,3.7146,3.6353,3.6301,3.6301,3.6301,3.6301,3.6301,3.6301,3.6301,3.6301,3.6301,3.6301,3.6542,3.7008,3.6939,3.7119,5.0809,5.3207,5.4175,5.1273,4.845,4.5374,4.1641,3.8586,3.6381,3.582,3.5704,3.5704,3.5704,3.6168,3.6826,3.7677,3.8025,3.9301,4.2473,4.3885,4.5993,4.9726,5.1467,5.313,5.5064,5.5722,5.6012,5.6012,5.6012,5.6012,5.6012,5.5238,5.4677,5.4426,5.2975,5.2066,5.1815,5.0403,4.9823,5.0055,4.9803,4.8968,4.7675,4.8029,4.7589,4.6529,4.5727,4.5481,4.566,4.5097,4.4721,4.4515,4.4515,4.4515,4.4515,4.4515,4.4515,4.4515,4.4515,4.4515,4.4487,4.444,4.4411,4.4411,4.4373,4.4373,4.4373,4.4314,4.4285,4.4285,4.4274,4.4244,4.4184,4.4036,4.4005,4.4005,4.4005,4.4005,4.4005,4.4005,4.4005,4.3892,4.3474,4.3406,4.3177,4.2462,4.2279,4.2092,4.1831,4.1805,4.1719,4.156,4.1007,4.0246,3.9276,3.8545,3.7715,3.6715,3.6646,3.6542,3.6301,3.6301,3.6301,3.6301,3.6525,3.6646,3.6663,3.687,3.7267,3.7801,3.7577,3.7765,4.6709,4.9649,5.1834,5.0132,4.7154,4.3943,4.1371,3.816,3.5704,3.5704,3.5704,3.5704,3.5704,3.5704,3.5974,3.6787,3.7638,3.9088,4.1641,4.3518,4.5548,4.8121,4.9204,5.0732,5.3285,5.5026,5.6012,5.6012,5.6012,5.6012,5.6012,5.5238,5.4407,5.3536,5.2647,5.1796,5.0925,5.0113,5.0113,5.0887,5.0074,4.9687,4.9653,4.939,4.8701,4.7685,4.7447,4.6736,4.5697,4.5697,4.5228,4.4515,4.4515,4.4515,4.4515,4.4515,4.4515,4.4515,4.4515,4.4515,4.4515,4.4515,4.4515,4.4515,4.4515,4.4401,4.4285,4.4285,4.4285,4.4285,4.4214,4.4184,4.4184,4.4036,4.4005,4.4005,4.4005,4.4005,4.4005,4.4005,4.4005,4.3892,4.3474,4.3406,4.3248,4.2829,4.2462,4.2198,4.2198,4.2198,4.2008,4.1453,4.1683,4.1392,4.0175,3.9818,3.9043,3.756,3.7473,3.7129,3.6335,3.6301,3.6301,3.6301,3.7077,3.7473,3.7473,3.8215,3.8577,3.856,3.7713,3.7631,4.2164,4.4427,4.5858,4.4717,4.3208,4.1487,3.9475,3.7715,3.6361,3.58,3.5704,3.5704,3.5704,3.5704,3.6342,3.8353,3.8914,3.9978,4.2531,4.4349,4.638,4.8972,5.2086,5.4329,5.5142,5.5702,5.6012,5.6012,5.6012,5.6012,5.6012,5.5238,5.4407,5.3536,5.2647,5.1776,5.0925,5.0654,5.0654,5.0906,5.0654,5.0229,4.9707,4.9409,4.9027,4.8445,4.7086,4.652,4.6505,4.5359,4.474,4.4515,4.4515,4.4515,4.4515,4.4515,4.4515,4.4515,4.4515,4.4515,4.4515,4.4515,4.4515,4.4515,4.4515,4.4487,4.443,4.443,4.4795,4.5036,4.4434,4.4244,4.4184,4.4036,4.4005,4.4005,4.4005,4.4005,4.4005,4.4005,4.4005,4.3955,4.3809,4.3809,4.366,4.3283,4.3105,4.281,4.2279,4.2198,4.2008,4.1587,4.148,4.1031,4.0058,3.934,3.8732,3.8267,3.7767,3.7594,3.7853,3.787,3.787,3.787,3.8112,3.8232,3.8232,3.8474,3.8853,3.9353,3.96,3.9876,3.8083,4.0578,4.2222,4.168,4.0926,3.9939,3.8528,3.729,3.6303,3.58,3.5704,3.5704,3.5704,3.5704,3.6323,3.8199,3.8779,3.9901,4.2454,4.4272,4.6438,4.9359,5.2879,5.5064,5.5064,5.5625,5.6012,5.6012,5.6012,5.6012,5.6012,5.5238,5.4407,5.3536,5.2647,5.1776,5.0925,5.0906,5.0906,5.0906,5.0906,5.0654,5.0152,4.998,4.9548,4.8865,4.77,4.6928,0.0,4.5378,4.4777,4.4515,4.4515,4.4515,4.4515,4.4515,4.4515,4.4515,4.4515,4.4515,4.4515,4.4515,4.4721,4.4946,4.4946,4.4946,4.5021,4.5359,4.5527,4.5488,4.4894,4.4468,4.4184,4.4036,4.4005,4.4005,4.4005,4.4005,4.4005,4.4005,4.4005,4.4005,4.4005,4.4005,4.3923,4.366,4.3508,4.3212,4.2734,4.2501,4.2279,4.1874,4.1596,4.1181,4.0457,3.9807,3.9336,3.9026,3.8301,3.8112,3.8577,3.8318,3.8301,3.8577,3.887,3.9008,3.9008,3.9301,3.9543,3.9715,4.0509,4.0716,0.0,3.7696,4.0191,4.0307,3.9765,3.9011,3.8218,3.6864,0.0,3.5704,3.5704,3.5723,3.5762,3.5781,3.6091,3.7038,3.7909,3.934,4.1835,4.3846,4.6225,4.9417,5.2086,5.3633,5.3517,5.5026,5.6012,5.6012,5.6012,5.6012,5.6012,5.5296,5.4465,5.3536,5.2705,5.1834,5.0925,5.0906,5.0906,5.0906,5.0906,5.0906,5.0906,5.0848,5.0161,4.8987,4.8872,4.7637,4.5697,4.5641,4.5172,4.4515,4.4515,4.4515,4.4515,4.4515,4.4515,4.4515,4.4515,4.4515,4.4515,4.4515,4.504,4.5716,4.5772,4.5829,4.6035,4.6786,4.6409,4.572,4.5518,4.4897,4.4209,4.4055,4.4005,4.4023,4.4079,4.4042,4.4023,4.4079,4.4042,4.4005,4.4005,4.4005,4.4005,4.4005,4.366,4.344,4.3406,4.3069,4.2696,4.2279,4.2032,4.1709,4.1283,4.099,4.0491,3.975,3.9008,3.8594,3.8594,3.7922,3.7887,3.8577,3.9267,3.9612,3.9612,4.0353,4.0336,3.9629,4.0422,4.0405,3.1758,0.0,3.4234,3.5568,3.6245,3.6535,0.0,3.6458,3.6439,3.582,3.5704,3.5897,3.6497,3.6613,3.7328,3.9533,4.0578,4.1777,4.373,4.7134,4.9726,5.0519,5.3459,5.4909,5.3614,5.5026,5.6012,5.6012,5.6012,5.6012,5.6012,5.5818,5.5045,5.3556,5.3304,5.2453,5.0925,5.0906,5.0906,5.0906,5.0906,5.0906,5.0887,5.0268,4.9621,4.893,4.7649,4.6548,4.5641,4.504,4.4684,4.4515,4.4515,4.4515,4.4515,4.4515,4.4515,4.4515,4.4515,4.4515,4.4515,4.4515,4.504,4.5829,4.6486,4.7124,4.7519,4.6979,4.7124,4.7137,4.5774,4.5233,4.4872,4.4172,4.4005,4.4191,4.4841,4.4469,4.4191,4.4859,4.4451,4.4005,4.4005,4.4005,4.4005,4.4005,4.3923,4.3744,4.344,4.3336,4.3105,4.2696,4.2262,4.1906,4.1753,4.0652,3.9888,3.9715,3.9008,3.8594,3.8594,3.8422,3.8405,3.8594,3.8767,3.8853,3.8853,3.9043,3.9026,3.887,3.9629,3.9871,3.1178,3.2048,3.3112,3.3673,3.4756,3.5704,3.5704,3.6033,3.6226,3.5781,0.0,3.5955,3.6748,3.6903,3.7754,4.0365,4.1158,4.2318,4.4794,4.7811,5.019,5.137,5.3478,5.4793,5.4658,5.547,5.6012,5.6012,5.6012,5.6012,5.6012,5.5644,5.4851,5.3536,5.3111,5.226,5.0925,5.0906,5.0906,5.0906,5.0906,5.0906,5.0906,5.0461,4.9583,4.8337,4.7439,4.6345,4.5115,4.4684,4.4515,4.4515,4.4515,4.4515,4.4515,4.4515,4.4515,4.4515,4.4515,4.4515,4.4646,4.5416,4.5941,4.6448,4.7293,4.8138,4.8701,4.8171,4.8035,4.7748,4.6414,4.5736,4.5252,4.4755,4.4643,4.4774,4.5194,4.5212,4.5064,4.4766,4.4655,4.4469,4.4079,4.4005,4.4005,4.4005,4.4005,4.3923,4.3693,4.3508,4.3336,4.3105,4.26,4.2244,4.218,4.1217,4.0381,3.9715,3.9008,3.8594,3.8594,3.8267,3.8232,3.8577,3.8594,3.8594,3.8594,3.8594,3.8594,3.8594,3.9008,3.9198,3.1468,3.2977,3.4214,3.3479,3.4505,3.5704,3.5704,0.0,0.0,0.0,0.0,3.6168,3.7116,3.7406,3.8295,4.0771,4.139,4.2744,4.6109,4.7966,4.9784,5.1931,5.3188,5.4349,5.5509,5.5857,5.5954,5.5838,5.5935,5.5896,5.5625,5.5103,5.4329,5.3323,5.2589,5.1776,5.0925,5.0906,5.0906,5.0906,5.0906,5.0906,5.0906,5.077,4.9621,4.7687,4.7573,4.6383,4.4515,4.4515,4.4515,4.4515,4.4515,4.4515,4.4515,4.4515,4.4515,4.4515,4.4515,4.4515,4.4759,4.6298,4.6899,4.7143,4.78,4.8626,4.9302,4.9302,4.8809,4.8053,4.7136,4.6352,4.5823,4.5649,4.5581,4.5587,4.5653,4.6104,4.6085,4.4655,4.4878,4.5008,4.4153,4.4005,4.4005,4.4005,4.4005,4.4005,4.4005,4.3693,4.3474,4.3474,4.3051,4.2698,4.26,4.2139,4.1217,3.9832,3.9012,3.8474,3.8249,3.7646,3.7594,3.8232,3.8249,3.8249,3.8249,3.8249,3.8249,3.8249,3.8353,3.8422,3.0946,3.2551,3.4369,3.4234,3.4949,3.5704,3.5704,0.0,0.0,0.0,0.0,0.0,3.8798,3.9688,4.079,4.2628,4.4098,4.6225,4.9649,5.0983,5.1757,5.2144,5.4213,5.5161,5.4,5.518,5.5722,5.5045,5.5625,5.5374,5.3962,5.4465,5.4058,5.2453,5.226,5.1776,5.0925,5.0906,5.0906,5.0906,5.0906,5.0906,5.0887,5.019,4.9101,4.7649,4.698,4.5846,4.4515,4.4515,4.4515,4.4515,4.4515,4.4515,4.4515,4.4515,4.4515,4.4515,4.4515,4.4515,4.4665,4.5585,4.6392,4.703,4.7162,4.7744,4.8401,4.8401,4.8752,4.8765,4.7155,4.7079,4.7257,4.6587,4.6355,4.6527,4.7181,4.6884,4.642,4.616,4.5658,4.5008,4.4153,4.4005,4.4005,4.4005,4.4005,4.4005,4.4005,4.3955,4.3923,4.3923,4.3508,4.3194,4.3014,4.2639,4.1676,3.9988,3.905,3.8008,3.6715,3.6542,3.6542,3.6646,3.6646,3.6646,3.6646,3.6646,3.6646,3.6663,3.7335,3.7646,3.0694,3.1777,3.3112,3.3576,3.4717,3.5568,3.5104,0.0,0.0,0.0,0.0,3.7425,3.9166,4.021,4.1641,4.4233,4.6477,4.8469,5.0035,5.0964,5.1854,5.2782,5.3942,5.4697,5.4832,5.5548,5.5664,5.4851,5.5142,5.4813,5.3575,5.342,5.3033,5.2221,5.1738,5.1312,5.0906,5.048,5.048,5.0906,5.0906,5.0906,5.0906,5.0519,4.9461,4.7874,4.7369,4.6206,4.4655,4.4532,4.4515,4.4515,4.4515,4.4515,4.4515,4.4515,4.4515,4.4571,4.5003,4.4871,4.4721,4.5998,4.6354,4.6392,4.6861,4.7256,4.7556,4.7556,4.8108,4.8527,4.7728,4.7411,4.733,4.7341,4.6941,4.6764,4.7516,4.7757,4.7534,4.6661,4.655,4.6327,4.5491,4.4989,4.4692,4.4692,4.4302,4.4005,4.4005,4.4005,4.4005,4.4005,4.3841,4.3679,4.3477,4.3069,4.1971,4.0006,3.8508,3.7387,3.6673,3.6409,3.6301,3.6301,3.6301,3.6301,3.6301,3.6301,3.6301,3.6301,3.668,3.6853,3.0598,3.1197,3.1932,3.2386,3.3963,3.5375,0.0,0.0,0.0,3.7599,3.7967,3.8566,4.0113,4.1409,4.3169,4.5955,4.8256,4.9919,5.0519,5.1119,5.2144,5.3884,5.4097,5.4523,5.5606,5.5896,5.5509,5.4271,5.4561,5.4233,5.2956,5.226,5.1815,5.1621,5.077,5.0306,5.0306,4.9707,4.9803,5.0616,5.0422,5.0306,5.0306,5.0306,4.9379,4.7778,4.7545,4.6428,4.4776,4.4587,4.4515,4.4515,4.4515,4.4515,4.4515,4.4515,4.4515,4.459,4.5209,4.5021,4.4759,4.6223,4.6242,4.5829,4.6486,4.6711,4.6711,4.6711,4.7143,4.765,4.7856,4.7402,4.7068,4.7815,4.7434,4.7076,4.7828,4.8481,4.8426,4.681,4.7144,4.7386,4.6382,4.5714,4.5287,4.5287,4.4562,4.4005,4.4005,4.4005,4.4005,4.4005,4.4005,4.3961,4.3804,4.3243,4.2123,4.0309,3.8389,3.7232,3.7055,3.6741,3.6557,3.6557,3.6492,3.6451,3.6451,3.6343,3.6301,3.6301,3.6301,3.6301,3.0598,3.1197,3.1642,3.0946,3.2648,0.0,3.7406,3.7986,0.0,4.0172,4.11,4.1912,4.286,4.5007,4.698,4.8043,4.9049,5.0538,5.2879,5.3285,5.3942,5.5625,5.5818,5.5567,5.4948,5.5567,5.5006,5.2569,5.3884,5.371,5.1235,5.1041,5.0654,4.99,4.903,4.8585,4.8585,4.8527,4.8933,4.9784,4.8972,4.8585,4.8585,4.8585,4.7951,4.6874,4.6663,4.5891,4.4776,4.4587,4.4515,4.4515,4.4515,4.4515,4.4515,4.4515,4.4515,4.4515,4.459,4.4552,4.4646,4.551,4.5754,4.5716,4.5772,4.5791,4.5791,4.5791,4.5848,4.6073,4.688,4.6952,4.7011,4.7796,4.7863,4.7913,4.863,4.8872,4.8426,4.681,4.7144,4.7218,4.5639,4.5342,4.5287,4.5287,4.4562,4.4005,4.4005,4.4005,4.4005,4.4005,4.4005,4.3961,4.3804,4.2919,4.1977,4.1049,3.9464,3.8255,3.7487,3.7432,3.7432,3.7432,3.7055,3.686,3.686,3.6492,3.6301,3.6301,3.6301,3.6301,3.0598,3.1197,3.1739,3.1429,3.288,0.0,0.0,3.787,3.934,4.0539,4.1874,4.3073,4.3962,4.5297,4.6748,4.8179,4.9552,5.0964,5.2472,5.3149,5.373,5.4368,5.4445,5.4329,5.402,5.4271,5.3826,5.2298,5.2318,5.1718,5.0229,4.9649,4.9204,4.8894,4.8566,4.8392,4.8392,4.785,4.7753,4.8082,4.8295,4.8392,4.8411,4.8263,4.7696,4.6797,4.6399,4.5694,4.4776,4.4587,4.4515,4.4515,4.4515,4.4515,4.4515,4.4515,4.4515,4.4515,4.4515,4.4515,4.4552,4.4853,4.4946,4.4946,4.4946,4.4946,4.5059,4.5566,4.5341,4.5266,4.6655,4.654,4.6274,4.7037,4.6775,4.668,4.7917,4.8181,4.8129,4.8017,4.7831,4.7664,4.7553,4.629,4.5639,4.6643,4.5194,4.4191,4.4729,4.4339,4.4005,4.4005,4.3929,4.3851,4.3804,4.3343,4.269,4.1901,4.0108,3.8724,3.7915,3.765,3.7505,3.7505,3.7358,3.7266,3.7266,3.7132,3.69,3.6678,3.6678,3.6516,3.0598,3.1197,3.1797,3.1797,0.0,0.0,3.6574,3.845,4.0462,4.2376,4.3692,4.4678,4.5278,4.5838,4.6689,4.8159,4.9591,5.0906,5.2028,5.2705,5.3188,5.3459,5.3498,5.3382,5.3111,5.3343,5.2917,5.1525,5.1099,5.0442,4.9359,4.8469,4.7985,4.7985,4.7715,4.7579,4.7579,4.698,4.6689,4.6689,4.7289,4.7579,4.7579,4.7452,4.7022,4.6356,4.5977,4.5423,4.4776,4.4587,4.4515,4.4515,4.4515,4.4515,4.4515,4.4515,4.4515,4.4515,4.4515,4.4515,4.4515,4.4515,4.4515,4.4515,4.4515,4.4515,4.4627,4.5172,4.4928,4.4777,4.5923,4.5715,4.5442,4.6237,4.6127,4.6115,4.7183,4.7582,4.7701,4.7757,4.7738,4.7794,4.8091,4.6773,4.6141,4.7497,4.5584,4.4302,4.5194,4.4544,4.4005,4.4005,4.3897,4.3837,4.3804,4.3652,4.3183,4.2341,4.1022,3.9792,3.8704,3.8395,3.8131,3.7879,3.7756,3.7685,3.7685,3.7578,3.7358,3.7094,3.7094,3.6939,3.0598,3.1197,3.1797,3.1816,0.0,0.0,3.8926,4.0172,4.199,4.6225,4.7096,4.7096,4.7096,4.7096,4.7386,4.8256,4.9126,5.0268,5.195,5.2182,5.2511,5.3362,5.3478,5.313,5.226,5.2956,5.2414,4.99,5.0422,5.0152,4.8488,4.756,4.7096,4.7096,4.6245,4.58,4.58,4.58,4.58,4.58,4.58,4.58,4.58,4.58,4.5692,4.5472,4.5284,4.5052,4.4795,4.4587,4.4515,4.4515,4.4515,4.4515,4.4515,4.4515,4.4515,4.4515,4.4515,4.4515,4.4515,4.4515,4.4515,4.4515,4.4515,4.4515,4.4515,4.4515,4.4515,4.4515,4.4515,4.4515,4.4674,4.5423,4.6158,4.6663,4.6619,4.7173,4.7218,4.5621,4.6605,4.7441,4.6643,4.6513,4.6773,4.7571,4.5602,4.4321,4.5175,4.4525,4.4005,4.4005,4.3961,4.3883,4.3804,4.3667,4.3217,4.2359,4.2304,4.1589,3.9955,3.99,3.9515,3.8726,3.8303,3.8101,3.8101,3.7721,3.7505,3.7505,3.7505,3.7505,3.0598,3.1197,3.1952,3.256,3.464,3.7212,3.9823,4.0597,4.1816,4.5432,4.667,4.7096,4.7096,4.7096,4.7386,4.8256,4.8624,4.9378,5.1061,5.1293,5.1389,5.1641,5.1679,5.1583,5.1312,5.1003,5.0519,4.9765,4.8798,4.8005,4.7502,4.6651,4.6187,4.6187,4.5916,4.58,4.58,4.58,4.58,4.58,4.58,4.58,4.58,4.5642,4.5472,4.5283,4.503,4.477,4.4568,4.4524,4.4515,4.4515,4.4515,4.4515,4.4515,4.4515,4.4515,4.4515,4.4515,4.4515,4.4515,4.4515,4.4515,4.4515,4.4515,4.4515,4.4515,4.4515,4.4515,4.4515,4.4515,4.4515,4.4543,4.4768,4.4915,4.5163,4.5711,4.5903,4.603,4.6122,4.6531,4.6958,4.7293,4.6865,4.6773,4.7571,4.6104,4.4785,4.4432,4.4153,4.4005,4.4005,4.3961,4.3897,4.3883,4.3701,4.349,4.3217,4.3164,4.2158,3.9974,3.99,3.9515,3.8726,3.8596,3.8515,3.8515,3.8401,3.8219,3.7913,3.7913,3.7756,3.0598,3.1449,3.2609,3.3828,3.6052,3.8528,4.0771,4.2318,4.3885,4.5896,4.6728,4.7096,4.7096,4.6825,4.6864,4.7734,4.7869,4.8353,4.9726,4.9919,4.9919,4.9919,4.9919,4.9919,4.9919,4.9475,4.9049,4.8682,4.7695,4.6941,4.6593,4.609,4.58,4.58,4.58,4.58,4.58,4.58,4.58,4.58,4.58,4.58,4.58,4.5673,4.5454,4.518,4.4838,4.4621,4.4515,4.4515,4.4515,4.4515,4.4515,4.4515,4.4515,4.4515,4.4515,4.4515,4.4515,4.4515,4.4515,4.4515,4.4515,4.4515,4.4515,4.4515,4.4515,4.4515,4.4515,4.4515,4.4515,4.4515,4.4515,4.4515,4.4645,4.4808,4.4976,4.5171,4.5342,4.5472,4.5788,4.6178,4.6661,4.6345,4.6401,4.7534,4.6605,4.5342,4.4153,4.4005,4.4005,4.4005,4.3974,4.3929,4.3897,4.3767,4.3667,4.3615,4.3532,4.269,4.0928,4.0543,3.9845,3.8726,3.8707,3.8707,3.8707,3.8707,3.8596,3.8336,3.8336,3.8219,3.0598,3.1816,3.3518,3.5259,3.7793,4.0288,4.1951,4.4755,4.696,4.6883,4.7057,4.7192,4.7115,4.6438,4.6167,4.696,4.7096,4.7405,4.8275,4.8392,4.8392,4.8392,4.8392,4.8392,4.8392,4.8333,4.7947,4.7154,4.7018,4.6631,4.5838,4.5814,4.5814,4.5814,4.5814,4.5814,4.5814,4.5814,4.5814,4.58,4.58,4.58,4.58,4.58,4.5594,4.518,4.47,4.4515,4.4515,4.4515,4.4515,4.4515,4.4515,4.4515,4.4515,4.4515,4.4515,4.4515,4.4515,4.4515,4.4515,4.4515,4.4515,4.4515,4.4515,4.4515,4.4515,4.4515,4.4515,4.4515,4.4515,4.4515,4.4515,4.4515,4.4963,4.5182,4.4453,4.4761,4.4952,4.4153,4.4692,4.5287,4.5287,4.5361,4.5881,4.7274,4.6791,4.5714,4.4191,4.4005,4.4005,4.4005,4.4005,4.3974,4.3897,4.3851,4.3753,4.3634,4.3566,4.313,4.2323,4.1607,4.0451,3.8836,3.8817,3.8781,3.8707,3.8707,3.8707,3.8707,3.8707,3.8707,3.0598,3.1816,3.3518,3.5259,3.9127,4.2918,4.4601,4.5548,4.5896,4.5278,4.6728,4.7908,4.7231,4.6941,4.6883,4.7076,4.7096,4.7405,4.8275,4.8392,4.8392,4.8392,4.8392,4.8392,4.8392,4.7773,4.7289,4.7115,4.6505,4.6054,4.58,4.5854,4.588,4.5893,4.588,4.588,4.5893,4.5893,4.5847,4.58,4.58,4.58,4.58,4.58,4.5594,4.518,4.47,4.4515,4.4515,4.4515,4.4515,4.4515,4.4515,4.4515,4.4515,4.4515,4.4515,4.4515,4.4515,4.4515,4.4515,4.4515,4.4515,4.4515,4.4515,4.4515,4.4515,4.4515,4.4515,4.4515,4.4515,4.4515,4.4515,4.4515,4.459,4.4579,4.4352,4.4375,4.4358,4.4042,4.4692,4.5287,4.5287,4.5807,4.6141,4.5862,4.5082,4.4413,4.4042,4.4005,4.4005,4.4005,4.4005,4.4005,4.3974,4.3929,4.3851,4.3753,4.3634,4.3198,4.2341,4.2139,4.1295,3.9662,3.9643,3.9331,3.8707,3.8707,3.8707,3.8707,3.8707,3.8707,3.0617,3.1855,3.3857,3.6787,4.0752,4.4156,4.5026,4.551,4.5684,4.5258,4.6225,4.7018,4.6554,4.6477,4.6477,4.6477,4.6477,4.6631,4.7096,4.7154,4.7154,4.7154,4.7154,4.7154,4.7154,4.6728,4.6477,4.6477,4.6131,4.5874,4.5847,4.588,4.5905,4.5899,4.5905,4.5905,4.5899,4.5906,4.5893,4.5827,4.5427,4.5239,4.5239,4.542,4.5323,4.4985,4.4648,4.4515,4.4515,4.4515,4.4515,4.4515,4.4515,4.4515,4.4515,4.4515,4.4515,4.4515,4.4515,4.4515,4.4515,4.4515,4.4515,4.4515,4.4515,4.4515,4.4515,4.4515,4.4515,4.4515,4.4515,4.4515,4.4515,4.4515,4.444,4.4383,4.4314,4.4244,4.4153,4.4036,4.4376,4.4674,4.4674,4.5361,4.5639,4.4804,4.4655,4.4469,4.4061,4.4005,4.4005,4.4005,4.4005,4.4005,4.4005,4.3929,4.3883,4.3851,4.3701,4.3398,4.2959,4.2907,4.2121,4.0506,4.0469,4.0267,3.9863,3.9863,3.9863,3.9863,3.9863,3.9863,3.0634,3.198,3.4429,3.8675,4.1854,4.4059,4.4504,4.5104,4.5587,4.5587,4.5703,4.58,4.58,4.58,4.58,4.58,4.58,4.58,4.58,4.58,4.58,4.58,4.58,4.58,4.58,4.58,4.5814,4.5814,4.5874,4.5906,4.5906,4.5905,4.584,4.5704,4.5704,4.5626,4.5471,4.5466,4.5461,4.5428,4.4711,4.4355,4.4332,4.4671,4.4775,4.4621,4.4237,4.4158,4.4289,4.4139,4.4177,4.4289,4.4139,4.4177,4.4289,4.4289,4.4383,4.4515,4.4515,4.4515,4.4515,4.4515,4.4515,4.4515,4.4515,4.4515,4.4515,4.4515,4.4515,4.4515,4.4515,4.4515,4.4515,4.4515,4.4458,4.4401,4.4314,4.4274,4.4165,4.4036,4.4005,4.4005,4.4005,4.4599,4.4822,4.4116,4.4599,4.4822,4.4098,4.4005,4.4005,4.4005,4.4005,4.4005,4.4005,4.3961,4.3897,4.3897,4.3734,4.3649,4.3582,4.3419,4.276,4.1552,4.1387,4.1258,4.1111,4.1111,4.1111,4.1111,4.1111,4.1111,3.0646,3.2383,3.527,3.9553,4.0965,4.1893,4.4098,4.4678,4.4755,4.4755,4.5316,4.58,4.58,4.58,4.58,4.58,4.58,4.58,4.58,4.58,4.58,4.58,4.58,4.58,4.58,4.58,4.5814,4.5893,4.588,4.5905,4.5905,4.5964,4.5645,4.4885,4.4927,4.4558,4.3749,4.3729,4.3695,4.3647,4.3531,4.339,4.3217,4.3263,4.356,4.3956,4.2831,4.2769,4.3407,4.2656,4.2787,4.3388,4.2637,4.2806,4.3463,4.3463,4.3895,4.4515,4.4515,4.4515,4.4515,4.4515,4.4515,4.4515,4.4515,4.4515,4.4515,4.4515,4.4515,4.4515,4.4515,4.4515,4.4515,4.4515,4.4487,4.4458,4.4314,4.4285,4.4226,4.4036,4.4005,4.4005,4.4005,4.4098,4.4135,4.4023,4.4098,4.4135,4.4005,4.4005,4.4005,4.4005,4.4005,4.4005,4.4005,4.4005,4.3942,4.3897,4.3865,4.38,4.3615,4.2934,4.2772,4.3167,4.2488,4.1809,4.1111,4.1111,4.1111,4.1111,4.1111,4.1111,3.1883,3.3229,3.5085,3.7909,3.9707,4.1081,4.2222,4.3208,4.3866,4.3866,4.4156,4.4697,4.5626,4.58,4.58,4.58,4.58,4.58,4.58,4.58,4.58,4.58,4.58,4.58,4.58,4.58,4.562,4.5196,4.5214,4.5006,4.4533,4.4558,4.4413,4.4033,4.4063,4.3869,4.347,4.341,4.3144,4.264,4.3092,4.3001,4.244,4.231,4.2544,4.3006,4.2948,4.2768,4.2581,4.2693,4.2675,4.2543,4.2168,4.2543,4.3294,4.3294,4.382,4.4458,4.3989,4.412,4.4439,4.397,4.4139,4.4515,4.4515,4.4515,4.4515,4.4515,4.4515,4.4515,4.4515,4.4515,4.4515,4.4515,4.4515,4.4458,4.4314,4.4285,4.4255,4.4036,4.4005,4.4005,4.4005,4.4005,4.4005,4.4005,4.4005,4.4005,4.4005,4.4005,4.4005,4.4005,4.4005,4.4005,4.4005,4.4005,4.3974,4.3961,4.3929,4.3832,4.3719,4.2875,4.2754,4.3479,4.2708,4.2359,4.2433,4.2433,4.2433,4.2433,4.2433,4.2433,3.2326,3.3344,3.4505,3.6187,3.8218,3.9978,4.0655,4.1777,4.2783,4.3208,4.3305,4.375,4.522,4.5316,4.5239,4.5452,4.5316,4.5162,4.5162,4.5162,4.5162,4.5162,4.5162,4.5162,4.5156,4.5369,4.515,4.4356,4.4548,4.4339,4.3469,4.3481,4.3394,4.318,4.318,4.3063,4.285,4.28,4.2427,4.18,4.2156,4.1989,4.1345,4.0974,4.095,4.1235,4.2227,4.2332,4.1795,4.2194,4.2093,4.168,4.1473,4.1905,4.2656,4.2656,4.3182,4.3782,4.3243,4.3439,4.3853,4.3309,4.3516,4.4063,4.4271,4.4346,4.441,4.4617,4.464,4.4587,4.4587,4.4551,4.4515,4.4515,4.4515,4.4458,4.4314,4.4255,4.4177,4.4036,4.4005,4.4005,4.4005,4.4005,4.4005,4.4005,4.4005,4.4005,4.4005,4.4005,4.4005,4.4005,4.4005,4.4005,4.4005,4.4005,4.4005,4.4005,4.3942,4.3915,4.3837,4.2959,4.282,4.3495,4.2742,4.2724,4.3497,4.3497,4.3497,4.3497,4.3497,4.3497,3.0828,3.2019,3.3662,3.5336,3.6439,3.7754,4.023,4.0868,4.1371,4.2976,4.3305,4.3576,4.4485,4.4001,4.3711,4.4543,4.3982,4.344,4.344,4.344,4.344,4.344,4.344,4.3434,4.3434,4.4189,4.433,4.3516,4.4234,4.4353,4.3539,4.351,4.3122,4.2287,4.2267,4.1859,4.1043,4.1034,4.1013,4.0955,4.0087,3.9677,3.96,3.876,3.8292,3.8197,3.9508,4.0498,4.1079,4.0188,4.0215,4.0797,4.0009,4.0215,4.0929,4.0929,4.1454,4.2156,4.2295,4.2389,4.2431,4.2595,4.2657,4.2848,4.3668,4.3937,4.4109,4.493,4.4985,4.4776,4.4776,4.4629,4.4515,4.4515,4.4515,4.4458,4.4314,4.4147,4.4005,4.4005,4.4005,4.4005,4.4005,4.4005,4.4005,4.4005,4.4005,4.4005,4.4005,4.4005,4.4005,4.4005,4.4005,4.4005,4.4005,4.4005,4.4005,4.4005,4.4005,4.3974,4.3915,4.3119,4.295,4.3563,4.2805,4.2772,4.3497,4.3497,4.3497,4.3497,4.3497,4.3497,3.1451,3.2402,3.3538,3.4649,3.5955,3.7215,3.8164,3.8771,3.9301,3.9901,4.0462,4.0965,4.1274,4.2415,4.3401,4.3711,4.3498,4.3305,4.3305,4.3305,4.3305,4.3305,4.3299,4.3305,4.3298,4.362,4.3501,4.2692,4.2925,4.2722,4.1879,4.184,4.1684,4.1374,4.1374,4.1218,4.0907,4.0898,4.0898,4.0907,4.0516,4.0339,4.0297,3.9429,3.9006,3.8903,3.8584,3.8517,3.8712,3.9359,3.9427,3.922,3.9483,4.0084,4.0823,4.0933,4.1496,4.2143,4.1844,4.206,4.2423,4.1971,4.2182,4.2774,4.3633,4.3901,4.4072,4.4953,4.5118,4.5052,4.5052,4.4985,4.491,4.4739,4.4568,4.443,4.4314,4.4147,4.4005,4.4005,4.4005,4.4005,4.4005,4.4005,4.4005,4.4005,4.4005,4.4005,4.4005,4.4005,4.4005,4.4005,4.4005,4.4005,4.4005,4.4005,4.4005,4.4005,4.4005,4.3974,4.3897,4.3119,4.3032,4.3701,4.2941,4.2857,4.3497,4.3497,4.3497,4.3497,4.3497,4.3497,3.1517,3.226,3.3083,3.3902,3.5135,3.6231,3.6501,3.7185,3.787,3.8141,3.8663,3.9146,3.9449,4.0636,4.1777,4.2376,4.2467,4.2467,4.2467,4.2228,4.2054,4.2054,4.1807,4.1753,4.2024,4.2358,4.2341,4.1791,4.2024,4.182,4.0946,4.0907,4.0907,4.0907,4.0907,4.0907,4.0907,4.0907,4.0762,4.049,4.013,3.9807,3.9495,3.8628,3.8218,3.8168,3.7191,3.6993,3.747,3.8384,3.8413,3.7981,3.8826,3.9483,4.0015,4.0522,4.1048,4.1472,4.1189,4.1454,4.1857,4.1679,4.1792,4.2215,4.3347,4.3692,4.3884,4.4747,4.5132,4.5284,4.5284,4.5182,4.5052,4.4962,4.4714,4.4486,4.4421,4.4218,4.4036,4.4005,4.4005,4.4005,4.4005,4.4005,4.4005,4.4005,4.4005,4.4005,4.4005,4.4005,4.4005,4.4005,4.4005,4.4005,4.4005,4.4005,4.4005,4.4005,4.4005,4.3974,4.3929,4.3423,4.3341,4.3818,4.3333,4.3199,4.36,4.3566,4.3513,4.3497,4.3497,4.3497,0.0,0.0,0.0,3.3064,3.3873,3.4672,3.5456,3.6278,3.7119,3.7928,3.8121,3.8373,3.9236,3.874,3.876,4.0442,4.0738,4.0761,4.0723,4.0087,3.9585,3.9566,3.881,3.8626,3.9491,4.0325,4.084,4.0869,4.1626,4.1723,4.0907,4.0869,4.0888,4.0907,4.0888,4.0888,4.0907,4.0849,4.0441,3.9684,3.8763,3.786,3.7007,3.6123,3.5742,3.5712,3.5292,3.6031,3.7505,3.7187,3.7061,3.7174,3.7981,3.8319,3.8479,3.9523,3.9914,3.9958,4.0372,4.0504,4.0669,4.166,4.1429,4.11,4.2763,4.3285,4.3479,4.4349,4.5005,4.5468,4.5468,4.5165,4.4872,4.5159,4.4962,4.4676,4.4617,4.4402,4.4165,4.4036,4.4005,4.4005,4.4005,4.4005,4.4005,4.4005,4.4005,4.4005,4.4005,4.4005,4.4005,4.4005,4.4005,4.4005,4.4005,4.4005,4.4005,4.4005,4.4005,4.4005,4.4005,4.4005,4.3974,4.3897,4.3897,4.3883,4.3804,4.3667,4.3548,4.3532,4.3479,4.3479,3.0878,0.0,0.0,0.0,0.0,0.0,3.3921,3.4146,3.4551,3.5366,3.5983,3.6469,3.6723,3.7555,3.8369,3.8914,3.9475,3.9669,3.906,3.9342,3.9372,3.8732,3.8452,3.8394,3.8637,3.8927,3.9344,3.9975,3.9664,3.9625,4.0014,4.0033,4.0305,4.0888,4.0344,4.0305,4.0888,3.9703,3.9295,3.9684,3.8763,3.817,3.7918,3.6994,3.6574,3.6524,3.5688,3.5492,3.5806,3.6111,3.6573,3.7178,3.815,3.8896,3.9526,4.0119,4.0339,4.0372,4.0631,4.072,4.0758,4.1029,4.0984,4.1003,4.2048,4.2802,4.3479,4.4349,4.4728,4.4839,4.4839,4.5084,4.5323,4.5399,4.5244,4.4985,4.4669,4.4557,4.4412,4.4048,4.4005,4.4005,4.4005,4.4005,4.4005,4.4005,4.4005,4.4005,4.4005,4.4005,4.4005,4.4005,4.4005,4.4005,4.4005,4.4005,4.4005,4.4005,4.4005,4.4005,4.4005,4.4005,4.4005,4.3974,4.3974,4.3961,4.3883,4.3786,4.3738,4.3719,4.3634,4.3566,0.0,0.0,3.1776,3.2473,0.0,0.0,3.2801,3.3049,3.3316,3.3408,3.4371,3.5183,3.5165,3.626,3.7297,3.7734,3.8471,3.8965,3.8869,3.9296,3.917,3.7948,3.8122,3.8345,3.8345,3.8703,3.9159,3.9664,3.9548,3.9664,4.0169,4.0208,4.0422,4.0888,4.0461,4.0266,4.0402,3.9431,3.8829,3.8615,3.8026,3.7569,3.7201,3.6654,3.64,3.635,3.5689,3.5331,3.5232,3.5476,3.5811,3.6316,3.7659,3.8498,3.907,4.0104,4.0489,4.0539,4.0733,4.079,4.0848,4.1177,4.1061,4.0945,4.1757,4.2357,4.2937,4.3808,4.4562,4.5026,4.4697,4.5044,4.543,4.5186,4.5243,4.5243,4.4947,4.454,4.4176,4.4035,4.4005,4.4005,4.4005,4.4005,4.4005,4.4005,4.4005,4.4005,4.4005,4.4005,4.4005,4.4005,4.4005,4.4005,4.4005,4.4005,4.4005,4.4005,4.4005,4.4005,4.4005,4.4005,4.4005,4.4005,4.4005,4.3974,4.3961,4.3883,4.3837,4.3804,4.3719,4.3667,0.0,0.0,0.0,3.2886,3.2665,0.0,3.1999,3.2583,3.2935,3.2088,3.3157,3.4274,3.4399,3.5048,3.5909,3.6945,3.7694,3.8461,3.9345,3.951,3.8946,3.7294,3.7702,3.811,3.811,3.8907,3.9451,3.9548,4.0305,4.0771,4.0771,4.0771,4.081,4.0907,4.081,4.0422,3.9703,3.9509,3.8635,3.71,3.6939,3.6474,3.5708,3.5697,3.5704,3.5684,3.5509,3.5418,3.5391,3.5224,3.5124,3.523,3.6856,3.7613,3.7993,3.9727,4.0442,4.0569,4.0733,4.079,4.0906,4.1622,4.1371,4.0926,4.1641,4.1932,4.2164,4.2937,4.4369,4.5452,4.4562,4.4847,4.523,4.4597,4.4874,4.5206,4.5036,4.4319,4.3772,4.386,4.3875,4.3893,4.3986,4.4005,4.4005,4.4005,4.4005,4.4005,4.4005,4.4005,4.4005,4.4005,4.4005,4.4005,4.4005,4.4005,4.4005,4.4005,4.4005,4.4005,4.4005,4.4005,4.4005,4.4005,4.4005,4.4005,4.4005,4.3961,4.3883,4.3804,4.3804,4.3804,3.3146,3.2522,3.1938,3.227,3.2229,0.0,3.1282,3.1756,3.2285,3.2107,3.2326,3.2978,3.4311,3.4701,3.5329,3.6922,3.7278,3.7637,3.8508,3.8654,3.8266,3.7217,3.6634,3.6304,3.6304,3.71,3.7897,3.8596,3.9451,3.9936,3.9936,3.9936,4.0228,4.0888,4.0266,3.9858,3.9703,3.8305,3.745,3.7081,3.6375,3.5921,3.5708,3.5698,3.5706,3.5704,3.5662,3.5553,3.5405,3.5521,3.5787,3.6169,3.6673,3.7694,3.8958,3.9502,4.0134,4.0765,4.079,4.079,4.0829,4.0984,4.0926,4.0829,4.0984,4.1487,4.2048,4.2202,4.3498,4.4465,4.2918,4.3645,4.4559,4.3755,4.3645,4.3586,4.308,4.352,4.3833,4.3173,4.302,4.3243,4.3893,4.4005,4.4005,4.4005,4.4005,4.4005,4.4005,4.4005,4.4005,4.4005,4.4005,4.4005,4.4005,4.4005,4.4005,4.4005,4.4005,4.4005,4.4005,4.4005,4.4005,4.4005,4.4005,4.4005,4.4005,4.3974,4.3961,4.3883,4.3883,4.3851,3.4042,3.3417,3.2851,3.328,3.2734,0.0,0.0,3.1509,3.1616,3.2025,3.2452,3.2994,3.3799,3.4658,3.5536,3.6417,3.6855,3.7428,3.8318,3.842,3.7916,3.6615,3.6828,3.71,3.71,3.7897,3.8732,3.9587,3.9684,3.9878,4.0286,4.0305,4.048,4.0888,4.013,3.9489,3.9062,3.7741,3.6887,3.6459,3.6006,3.5766,3.5708,3.5698,3.5697,3.5704,3.5704,3.5631,3.5565,3.5662,3.5847,3.6103,3.6607,3.7308,3.8119,3.8658,3.9398,4.0152,4.0152,4.0442,4.079,4.079,4.079,4.079,4.079,4.1351,4.2009,4.2009,4.2937,4.3653,4.2338,4.2976,4.373,4.286,4.2963,4.3183,4.2846,4.2719,4.2743,4.3074,4.2389,4.223,4.3739,4.4005,4.4005,4.4005,4.4005,4.4005,4.4005,4.4005,4.4005,4.4005,4.4005,4.4005,4.4005,4.4005,4.4005,4.4005,4.4005,4.4005,4.4005,4.4005,4.4005,4.4005,4.4005,4.4005,4.4005,4.4005,4.3974,4.3961,4.3961,4.3929,3.4959,3.4315,3.3827,3.451,3.3632,3.2558,0.0,0.0,0.0,3.2246,3.2909,3.3436,3.3545,3.4716,3.5673,3.5673,3.6332,3.7082,3.7672,3.7868,3.7459,3.6215,3.7292,3.808,3.7922,3.8702,3.9606,4.0597,4.0072,4.0053,4.0869,4.0907,4.083,4.0674,4.0033,3.9198,3.8149,3.745,3.6653,3.5799,3.5793,3.5756,3.5708,3.5708,3.5697,3.5704,3.5704,3.5704,3.5704,3.5704,3.5704,3.5762,3.6419,3.6767,3.7,3.7696,3.8508,3.9243,3.9243,3.9707,4.0326,4.05,4.0655,4.079,4.079,4.1255,4.1777,4.1777,4.2396,4.286,4.199,4.2415,4.2841,4.197,4.2273,4.2714,4.2676,4.1949,4.166,4.2834,4.1944,4.1616,4.3453,4.3825,4.3825,4.3763,4.3893,4.4005,4.4005,4.4005,4.4005,4.4005,4.4005,4.4005,4.4005,4.4005,4.4005,4.4005,4.4005,4.4005,4.4005,4.4005,4.4005,4.4005,4.4005,4.4005,4.4005,4.4005,4.4005,4.4005,4.4005,4.4005,3.5857,3.5213,3.4588,3.4686,3.4549,3.4198,3.3437,0.0,3.4083,3.3383,0.0,3.3639,3.4402,0.0,0.0,3.4832,3.5507,3.5819,3.5214,3.5747,3.6411,3.6973,3.7164,3.6977,3.6242,3.6907,3.8071,3.9703,3.9761,4.0053,4.0869,4.0907,4.0577,3.9858,3.9761,3.8907,3.7256,3.7159,3.6653,3.5799,3.5791,3.5773,3.5708,3.5699,3.5698,3.5704,3.5704,3.5704,3.5704,3.5704,3.5704,3.5704,3.58,3.6265,3.6903,3.7019,3.7599,3.8353,3.8353,3.8411,3.8624,3.9398,4.0172,4.079,4.079,4.0848,4.0945,4.0945,4.1525,4.1951,4.1139,4.1545,4.1932,4.1119,4.1003,4.1009,4.0777,4.1312,4.1728,4.1426,4.1787,4.2291,4.2832,4.3117,4.3203,4.2958,4.354,4.4005,4.4005,4.4005,4.4005,4.4005,4.4005,4.4005,4.4005,4.4005,4.4005,4.4005,4.4005,4.4005,4.4005,4.4005,4.4005,4.4005,4.4005,4.4005,4.4005,4.4005,4.4005,4.4005,4.4005,4.4005,3.5991,3.574,3.5447,3.5447,3.5076,3.4608,3.4237,3.4042,3.3983,3.4139,0.0,0.0,0.0,0.0,0.0,0.0,3.5386,3.58,3.5501,3.6149,3.6596,3.6459,3.6426,3.645,3.6572,3.7358,3.8363,3.9606,3.9703,4.0053,4.0869,4.0907,4.0752,4.0402,3.9451,3.8596,3.7858,3.6848,3.6168,3.5799,3.5799,3.5801,3.5766,3.5708,3.5708,3.5706,3.5695,3.5704,3.5704,3.5704,3.5704,3.5704,3.5704,3.5916,3.6207,3.6207,3.6729,3.7444,3.7444,3.7793,3.8334,3.9224,3.9758,4.0133,4.0636,4.079,4.079,4.079,4.1042,4.1235,4.0887,4.1042,4.1216,4.0868,4.079,4.0765,4.0612,4.0804,4.1094,4.1284,4.1186,4.1193,4.1526,4.2333,4.2928,4.2828,4.3485,4.3838,4.3355,4.3708,4.4005,4.4005,4.4005,4.4005,4.4005,4.4005,4.4005,4.4005,4.4005,4.4005,4.4005,4.4005,4.4005,4.4005,4.4005,4.4005,4.4005,4.4005,4.4005,4.4005,4.4005,4.4005,3.5991,3.5991,3.5991,3.5991,3.5525,3.5057,3.5057,3.4569,3.4295,3.494,3.5057,0.0,0.0,0.0,3.572,3.4842,0.0,3.5855,3.5664,3.6347,3.6635,3.5991,3.5907,3.6123,3.6713,3.7331,3.8052,3.8926,3.9217,3.9703,4.0538,4.0771,4.0791,4.0577,3.9392,3.8518,3.8052,3.6789,3.6051,3.5799,3.5799,3.5801,3.5803,3.5747,3.5718,3.5707,3.5706,3.5695,3.5704,3.5704,3.5704,3.5704,3.5704,3.5704,3.5704,3.5704,3.6071,3.6574,3.6574,3.7135,3.7947,3.8586,3.9108,3.9623,4.0249,4.0597,4.079,4.079,4.079,4.079,4.079,4.079,4.079,4.079,4.079,4.079,4.0746,4.0598,4.0646,4.1178,4.0705,4.0368,4.0825,4.1717,4.2286,4.2158,4.3002,4.3466,4.2872,4.3503,4.4005,4.4005,4.4005,4.4005,4.4005,4.4005,4.4005,4.4005,4.4005,4.4005,4.4005,4.4005,4.4005,4.4005,4.4005,4.4005,4.4005,4.4005,4.4005,4.4005,4.4005,4.4005,3.5991,3.5991,3.5991,3.5991,3.5971,3.5952,3.5952,3.5932,3.5913,3.5952,3.5952,3.5952,3.5952,3.5971,3.572,3.4842,3.5428,0.0,0.0,3.5486,3.6035,3.5996,3.5936,3.5919,3.5933,3.5903,3.6246,3.712,3.7955,3.881,3.9684,4.048,4.0538,3.9761,3.9684,3.8848,3.7159,3.7081,3.6634,3.5799,3.5799,3.5801,3.5803,3.5803,3.5757,3.5707,3.5707,3.5687,3.5704,3.5704,3.5704,3.5704,3.5704,3.5704,3.5704,3.5704,3.5723,3.5742,3.5742,3.6265,3.6961,3.698,3.8121,3.9507,3.9526,4.0133,4.079,4.079,4.079,4.079,4.079,4.079,4.079,4.079,4.079,4.079,4.079,4.0746,4.0706,4.0725,4.0485,4.0551,4.1342,4.1314,4.1014,4.0542,4.1813,4.2835,4.2797,4.3503,4.4005,4.4005,4.4005,4.4005,4.4005,4.4005,4.4005,4.4005,4.4005,4.4005,4.4005,4.4005,4.4005,4.4005,4.4005,4.4005,4.4005,4.4005,4.4005,4.4005,4.4005,4.4005,3.5991,3.5991,3.5991,3.5991,3.5991,3.5991,3.5991,3.5991,3.5991,3.5991,3.5991,3.5991,3.5991,3.5991,3.5893,3.5603,3.5818,3.5896,0.0,3.5818,3.5991,3.5991,3.5937,3.5903,3.5899,3.5891,3.6209,3.705,3.7372,3.8169,3.9625,3.9956,4.0228,4.0499,3.9975,3.9431,3.8829,3.8246,3.7528,3.6653,3.6653,3.6354,3.5801,3.5812,3.5766,3.5689,3.5698,3.5697,3.5704,3.5704,3.5704,3.5704,3.5704,3.5704,3.5704,3.5704,3.5704,3.5704,3.5704,3.5878,3.6187,3.6729,3.7696,3.874,3.9321,4.0113,4.079,4.079,4.079,4.079,4.079,4.079,4.079,4.079,4.079,4.079,4.079,4.079,4.0746,4.07,4.0626,4.0581,4.0631,4.0461,4.0564,4.1274,4.2191,4.2797,4.2797,4.3503,4.4005,4.4005,4.4005,4.4005,4.4005,4.4005,4.4005,4.4005,4.4005,4.4005,4.4005,4.4005,4.4005,4.4005,4.4005,4.4005,4.4005,4.4005,4.4005,4.4005,4.4005,4.4005,3.5991,3.5991,3.5991,3.5991,3.5991,3.5991,3.5991,3.5991,3.5991,3.5991,3.5991,3.5991,3.5991,3.5991,3.5991,3.5991,3.5991,3.5991,0.0,3.5991,3.5991,3.5991,3.5933,3.5894,3.5903,3.5899,3.6119,3.6604,3.7217,3.8052,3.9179,3.98,4.0364,4.0888,4.0402,3.9994,3.9703,3.914,3.8266,3.71,3.71,3.6634,3.5791,3.5801,3.5756,3.5708,3.5708,3.5697,3.5704,3.5704,3.5704,3.5704,3.5704,3.5704,3.5704,3.5704,3.5704,3.5704,3.5704,3.5704,3.5781,3.6303,3.7058,3.7909,3.876,3.9649,4.0404,4.0713,4.079,4.079,4.079,4.079,4.079,4.079,4.079,4.079,4.079,4.079,4.079,4.0746,4.0733,4.0654,4.0419,4.0193,4.0397,4.1318,4.1997,4.2482,4.276,4.3503,4.4005,4.4005,4.4005,4.4005,4.4005,4.4005,4.4005,4.4005,4.4005,4.4005,4.4005,4.4005,4.4005,4.4005,4.4005,4.4005,4.4005,4.4005,4.4005,4.4005,4.4005,4.4005]},{"header":{"parameterUnit":"m.s-1","parameterCategory":1,"la1":30.6,"la2":29.2853,"lo1":-89.7004,"lo2":-87.6739,"dy":0.0162,"dx":0.0183,"nx":112,"ny":82,"refTime":"2023-06-01T12:00:00:Z","depth":0,"parameterNumber":3,"parameterNumberName":"V-component_of_WINDS"},"data":[0.0,0.0,0.0,0.0,0.0,0.0,0.0,0.0,0.0,0.0,0.0,0.0,0.0,0.0,0.0,0.0,0.0,0.0,0.0,0.0,0.0,0.0,0.0,0.0,0.0,0.0,0.0,0.0,0.0,0.0,0.0,0.0,0.0,0.0,0.0,0.0,0.0,0.0,0.0,0.0,0.0,0.0,0.0,0.0,0.0,0.0,0.0,0.0,0.0,0.0,0.0,0.0,0.0,0.0,0.0,0.0,0.0,0.0,0.0,0.0,0.0,0.0,0.0,0.0,0.0,0.0,0.0,0.0,0.0,0.0,0.0,0.0,0.0,0.0,0.0,0.0,0.0,0.0,0.0,0.0,0.0,0.0,0.0,0.0,0.0,0.0,0.0,0.0,0.0,0.0,1.1216,1.2518,1.4547,1.5497,1.4744,1.4572,1.3803,1.2113,0.0,0.0,0.0,0.0,0.0,0.0,0.0,0.0,0.0,0.0,0.0,0.0,0.0,0.0,0.0,0.0,0.0,0.0,0.0,0.0,0.0,0.0,0.0,0.0,0.0,0.0,0.0,0.0,0.0,0.0,0.0,0.0,0.0,0.0,0.0,0.0,0.0,0.0,0.0,0.0,0.0,0.0,0.0,0.0,0.0,0.0,0.0,0.0,0.0,0.0,0.0,0.0,0.0,0.0,0.0,0.0,0.0,0.0,0.0,0.0,0.0,0.0,0.0,0.0,0.0,0.0,0.0,0.0,0.0,0.0,0.0,0.0,0.0,0.0,0.0,0.0,0.0,0.0,0.0,0.0,0.0,0.0,0.0,0.0,0.0,0.0,0.0,0.0,0.0,0.0,0.0,0.0,0.0,0.0,0.0,0.0,0.0,0.0,0.0,0.0,0.0,0.0,0.0,0.0,1.1524,1.3613,1.5018,1.5497,1.4744,1.4067,1.3277,1.2237,0.0,0.0,0.0,0.0,0.0,0.0,0.0,0.0,0.0,0.0,0.0,0.0,0.0,0.0,0.0,0.0,0.0,0.0,0.0,0.0,0.0,0.0,0.0,0.0,0.0,0.0,0.0,0.0,0.0,0.0,0.0,0.0,0.0,0.0,0.0,0.0,0.0,0.0,0.0,0.0,0.0,0.0,0.0,0.0,0.0,0.0,0.0,0.0,0.0,0.0,0.0,0.0,0.0,0.0,0.0,0.0,0.0,0.0,0.0,0.0,0.0,0.0,0.0,0.0,0.0,0.0,0.0,0.0,0.0,0.0,0.0,0.0,0.0,0.0,0.0,0.0,0.0,0.0,0.0,0.0,0.0,0.0,0.0,0.0,0.0,0.0,0.0,0.0,0.0,0.0,0.0,0.0,0.0,0.0,0.0,0.0,0.0,0.0,0.0,0.0,0.0,0.0,0.0,1.1429,1.25,1.3939,1.4923,1.518,1.4427,1.3665,1.2883,1.2167,1.2175,0.0,0.0,0.0,0.0,0.0,0.0,0.0,0.0,0.0,0.0,0.0,0.0,0.0,0.0,0.0,0.0,0.0,0.0,0.0,0.0,0.0,0.0,0.0,0.0,0.0,0.0,0.0,0.0,0.0,0.0,0.0,0.0,0.0,0.0,0.0,0.0,0.0,0.0,0.0,0.0,0.0,0.0,0.0,0.0,0.0,0.0,0.0,0.0,0.0,0.0,0.0,0.0,0.0,0.0,0.0,0.0,0.0,0.0,0.0,0.0,0.0,0.0,0.0,0.0,0.0,0.0,0.0,0.0,0.0,0.0,0.0,0.0,0.0,0.0,0.0,0.0,0.0,0.0,0.0,0.0,0.0,0.0,0.0,0.0,0.0,0.0,0.0,0.0,0.0,0.0,0.0,0.0,0.0,0.0,0.0,0.0,0.0,0.0,0.0,0.0,0.0,0.0,1.2509,1.3262,1.4016,1.4692,1.4786,1.4024,1.3271,1.2573,1.1965,1.1707,0.0,0.0,0.0,0.0,0.0,0.0,0.0,0.0,0.0,0.0,0.0,0.0,0.0,0.0,0.0,0.0,0.0,0.0,0.0,0.0,0.0,0.0,0.0,0.0,0.0,0.0,0.0,0.0,0.0,0.0,0.0,0.0,0.0,0.0,0.0,0.0,0.0,0.0,0.0,0.0,0.0,0.0,0.0,0.0,0.0,0.0,0.0,0.0,0.0,0.0,0.0,0.0,0.0,0.0,0.0,0.0,0.0,0.0,0.0,0.0,0.0,0.0,0.0,0.0,0.0,0.0,0.0,0.0,0.0,0.0,0.0,0.0,0.0,0.0,0.0,0.0,0.0,0.0,0.0,0.0,0.0,0.0,0.0,0.0,0.0,0.0,0.0,0.0,0.0,0.0,0.0,0.0,0.0,0.0,0.0,0.0,0.0,0.0,0.0,0.0,0.0,0.0,1.2509,1.3262,1.4016,1.447,1.4401,1.3613,1.286,1.2215,1.1648,1.1301,0.0,0.0,0.0,0.0,0.0,0.0,0.0,0.0,0.0,0.0,0.0,0.0,0.0,0.0,0.0,0.0,0.0,0.0,0.0,0.0,0.0,0.0,0.0,0.0,0.0,0.0,0.0,0.0,0.0,0.0,0.0,0.0,0.0,0.0,0.0,0.0,0.0,0.0,0.0,0.0,0.0,0.0,0.0,0.0,0.0,0.0,0.0,0.0,0.0,0.0,0.0,0.0,0.0,0.0,0.0,0.0,0.0,0.0,0.0,0.0,0.0,0.0,0.0,0.0,0.0,0.0,0.0,0.0,0.0,0.0,0.0,0.0,0.0,0.0,0.0,0.0,0.0,0.0,0.0,0.0,0.0,0.0,0.0,0.0,0.0,0.0,0.0,0.0,0.0,0.0,0.0,0.0,0.0,0.0,0.0,0.0,0.0,0.0,0.0,0.0,0.0,0.0,1.2509,1.3177,1.3673,1.3862,1.3742,1.322,1.2483,1.198,1.1843,0.0,0.0,0.0,0.0,0.0,0.0,0.0,0.0,0.0,0.0,0.0,0.0,0.0,0.0,0.0,0.0,0.0,0.0,0.0,0.0,0.0,0.0,0.0,0.0,0.0,0.0,0.0,0.0,0.0,0.0,0.0,0.0,0.0,0.0,0.0,0.0,0.0,0.0,0.0,0.0,0.0,0.0,0.0,0.0,0.0,0.0,0.0,0.0,0.0,0.0,0.0,0.0,0.0,0.0,0.0,0.0,0.0,0.0,0.0,0.0,0.0,0.0,0.0,0.0,0.0,0.0,0.0,0.0,0.0,0.0,0.0,0.0,0.0,0.0,0.0,0.0,0.0,0.0,0.0,0.0,0.0,0.0,0.0,0.0,0.0,0.0,0.0,0.0,0.0,0.0,0.0,0.0,0.0,0.0,0.0,0.0,0.0,0.0,0.0,0.0,0.0,0.0,1.1901,1.2522,1.298,1.3459,1.3408,1.3194,1.2826,1.2098,1.1713,1.187,0.0,0.0,0.0,0.0,0.0,0.0,0.0,0.0,0.0,0.0,0.0,0.0,0.0,0.0,0.0,0.0,0.0,0.0,0.0,0.0,0.0,0.0,0.0,0.0,0.0,0.0,0.0,0.0,0.0,0.0,0.0,0.0,0.0,0.0,0.0,0.0,0.0,0.0,0.0,0.0,0.0,0.0,0.0,0.0,0.0,0.0,0.0,0.0,0.0,0.0,0.0,0.0,0.0,0.0,0.0,0.0,0.0,0.0,0.0,0.0,0.0,0.0,0.0,0.0,0.0,0.0,0.0,0.0,0.0,0.0,0.0,0.0,0.0,0.0,0.0,0.0,0.0,0.0,0.0,0.0,0.0,0.0,0.0,0.0,0.0,0.0,0.0,0.0,0.0,0.0,0.0,0.0,0.0,0.0,0.0,0.0,0.0,0.0,0.0,0.0,0.0,0.0,1.2462,1.25,1.2672,1.3417,1.3177,1.2809,1.2423,1.1704,1.1418,0.0,0.0,0.0,0.0,0.0,0.0,0.0,0.0,0.0,0.0,0.0,0.0,0.0,0.0,0.0,0.0,0.0,0.0,0.0,0.0,0.0,0.0,0.0,0.0,0.0,0.0,0.0,0.0,0.0,0.0,0.0,0.0,0.0,0.0,0.0,0.0,0.0,0.0,0.0,0.0,0.0,0.0,0.0,0.0,0.0,0.0,0.0,0.0,0.0,0.0,0.0,0.0,0.0,0.0,0.0,0.0,0.0,0.0,0.0,0.0,0.0,0.0,0.0,0.0,0.0,0.0,0.0,0.0,0.0,0.0,0.0,0.0,0.0,0.0,0.0,0.0,0.0,0.0,0.0,0.0,0.0,0.0,0.0,0.0,0.0,0.0,0.0,0.0,0.0,0.0,0.0,0.0,0.0,0.0,0.0,0.0,0.0,0.0,0.0,0.0,0.0,0.0,0.0,1.198,1.2235,1.2475,1.2697,1.2629,1.2415,1.2038,1.1559,1.1318,1.1418,0.0,0.0,0.0,0.0,0.0,0.0,0.0,0.0,0.0,0.0,0.0,0.0,0.0,0.0,0.0,0.0,0.0,0.0,0.0,0.0,0.0,0.0,0.0,0.0,0.0,0.0,0.0,0.0,0.0,0.0,0.0,0.0,0.0,0.0,0.0,0.0,0.0,0.0,0.0,0.0,0.0,0.0,0.0,0.0,0.0,0.0,0.0,0.0,0.0,0.0,0.0,0.0,0.0,0.0,0.0,0.0,0.0,0.0,0.0,0.0,0.0,0.0,0.0,0.0,0.0,0.0,0.0,0.0,0.0,0.0,0.0,0.0,0.0,0.0,0.0,0.0,0.0,0.0,0.0,0.0,0.0,0.0,0.0,0.0,0.0,0.0,0.0,0.0,0.0,0.0,0.0,0.0,0.0,0.0,0.0,0.0,0.0,0.0,0.0,0.0,0.0,0.0,1.204,1.2252,1.2509,1.28,1.2569,1.2303,1.2081,1.1576,1.1326,1.1469,0.0,0.0,0.0,0.0,0.0,0.0,0.0,0.0,0.0,0.0,0.0,0.0,0.0,0.0,0.0,0.0,0.0,0.0,0.0,0.0,0.0,0.0,0.0,0.0,0.0,0.0,0.0,0.0,0.0,0.0,0.0,0.0,0.0,0.0,0.0,0.0,0.0,0.0,0.0,0.0,0.0,0.0,0.0,0.0,0.0,0.0,0.0,0.0,0.0,0.0,0.0,0.0,0.0,0.0,0.0,0.0,0.0,0.0,0.0,0.0,0.0,0.0,0.0,0.0,0.0,0.0,0.0,0.0,0.0,0.0,0.0,0.0,0.0,0.0,0.0,0.0,0.0,0.0,0.0,0.0,0.0,0.0,0.0,0.0,0.0,0.0,0.0,0.0,0.0,0.0,0.0,0.0,0.0,0.0,0.0,0.0,0.0,0.0,0.0,0.0,0.0,0.0,1.2353,1.2393,1.2612,1.3331,1.2766,1.2338,1.2338,1.1687,1.1427,1.1628,0.0,0.0,0.0,0.0,0.0,0.0,0.0,0.0,0.0,0.0,0.0,0.0,0.0,0.0,0.0,0.0,0.0,0.0,0.0,0.0,0.0,0.0,0.0,0.0,0.0,0.0,0.0,0.0,0.0,0.0,0.0,0.0,0.0,0.0,0.0,0.0,0.0,0.0,0.0,0.0,0.0,0.0,0.0,0.0,0.0,0.0,0.0,0.0,0.0,0.0,0.0,0.0,0.0,0.0,0.0,0.0,0.0,0.0,0.0,0.0,0.6243,0.566,0.0,0.0,0.0,0.0,0.0,0.0,0.0,0.0,0.0,0.0,0.0,0.0,0.0,0.0,0.0,0.0,0.0,0.0,0.0,0.0,0.0,0.0,0.0,0.0,0.0,0.0,0.0,0.0,0.0,0.0,0.0,0.0,0.0,0.0,0.0,0.0,0.0,0.0,0.0,0.0,1.1901,1.1961,1.2132,1.2577,1.2226,1.1907,1.1907,1.1533,1.1326,1.1377,1.1578,0.0,0.0,0.0,0.0,0.0,0.0,0.0,0.0,0.0,0.0,0.0,0.0,0.0,0.0,0.0,0.0,0.0,0.0,0.0,0.0,0.0,0.0,0.0,0.0,0.0,0.0,0.0,0.0,0.0,0.0,0.0,0.0,0.0,0.0,0.0,0.0,0.0,0.0,0.0,0.0,0.0,0.0,0.0,0.0,0.0,0.0,0.0,0.0,0.0,0.0,0.0,0.0,0.0,0.0,0.0,0.0,0.0,0.0,0.0,0.7237,0.6748,0.0,0.0,0.0,0.0,0.0,0.0,0.0,0.0,0.0,0.0,0.0,0.0,0.0,0.0,0.0,0.0,0.0,0.0,0.0,0.0,0.0,0.0,0.0,0.0,0.0,0.0,0.0,0.0,0.0,0.0,0.0,0.0,0.0,0.0,0.0,0.0,0.0,0.0,0.0,0.0,1.1984,1.2107,1.2312,1.2869,1.2603,1.2312,1.2124,1.1764,1.1524,1.1385,1.1477,0.0,0.0,0.0,0.0,0.0,0.0,0.0,0.0,0.0,0.0,0.0,0.0,0.0,0.0,0.0,0.0,0.0,0.0,0.0,0.0,0.0,0.0,0.0,0.0,0.0,0.0,0.0,0.0,0.0,0.0,0.0,0.0,0.0,0.0,0.0,0.0,0.0,0.0,0.0,0.0,0.0,0.0,0.0,0.0,0.0,0.0,0.0,0.0,0.0,0.0,0.0,0.0,0.0,0.8209,0.8477,0.8622,0.8622,0.905,0.9755,0.8578,0.8379,0.8795,0.8483,0.0,0.0,0.0,0.0,0.0,0.0,0.0,0.0,0.0,0.0,0.0,0.0,0.0,0.0,0.0,0.0,0.0,0.0,0.0,0.0,0.0,0.0,0.9108,0.9273,0.9562,0.9693,0.9152,0.0,0.0,0.0,0.0,0.0,0.0,0.0,0.0,0.0,0.0,0.0,1.2248,1.2389,1.2655,1.3339,1.3031,1.2646,1.2321,1.1952,1.1662,1.1495,1.1427,1.1528,0.0,0.0,0.0,0.0,0.0,0.0,0.0,0.0,0.0,0.0,0.0,0.0,0.0,0.0,0.0,0.0,0.0,0.0,0.0,0.0,0.0,0.0,0.0,0.0,0.0,0.0,0.0,0.0,0.0,0.0,0.0,0.0,0.4463,0.4463,0.0,0.0,0.0,0.0,0.0,0.0,0.0,0.0,0.0,0.0,0.0,0.0,0.0,0.6681,0.686,0.8602,0.9438,0.9204,1.0234,1.058,1.0396,1.0396,1.0668,1.1182,1.0545,0.0,0.934,0.8837,0.0,0.0,0.0,0.0,0.0,0.0,0.0,0.0,0.0,0.0,0.0,0.0,0.0,0.0,0.0,0.0,0.0,0.0,0.0,0.0,0.0,0.0,0.933,0.9594,1.005,1.0354,1.0013,0.9546,0.9214,0.9463,0.9814,1.0115,0.0,0.0,0.0,0.0,0.0,0.0,1.2338,1.2389,1.256,1.3006,1.2415,1.1916,1.1865,1.1567,1.1429,1.1477,1.1569,1.1728,1.1877,1.1977,0.0,0.0,0.0,0.0,0.0,0.0,0.0,0.0,0.0,0.0,0.0,0.0,0.0,0.0,0.0,0.0,0.0,0.0,0.0,0.0,0.0,0.0,0.0,0.0,0.0,0.0,0.0,0.0,0.0,0.4555,0.4657,0.4539,0.4613,0.4653,0.0,0.0,0.0,0.0,0.0,0.0,0.0,0.0,0.0,0.6059,0.6937,0.7782,0.8599,0.9941,1.0359,0.9873,1.0445,1.079,1.083,1.083,1.134,1.2168,1.1781,1.1335,1.0803,0.9754,0.9106,0.8699,0.0,0.0,0.0,0.0,0.8555,0.8555,0.8555,0.8555,0.8549,0.8519,0.0,0.0,0.0,0.0,0.0,0.0,0.0,0.8643,0.8887,0.9474,1.0014,1.02,1.064,1.0969,1.0668,1.0712,1.0516,0.9569,0.9731,0.9932,0.9695,1.0549,0.0,0.0,0.0,1.2163,1.2646,1.2723,1.2869,1.3237,1.28,1.2389,1.2175,1.1807,1.155,1.1385,1.1519,1.1628,1.1778,1.1927,1.2026,0.0,0.0,0.0,0.0,0.0,0.0,0.0,0.0,0.0,0.0,0.0,0.0,0.0,0.0,0.0,0.0,0.0,0.0,0.0,0.0,0.0,0.0,0.0,0.0,0.0,0.0,0.0,0.0,0.4758,0.4847,0.456,0.4799,0.4897,0.0,0.0,0.0,0.0,0.0,0.0,0.5142,0.5389,0.596,0.6865,0.7533,0.8503,0.9617,1.0483,1.0663,1.0131,1.0547,1.0893,1.107,1.133,1.1975,1.2898,1.2632,1.2367,1.2023,1.0689,0.9862,0.9403,0.901,0.8884,0.8908,0.91,0.9172,0.9172,0.9172,0.9172,0.9154,0.9022,0.8855,0.8681,0.8615,0.0,0.0,0.0,0.0,0.9252,0.9462,1.0083,1.0661,1.0792,1.123,1.157,1.1478,1.1938,1.1818,0.9976,1.0129,1.0464,0.9929,1.0664,0.0,1.1328,1.1893,1.2448,1.2969,1.3057,1.3177,1.3357,1.3134,1.2817,1.2423,1.2055,1.1721,1.149,1.153,1.1619,1.1728,1.1877,1.1977,1.2076,0.0,0.0,0.0,0.0,0.0,0.0,0.0,0.0,0.0,0.0,0.0,0.0,0.0,0.0,0.0,0.0,0.0,0.0,0.0,0.0,0.0,0.0,0.0,0.0,0.0,0.0,0.0,0.0,0.0,0.457,0.5044,0.0,0.0,0.0,0.0,0.537,0.5464,0.5613,0.5749,0.5908,0.6129,0.6496,0.7687,0.8447,0.8893,0.9904,1.0371,1.0182,1.1086,1.1545,1.1728,1.2539,1.3141,1.3459,1.3194,1.2922,1.256,1.1232,1.052,1.0218,0.964,0.9442,0.9442,0.946,0.946,0.946,0.946,0.946,0.9502,0.9736,0.9802,0.9748,0.9502,0.9424,0.0,0.0,0.9442,0.952,0.9838,1.0374,1.0931,1.1191,1.1755,1.2324,1.253,1.2796,1.2548,1.1092,1.1721,1.2307,1.1784,0.0,1.2338,1.2355,1.268,1.2937,1.2971,1.3271,1.3357,1.304,1.2988,1.2817,1.2423,1.2055,1.1833,1.1974,1.178,1.1769,1.1877,1.2026,1.2076,1.2076,1.2076,0.0,0.0,0.0,0.0,0.0,0.0,0.0,0.0,0.0,0.0,0.0,0.0,0.0,0.0,0.0,0.0,0.0,0.0,0.0,0.0,0.0,0.0,0.0,0.0,0.0,0.0,0.0,0.0,0.5342,0.5769,0.0,0.5586,0.5559,0.5627,0.5779,0.602,0.6224,0.6373,0.661,0.7088,0.7985,0.8368,0.8995,0.9802,1.0246,1.0062,0.9439,1.0442,1.099,1.0985,1.1994,1.2869,1.3507,1.3417,1.3224,1.2922,1.227,1.1642,1.1069,1.0695,1.0556,1.0556,1.0556,1.0665,1.0773,1.0423,1.0417,1.0484,1.0073,0.9874,0.9826,0.9562,0.9598,0.973,0.973,1.0043,1.0363,1.0622,1.104,1.1546,1.1814,1.205,1.2194,1.2315,1.2638,1.2799,1.2423,1.2861,1.3,1.2232,1.248,1.2843,1.3074,1.304,1.3245,1.3982,1.3742,1.3554,1.3682,1.3262,1.292,1.2783,1.2201,1.1841,1.2,1.1789,1.1778,1.1877,1.2026,1.2076,1.2076,1.2076,1.2429,0.0,0.0,0.0,0.0,0.0,0.0,0.0,0.0,0.0,0.0,0.0,0.0,0.0,0.0,0.0,0.0,0.0,0.0,0.0,0.0,0.0,0.0,0.0,0.0,0.0,0.562,0.601,0.5962,0.6396,0.6563,0.6213,0.6179,0.6244,0.6393,0.6634,0.6841,0.6993,0.7187,0.7633,0.8425,0.8432,0.8792,0.9539,0.9638,0.9415,0.9161,1.0188,1.0841,1.1311,1.2238,1.3124,1.3773,1.3682,1.355,1.3357,1.2994,1.259,1.2143,1.16,1.1383,1.1383,1.1383,1.1504,1.1612,1.125,1.1238,1.1298,1.0779,1.0539,1.0503,1.0329,1.0401,1.0539,1.0539,1.0858,1.1166,1.1341,1.1676,1.1944,1.2196,1.2182,1.2285,1.2512,1.3024,1.3477,1.3777,1.381,1.3679,1.3219,1.3371,1.3639,1.387,1.3708,1.3827,1.459,1.411,1.3853,1.4256,1.3613,1.3211,1.3339,1.2663,1.2226,1.2336,1.2184,1.2057,1.1983,1.2313,1.2424,1.2328,1.2656,1.3015,1.3294,0.0,0.0,0.0,0.0,0.0,0.0,0.0,0.0,0.0,0.0,0.0,0.0,0.0,0.0,0.0,0.0,0.0,0.0,0.0,0.0,0.0,0.0,0.0,0.5463,0.603,0.6444,0.6318,0.681,0.699,0.6556,0.6776,0.7007,0.7149,0.7299,0.7451,0.7604,0.7614,0.7678,0.7814,0.7818,0.7889,0.8038,0.8038,0.8547,0.944,1.0396,1.1447,1.2503,1.3444,1.4057,1.4286,1.4032,1.3912,1.387,1.3357,1.3296,1.3411,1.2361,1.1956,1.1968,1.1944,1.1926,1.192,1.1932,1.1926,1.192,1.192,1.192,1.192,1.192,1.192,1.192,1.192,1.192,1.1926,1.1932,1.2092,1.2178,1.2185,1.2338,1.2651,1.3265,1.3873,1.4478,1.4926,1.4657,1.4416,1.4695,1.4701,1.4701,1.4701,1.4692,0.0,1.4718,1.4367,1.4264,1.4658,1.4007,1.3691,1.4067,1.3417,1.2988,1.3038,1.2893,1.2617,1.2246,1.2923,1.3103,1.2742,1.3828,1.4156,1.3711,0.0,0.0,0.0,0.0,0.0,0.0,0.0,0.0,0.0,0.0,0.0,0.0,0.0,0.0,0.0,0.0,0.0,0.0,0.0,0.0,0.0,0.5698,0.6125,0.6152,0.6624,0.7024,0.721,0.7465,0.7577,0.7455,0.7428,0.7475,0.7614,0.7665,0.7756,0.7913,0.7919,0.7936,0.7977,0.7977,0.7997,0.8038,0.8726,0.9288,0.9531,1.1376,1.2346,1.2635,1.3706,1.4226,1.4292,1.422,1.4081,1.3894,1.3749,1.3622,1.3447,1.2759,1.2729,1.3006,1.2421,1.2083,1.195,1.2137,1.2083,1.192,1.192,1.192,1.192,1.192,1.192,1.192,1.192,1.192,1.1962,1.2155,1.2204,1.2334,1.2529,1.2425,1.2613,1.3419,1.3584,1.3923,1.4973,1.5064,1.4952,1.5044,1.5069,1.5069,1.5069,1.4846,1.4881,1.542,1.4923,1.4667,1.5026,1.4641,1.429,1.411,1.3648,1.3313,1.3278,1.3005,1.285,1.2969,1.3177,1.3241,1.3121,1.3979,1.4364,0.0,0.0,0.0,0.0,0.0,0.0,0.0,0.0,0.0,0.0,0.0,0.0,0.0,0.0,0.0,0.0,0.0,0.0,0.0,0.0,0.0,0.0,0.6351,0.682,0.7092,0.7299,0.7512,0.7753,0.7913,0.798,0.7913,0.7831,0.7818,0.7899,0.7906,0.7946,0.8035,0.8038,0.8038,0.8038,0.8038,0.8038,0.8038,0.9019,0.9801,1.0293,1.195,1.2926,1.3414,1.4004,1.4298,1.4298,1.4298,1.4208,1.4063,1.3954,1.3882,1.3791,0.0,0.0,0.0,0.0,1.2554,1.2427,1.2463,1.2379,1.2252,1.2252,1.2252,1.2252,1.2252,1.2252,1.2252,1.2252,1.2252,1.2282,1.2439,1.2475,1.2518,1.2668,1.2584,1.2726,1.3635,1.3892,1.4259,1.5388,1.5778,0.0,1.5931,1.5668,1.5463,1.5463,1.5283,1.5309,1.5745,1.5274,1.5103,1.5625,1.5086,1.4649,1.4572,1.4067,0.0,0.0,0.0,1.3441,1.38,1.3635,0.0,0.0,0.0,1.4678,1.4678,1.5187,0.0,0.0,1.4932,1.5049,0.0,0.0,0.0,0.0,0.0,0.0,0.0,0.0,0.0,0.0,0.0,0.0,0.0,0.0,0.0,0.0,0.7149,0.7577,0.8024,0.7987,0.7957,0.8075,0.8211,0.8235,0.8079,0.8065,0.8058,0.8041,0.8055,0.8058,0.8041,0.8055,0.0,0.0,0.0,0.8038,0.8038,0.9038,1.0117,1.117,1.2268,1.3244,1.4298,1.4298,1.4298,1.4298,1.4298,1.4298,1.428,1.4045,1.4087,1.425,1.3785,1.3568,1.3489,1.329,1.3194,1.3133,1.288,0.0,0.0,1.2795,1.2795,1.2795,1.2795,1.2777,1.2753,1.2753,1.2729,1.2705,1.2705,1.2705,1.2705,1.2705,1.279,1.3124,1.3964,1.4578,1.5262,1.6119,1.6652,1.697,1.6927,1.637,1.5917,1.5865,1.5857,1.5848,1.5805,1.5531,1.5583,1.6208,1.5429,0.0,1.5137,1.4547,1.4044,1.3856,1.395,1.4198,1.4506,1.4148,1.413,1.4506,1.4862,1.497,1.497,1.5245,1.541,1.541,1.541,1.541,0.0,0.0,0.0,0.0,0.0,0.0,0.0,0.0,0.0,0.0,0.0,0.0,0.0,0.0,0.0,0.7118,0.7496,0.7882,0.8333,0.8479,0.8503,0.8408,0.8425,0.8384,0.8241,0.8225,0.8174,0.8048,0.8153,0.817,0.8045,0.816,0.817,0.8041,0.8038,0.8038,0.8038,0.9156,1.025,1.1175,1.2335,0.0,1.4298,1.4298,1.4298,1.4298,1.4298,1.4298,1.4292,1.4244,1.425,1.4286,1.4183,1.3888,1.3538,1.3694,1.3622,1.3429,1.3375,1.3363,1.3363,1.3363,1.3363,1.3363,1.3363,1.3212,0.0,1.3043,1.288,1.2705,1.2705,1.2705,1.2705,1.2705,1.3203,1.3957,1.4887,1.5741,1.6516,1.7125,1.7328,1.7269,1.697,1.6798,1.6593,1.6276,1.6233,1.6122,1.584,1.5985,1.6062,1.5917,1.5977,1.5764,1.4855,1.4658,1.44,1.3994,1.4258,1.4446,1.4515,1.4433,1.4433,1.4515,1.4862,1.497,1.497,1.5245,1.541,1.541,1.541,1.541,0.0,0.0,0.0,0.0,0.0,0.0,0.0,0.0,0.0,0.0,0.0,0.5787,0.5918,0.0,0.7025,0.735,0.7769,0.8137,0.8567,0.8615,0.8629,0.8509,0.855,0.8509,0.8292,0.8272,0.8238,0.816,0.8225,0.8238,0.816,0.8228,0.8235,0.8157,0.8153,0.8187,0.8262,0.9274,1.0335,1.1331,1.2319,1.3344,1.4298,1.4298,1.4298,1.4298,1.4298,1.4298,1.4298,1.4298,1.4298,1.4298,1.4298,1.4135,1.3906,1.3906,1.3827,1.3688,1.3562,1.3513,1.3495,1.3363,1.3405,1.3489,1.3357,1.332,1.332,1.332,1.3218,1.3079,1.2952,1.2916,1.288,1.2735,1.3372,1.43,1.5228,1.5718,1.6242,1.6967,1.7095,1.7037,1.6855,1.7153,1.7287,1.6713,1.6456,1.6336,1.6362,1.6353,1.6413,1.6619,1.6456,1.6114,1.5566,1.5028,1.4469,1.4045,1.4508,1.4808,1.4808,1.4808,1.49,1.5093,1.5205,1.5378,1.5586,1.5892,1.6074,1.6074,1.6074,1.5957,0.0,0.0,0.0,0.0,0.0,0.0,0.0,0.4677,0.5027,0.5414,0.5777,0.6169,0.6502,0.6996,0.7466,0.7727,0.8082,0.8429,0.8645,0.8523,0.85,0.8454,0.8528,0.8511,0.8277,0.8227,0.821,0.821,0.8237,0.824,0.821,0.8237,0.8343,0.8313,0.8313,0.8367,0.8479,0.9183,1.0116,1.1084,1.2003,1.2969,1.4004,1.4196,1.4298,1.4298,1.4298,1.4298,1.4298,1.4298,1.4298,1.4298,1.4298,1.4298,1.4268,1.4057,1.3978,1.3954,1.3743,1.367,1.3634,1.3423,1.3495,1.3628,1.3417,1.3465,1.3592,1.3592,1.3556,1.3465,1.3254,1.3163,1.3067,1.2837,1.3417,1.4216,1.497,1.5311,1.5636,1.6288,1.6617,1.6698,1.6698,1.7448,1.7809,1.7124,1.6756,1.6644,1.6893,1.6713,1.6848,1.7304,1.6876,1.6473,1.6332,1.5396,1.4666,1.4267,1.4852,1.5212,1.5212,1.5212,1.5359,1.568,1.5682,1.586,1.6192,1.6606,1.6792,1.6865,1.6943,1.6699,0.61,0.4972,0.4431,0.5253,0.4987,0.4671,0.0,0.573,0.5867,0.6103,0.6524,0.6804,0.6849,0.7481,0.8023,0.8188,0.8352,0.8462,0.8572,0.8475,0.843,0.8386,0.8383,0.838,0.8347,0.8117,0.804,0.804,0.7943,0.7959,0.8049,0.8165,0.8388,0.8462,0.8459,0.8465,0.8482,0.857,0.9113,0.9981,1.1061,1.2043,1.2926,1.3902,1.4298,1.4298,1.4298,1.4298,1.4298,1.4298,1.4298,1.4298,1.4298,1.4298,1.4292,1.4262,1.4256,1.425,1.422,1.4208,1.4208,1.4177,1.4183,1.4201,1.4171,1.402,1.3863,1.3863,1.3694,1.3507,1.3477,1.3302,1.3115,1.3085,1.357,1.4041,1.4126,1.4803,1.5394,1.556,1.6206,1.6698,1.6698,1.7448,1.7894,1.7466,1.7372,1.7235,1.6953,1.7167,1.7252,1.7004,1.7192,1.6935,1.5951,1.572,1.5455,1.5083,1.5414,1.5625,1.5625,1.5625,1.5643,1.5689,1.5835,1.5963,1.6192,1.6766,1.7164,1.7314,1.7695,1.7432,0.6081,0.5124,0.4673,0.5266,0.532,0.5301,0.5758,0.5989,0.6098,0.6484,0.6813,0.7003,0.728,0.7491,0.7779,0.8053,0.8069,0.8045,0.8152,0.7978,0.7798,0.7747,0.7605,0.7648,0.8043,0.789,0.7784,0.7858,0.8028,0.8145,0.8194,0.8357,0.8575,0.8618,0.8615,0.8659,0.8747,0.8659,0.9107,1.0084,1.1111,1.2126,1.3141,1.4109,1.4455,1.4298,1.4298,1.4298,1.4298,1.4298,1.4298,1.4298,1.4298,1.4298,1.4298,1.4298,1.4298,1.4298,1.4298,1.4298,1.4268,1.4117,1.4171,1.4268,1.4117,1.4099,1.4135,1.4135,1.4057,1.3936,1.3779,1.3664,1.3544,1.3387,1.3869,1.4475,1.4462,1.4674,1.4808,1.4808,1.5142,1.5507,1.5914,1.6798,1.7573,1.7772,1.7612,1.7492,1.756,1.7509,1.7329,1.6961,1.7055,1.6687,1.5557,1.5565,1.5579,1.5216,1.5731,1.6056,1.6056,1.6056,1.6266,1.6734,1.6708,1.6964,1.7641,1.804,1.8276,1.8496,1.8672,1.8564,0.6111,0.5451,0.5004,0.5553,0.5807,0.592,0.6067,0.6222,0.6481,0.6763,0.7001,0.7106,0.7375,0.7516,0.7601,0.7747,0.7659,0.7741,0.7778,0.758,0.7388,0.7318,0.7151,0.7176,0.7685,0.7593,0.7557,0.772,0.7846,0.7976,0.8122,0.8336,0.8553,0.8662,0.8665,0.8825,0.8937,0.8788,0.9137,0.9877,1.1163,1.2206,1.3028,1.4194,1.4672,1.4413,1.4413,1.4413,1.4407,1.4328,1.4298,1.4298,1.4298,1.4298,1.4298,1.4298,1.4298,1.4298,1.4298,1.4298,1.4262,1.4075,1.4141,1.4262,1.4075,1.4147,1.4298,1.4298,1.4298,1.4256,1.4063,1.396,1.3857,1.367,1.4016,1.4398,1.4475,1.4313,1.4252,1.4515,1.4771,1.5137,1.594,1.6961,1.7785,1.8082,1.7954,1.7843,1.8014,1.7792,1.7526,1.7252,1.7132,1.6696,1.5833,1.5922,1.5898,1.5593,1.6111,1.6477,1.6477,1.6587,1.6908,1.7486,1.7534,1.7943,1.8682,1.9046,1.9325,1.9463,1.9463,1.9521,0.6395,0.5888,0.5451,0.6653,0.6632,0.6314,0.6545,0.6785,0.6959,0.6967,0.7059,0.7105,0.6999,0.7388,0.7696,0.7451,0.7619,0.7696,0.7454,0.7416,0.7324,0.7079,0.7044,0.7041,0.7044,0.7044,0.7145,0.7393,0.72,0.7253,0.7595,0.7931,0.8149,0.8478,0.8706,0.8933,0.894,0.8788,0.871,0.8814,1.0854,1.1794,1.1897,1.4066,1.495,1.4702,1.4702,1.4702,1.4684,1.4413,1.4298,1.4298,1.4298,1.4298,1.4298,1.4298,1.4298,1.4298,1.4298,1.4298,1.4298,1.4286,1.4292,1.4298,1.4286,1.4292,1.4298,1.4298,1.4298,1.4292,1.4286,1.4093,1.3906,1.3894,1.3701,1.3513,1.3513,1.3507,1.3857,1.4834,1.5697,1.6565,1.7526,1.8518,1.9025,1.8631,1.8562,1.8425,1.8083,1.8031,1.8014,1.8006,1.7672,1.7364,1.7186,1.6949,1.6786,1.6594,1.6733,1.689,1.689,1.7257,1.7468,1.7495,1.8091,1.8452,1.8682,1.9343,1.9771,1.9893,1.9893,2.0127,0.5997,0.6357,0.6898,0.6872,0.6886,0.6899,0.7056,0.716,0.7173,0.7018,0.6888,0.6868,0.6958,0.6894,0.6948,0.7165,0.7271,0.7183,0.7103,0.7091,0.7,0.6752,0.6724,0.6691,0.6608,0.6675,0.6826,0.7072,0.72,0.7362,0.7598,0.7826,0.8045,0.8156,0.8488,0.8598,0.8598,0.8776,0.8862,0.8859,1.0941,1.266,1.3964,1.4796,1.4865,1.4449,1.4636,1.4612,1.4431,1.4334,1.4298,1.4298,1.4298,1.4298,1.4298,1.4298,1.4298,1.4298,1.4298,1.4298,1.4298,1.4298,1.4298,1.4298,1.4298,1.4298,1.4298,1.4298,1.4298,1.4298,1.4298,1.4232,1.4165,1.4165,1.4099,1.4032,1.4032,1.3894,1.4044,1.5035,1.5484,1.6131,1.7597,1.8209,1.8526,1.8598,1.8374,1.8177,1.8057,1.804,1.7937,1.7689,1.7543,1.7295,1.6815,1.6852,1.6813,1.663,1.676,1.7027,1.7284,1.7422,1.7752,1.8293,1.8515,1.8794,1.9303,1.9676,1.9975,2.0198,2.0275,2.042,0.5903,0.6502,0.7279,0.7085,0.7141,0.7293,0.7328,0.7301,0.7217,0.7024,0.679,0.657,0.6711,0.6479,0.6487,0.6728,0.6702,0.676,0.6842,0.6855,0.6812,0.6698,0.6684,0.6654,0.6575,0.6638,0.6733,0.6844,0.7149,0.7342,0.7425,0.7689,0.7826,0.7826,0.8156,0.8377,0.8377,0.8491,0.904,1.0025,1.1423,1.3126,1.5113,1.5306,1.5095,1.4594,1.4781,1.4757,1.457,1.4377,1.4298,1.4298,1.4298,1.4298,1.4298,1.4298,1.4298,1.4298,1.4298,1.4298,1.4298,1.4298,1.4298,1.4298,1.4298,1.4298,1.4298,1.4298,1.4298,1.4298,1.4298,1.4298,1.4298,1.4298,1.4298,1.4298,1.4298,1.4165,1.4321,1.5338,1.5797,1.6557,1.7877,1.8475,1.8764,1.8982,1.8682,1.834,1.8074,1.804,1.7946,1.7697,1.7552,1.7424,1.7164,1.7137,1.7035,1.6917,1.704,1.7165,1.7284,1.7568,1.7963,1.8495,1.8865,1.9219,1.9566,1.9872,2.0098,2.0264,2.0489,2.0566,0.6135,0.6472,0.6768,0.7239,0.7437,0.7486,0.7364,0.7236,0.7108,0.6983,0.6752,0.6505,0.6274,0.6238,0.6206,0.6102,0.6203,0.6377,0.6605,0.6643,0.6687,0.6798,0.6817,0.682,0.682,0.6825,0.6779,0.6657,0.6858,0.6989,0.6994,0.732,0.761,0.7616,0.7829,0.7937,0.7943,0.8048,0.9357,1.1873,1.2191,1.3254,1.5017,1.5626,1.5565,1.5065,1.5083,1.5077,1.5028,1.4509,1.4298,1.4298,1.4298,1.4298,1.4298,1.4298,1.4298,1.4298,1.4298,1.4298,1.4298,1.4298,1.4298,1.4298,1.4298,1.4298,1.4298,1.4298,1.4298,1.4298,1.4298,1.4298,1.4298,1.4298,1.4298,1.4298,1.4298,1.4298,1.458,1.5609,1.664,1.7669,1.8696,1.9355,1.9761,1.9655,1.9436,1.893,1.8168,1.8066,1.8057,1.804,1.7715,1.7726,1.8089,1.7761,1.7519,1.7523,1.7495,1.733,1.6954,1.7678,1.8109,1.8155,1.9062,1.9539,1.9557,2.0029,2.0264,2.0264,2.0489,2.0566,0.6751,0.7437,0.8227,0.7766,0.7565,0.7486,0.7364,0.7176,0.6942,0.6638,0.6246,0.5912,0.5763,0.5809,0.5918,0.6062,0.6412,0.6719,0.6872,0.6964,0.6997,0.6945,0.7013,0.7065,0.7065,0.7146,0.7149,0.7027,0.6997,0.7021,0.7105,0.7252,0.731,0.7401,0.7541,0.7759,0.785,0.8202,0.914,1.0668,1.1617,1.2685,1.3868,1.483,1.5016,1.4515,1.4727,1.4696,1.4491,1.4358,1.4298,1.4298,1.4298,1.4298,1.4298,1.4298,1.4298,1.4298,1.4298,1.4298,1.4298,1.4298,1.4298,1.4298,1.4298,1.4298,1.4298,1.4298,1.4298,1.4298,1.4298,1.4298,1.4298,1.4298,1.4298,1.4298,1.4298,1.4298,1.458,1.5609,1.7196,1.8703,1.9729,2.0025,2.0061,1.9787,1.9667,1.9316,1.8545,1.8451,1.834,1.8066,1.8115,1.8171,1.8115,1.8163,1.7965,1.7541,1.7495,1.7449,1.7348,1.7541,1.7944,1.855,1.876,1.9095,1.9381,1.9784,2.002,2.002,2.0411,2.0566,0.7127,0.7754,0.8224,0.7784,0.7608,0.7445,0.7165,0.6915,0.6641,0.6276,0.5909,0.5616,0.5494,0.557,0.5697,0.5831,0.6208,0.6567,0.6793,0.6972,0.7095,0.7133,0.7241,0.7315,0.7315,0.7375,0.7366,0.7244,0.7225,0.7225,0.7233,0.7285,0.7347,0.7415,0.7414,0.7469,0.759,0.797,0.8702,0.9783,1.1027,1.2102,1.3028,1.4174,1.4471,1.4096,1.4248,1.4225,1.4078,1.3966,1.3919,1.3919,1.3919,1.3919,1.3919,1.3919,1.3919,1.4016,1.4112,1.4112,1.4112,1.4298,1.4298,1.4298,1.4298,1.4298,1.4298,1.4298,1.4298,1.4298,1.4298,1.4298,1.4298,1.4298,1.4298,1.4298,1.4298,1.4298,1.458,1.5609,1.7102,1.8419,1.9446,2.0011,2.0223,2.0018,1.9984,1.9769,1.917,1.8948,1.8699,1.8314,1.8361,1.8449,1.839,1.8442,1.8335,1.7825,1.7935,1.7871,1.7513,1.7844,1.8247,1.8705,1.888,1.9081,1.9301,1.9627,1.9794,1.9794,2.0255,2.0498,0.7453,0.763,0.772,0.7706,0.7584,0.7347,0.6883,0.6564,0.6268,0.5926,0.5667,0.5474,0.5385,0.5469,0.548,0.5613,0.5909,0.6257,0.6619,0.6853,0.7078,0.7331,0.7453,0.7532,0.7562,0.7565,0.7521,0.7415,0.7505,0.7497,0.7345,0.7453,0.751,0.7494,0.7407,0.7293,0.7157,0.7493,0.8149,0.9123,1.0485,1.1576,1.2304,1.362,1.4093,1.3859,1.3859,1.3865,1.3842,1.3625,1.3539,1.3539,1.3539,1.3539,1.3539,1.3539,1.3539,1.3545,1.3835,1.3931,1.4022,1.4202,1.4298,1.4298,1.4298,1.4298,1.4298,1.4298,1.4298,1.4298,1.4298,1.4298,1.4298,1.4298,1.4298,1.4298,1.4298,1.4298,1.458,1.5609,1.6546,1.7475,1.8603,1.9538,2.0102,2.0292,2.0292,2.0172,1.9855,1.9444,1.9025,1.8631,1.8628,1.8637,1.8727,1.878,1.8617,1.8181,1.8522,1.8375,1.7614,1.8256,1.866,1.8715,1.9045,1.9246,1.9301,1.9478,1.9566,1.9636,2.0108,2.0264,0.7625,0.7755,0.7818,0.7725,0.7456,0.7116,0.6738,0.6312,0.5923,0.5665,0.542,0.5273,0.5355,0.5469,0.5648,0.5945,0.6208,0.6505,0.6869,0.6959,0.7111,0.7448,0.7505,0.7595,0.779,0.7809,0.7801,0.778,0.7799,0.7671,0.7353,0.7453,0.7472,0.7372,0.7445,0.738,0.7157,0.7493,0.7715,0.7931,1.017,1.1155,1.116,1.3042,1.3836,1.3602,1.3602,1.3705,1.3899,1.3653,1.3642,1.3835,1.3545,1.3539,1.3539,1.3738,1.3835,1.3835,1.4112,1.4202,1.4202,1.4298,1.4298,1.4298,1.4298,1.4298,1.4298,1.4298,1.4298,1.4298,1.4298,1.4298,1.4298,1.4298,1.4298,1.4298,1.4298,1.4298,1.458,1.5609,1.5981,1.664,1.8511,1.8972,1.9355,2.0192,2.0292,2.0266,2.0206,1.9598,1.9025,1.8631,1.865,1.8691,1.87,1.9002,1.903,1.8641,1.8678,1.8504,1.8036,1.8155,1.8385,1.8705,1.8779,1.8971,1.9301,1.9478,1.9566,1.9636,2.0108,2.0264,0.7758,0.7831,0.7812,0.757,0.7288,0.6923,0.6372,0.5972,0.5635,0.5333,0.5181,0.5116,0.5175,0.5385,0.5521,0.5779,0.6059,0.638,0.6744,0.6904,0.7119,0.7475,0.7627,0.7747,0.7858,0.7872,0.7847,0.7788,0.7837,0.7796,0.7622,0.7614,0.7587,0.7529,0.7459,0.7366,0.7249,0.7241,0.729,0.7287,0.8976,0.9967,1.0301,1.1937,1.2777,1.3152,1.3152,1.3249,1.3346,1.3152,1.3249,1.3346,1.3152,1.3152,1.3152,1.3249,1.3352,1.3346,1.363,1.3721,1.3727,1.4016,1.4112,1.4112,1.4298,1.4208,1.4112,1.4298,1.4298,1.4298,1.4298,1.4298,1.4298,1.4298,1.4298,1.4298,1.4298,1.4298,1.4484,1.4956,1.5419,1.6264,1.7762,1.8419,1.9163,2.0102,2.0292,2.0292,2.0292,1.9812,1.9401,1.9204,1.9106,1.9041,1.9002,1.903,1.8979,1.8742,1.8907,1.8843,1.8449,1.8623,1.8825,1.9017,1.9017,1.9118,1.9301,1.939,1.9469,1.9469,1.9794,2.0029,0.7804,0.7853,0.7785,0.7426,0.7119,0.673,0.6056,0.5678,0.5388,0.508,0.5018,0.5023,0.505,0.5281,0.5499,0.5491,0.5825,0.6143,0.6526,0.6768,0.7048,0.7434,0.7665,0.7815,0.7867,0.7872,0.7834,0.7744,0.782,0.7872,0.7872,0.7785,0.7714,0.7663,0.7475,0.735,0.7298,0.7089,0.6997,0.7018,0.793,0.8831,0.9528,1.0804,1.1781,1.2462,1.2662,1.2861,1.2861,1.2861,1.2861,1.2861,1.2861,1.2764,1.2764,1.2861,1.2861,1.2861,1.3147,1.3147,1.3249,1.3642,1.3835,1.3931,1.4202,1.4112,1.4022,1.4202,1.4298,1.4298,1.4298,1.4298,1.4298,1.4298,1.4298,1.4298,1.4298,1.4298,1.4298,1.4298,1.4956,1.5893,1.7102,1.7948,1.888,2.0102,2.0292,2.0292,2.0292,2.0035,1.9855,1.9952,1.9696,1.9507,1.9194,1.9219,1.9116,1.8861,1.9127,1.9164,1.8852,1.9136,1.9301,1.9301,1.9301,1.9301,1.9301,1.9301,1.9301,1.9301,1.9548,1.9715,0.7684,0.7793,0.7785,0.7426,0.6991,0.6521,0.6018,0.5548,0.5181,0.5045,0.5018,0.5048,0.5151,0.5197,0.533,0.5662,0.5744,0.5926,0.6388,0.6567,0.6828,0.7296,0.747,0.7635,0.785,0.7872,0.7867,0.7856,0.7867,0.7872,0.7872,0.7861,0.7758,0.7543,0.7513,0.7396,0.7173,0.7048,0.7037,0.7135,0.7974,0.8472,0.8556,1.0556,1.1373,1.137,1.2365,1.2861,1.305,1.2856,1.2953,1.305,1.2861,1.2764,1.2861,1.305,1.305,1.3147,1.3346,1.3443,1.3443,1.3539,1.3738,1.3931,1.4202,1.4298,1.4298,1.4298,1.4298,1.4298,1.4298,1.4298,1.4298,1.4298,1.4298,1.4298,1.4298,1.4298,1.4298,1.4298,1.4388,1.5045,1.7016,1.739,1.8133,2.0011,2.0292,2.0292,2.0292,2.0266,2.0331,2.0602,2.0123,1.9609,1.9203,1.9561,1.9615,1.9274,1.9283,1.9283,1.9246,1.9283,1.9301,1.9301,1.9301,1.9301,1.9301,1.9301,1.9301,1.9301,1.9706,1.9863,0.75,0.7728,0.7766,0.7334,0.6921,0.6475,0.5926,0.5483,0.5154,0.504,0.5018,0.5031,0.5075,0.514,0.5257,0.5477,0.5515,0.5681,0.6159,0.6331,0.6611,0.716,0.7399,0.7611,0.7847,0.7872,0.7872,0.7872,0.7872,0.7872,0.7872,0.7807,0.7725,0.763,0.7486,0.7361,0.7266,0.7078,0.7008,0.7051,0.7388,0.7784,0.8343,0.9911,1.0848,1.1458,1.2428,1.2937,1.3057,1.2916,1.2861,1.2953,1.2861,1.2764,1.2764,1.2861,1.2958,1.2958,1.3055,1.3055,1.3055,1.3244,1.3346,1.3443,1.3727,1.3727,1.3624,1.3727,1.3823,1.3823,1.3823,1.3919,1.4118,1.4298,1.4298,1.4298,1.4298,1.4298,1.4298,1.4298,1.4298,1.4765,1.617,1.6358,1.7109,1.9072,1.9446,1.9629,2.0201,2.0292,2.0382,2.0473,2.0263,2.0039,1.9817,1.9815,1.9751,1.9329,1.9301,1.9301,1.9301,1.9301,1.9301,1.9301,1.9301,1.9301,1.9301,1.9301,1.943,1.9677,1.9848,2.0049,0.7141,0.7478,0.7614,0.7206,0.6809,0.6377,0.5852,0.5423,0.5113,0.5034,0.5018,0.5018,0.5018,0.5083,0.5175,0.5295,0.5344,0.5523,0.5969,0.6168,0.6464,0.6989,0.7233,0.7467,0.7739,0.7831,0.7872,0.7872,0.7872,0.7872,0.7872,0.7763,0.7684,0.7649,0.7445,0.7317,0.7282,0.7084,0.7002,0.7035,0.6999,0.7318,0.7871,0.901,1.0115,1.1171,1.2039,1.272,1.3093,1.2931,1.2824,1.2764,1.2764,1.2764,1.2764,1.2764,1.2764,1.2764,1.2764,1.2764,1.2861,1.2953,1.305,1.305,1.3249,1.3249,1.3249,1.3443,1.3539,1.3539,1.3642,1.3738,1.3931,1.4202,1.4298,1.4298,1.4298,1.4298,1.4298,1.4298,1.4298,1.458,1.5609,1.5798,1.6358,1.8133,1.8603,1.9072,1.9729,1.9828,2.0011,2.0382,2.0223,2.0175,2.0229,2.028,2.0053,1.9522,1.9485,1.943,1.9301,1.9301,1.9301,1.9301,1.9421,1.9485,1.9494,1.9604,1.9815,2.0099,1.998,2.0292,0.6564,0.6978,0.7285,0.7046,0.6627,0.6176,0.5814,0.5363,0.5018,0.5018,0.5018,0.5018,0.5018,0.5018,0.5056,0.517,0.529,0.5494,0.5852,0.6116,0.6401,0.6763,0.6915,0.713,0.7489,0.7733,0.7872,0.7872,0.7872,0.7872,0.7872,0.7763,0.7646,0.7524,0.7399,0.7279,0.7157,0.7043,0.7043,0.7152,0.7037,0.6983,0.7089,0.8154,0.9136,1.0136,1.1282,1.2196,1.3104,1.3104,1.2969,1.2764,1.2764,1.2764,1.2764,1.2764,1.2764,1.2764,1.2764,1.2764,1.2764,1.2764,1.2764,1.2764,1.2764,1.3152,1.3539,1.3539,1.3539,1.3539,1.3835,1.3931,1.3931,1.4202,1.4298,1.4298,1.4298,1.4298,1.4298,1.4298,1.4298,1.458,1.5609,1.5798,1.617,1.7196,1.8133,1.8788,1.8788,1.8788,1.9255,2.0555,1.9994,1.9743,2.036,2.0839,2.0759,1.9971,1.9925,1.9742,1.932,1.9301,1.9301,1.9301,1.9714,1.9925,1.9925,2.0319,2.0512,2.0503,2.0264,2.0538,0.5926,0.6244,0.6445,0.6285,0.6072,0.5831,0.5548,0.5301,0.511,0.5031,0.5018,0.5018,0.5018,0.5018,0.5108,0.539,0.5469,0.5619,0.5977,0.6233,0.6518,0.6883,0.732,0.7635,0.775,0.7828,0.7872,0.7872,0.7872,0.7872,0.7872,0.7763,0.7646,0.7524,0.7399,0.7277,0.7157,0.7119,0.7119,0.7154,0.7119,0.7059,0.6986,0.8157,0.9197,1.0408,1.1196,1.2248,1.3335,1.3007,1.2829,1.2764,1.2764,1.2764,1.2764,1.2764,1.2764,1.2764,1.2764,1.2764,1.2764,1.2764,1.2764,1.2764,1.2764,1.2861,1.3055,1.3055,1.3269,1.3554,1.3585,1.3738,1.3931,1.4202,1.4298,1.4298,1.4298,1.4298,1.4298,1.4298,1.4298,1.4388,1.4765,1.4765,1.514,1.6075,1.6546,1.7296,1.8603,1.8788,1.9255,2.0283,2.0456,2.0569,2.0631,2.0698,2.0594,2.0347,2.0081,1.9989,2.0127,2.0136,2.0136,2.0136,2.0264,2.0328,2.0328,2.0457,2.0659,2.0924,2.1167,2.1314,0.5352,0.5703,0.5934,0.5858,0.5752,0.5613,0.5415,0.5241,0.5102,0.5031,0.5018,0.5018,0.5018,0.5018,0.5105,0.5368,0.545,0.5608,0.5966,0.6222,0.6526,0.6937,0.7432,0.7739,0.7739,0.7818,0.7872,0.7872,0.7872,0.7872,0.7872,0.7763,0.7646,0.7524,0.7399,0.7277,0.7157,0.7154,0.7154,0.7154,0.7154,0.7119,0.7048,0.7804,0.896,1.0498,1.0793,1.1918,0.0,1.3012,1.284,1.2764,1.2764,1.2764,1.2764,1.2764,1.2764,1.2764,1.2764,1.2764,1.2764,1.2764,1.2824,1.2888,1.2888,1.2888,1.291,1.3007,1.327,1.3474,1.3618,1.3808,1.3931,1.4202,1.4298,1.4298,1.4298,1.4298,1.4298,1.4298,1.4298,1.4298,1.4298,1.4298,1.4484,1.514,1.5514,1.6264,1.7483,1.8041,1.8603,1.9637,2.0175,2.0532,2.0837,2.0944,2.0915,2.075,2.0365,2.0264,2.0512,2.0374,2.0365,2.0512,2.0668,2.0741,2.0741,2.0897,2.1025,2.1117,2.1539,2.1649,0.0,0.5298,0.5648,0.5665,0.5589,0.5483,0.5371,0.5181,0.0,0.5018,0.5018,0.5021,0.5026,0.5029,0.5072,0.5205,0.5328,0.5529,0.588,0.6162,0.6497,0.6945,0.732,0.7538,0.7521,0.7733,0.7872,0.7872,0.7872,0.7872,0.7872,0.7771,0.7655,0.7524,0.7407,0.7285,0.7157,0.7154,0.7154,0.7154,0.7154,0.7154,0.7154,0.7146,0.8282,1.0301,1.0277,1.1327,1.3104,1.3087,1.2953,1.2764,1.2764,1.2764,1.2764,1.2764,1.2764,1.2764,1.2764,1.2764,1.2764,1.2764,1.2915,1.3109,1.3125,1.3141,1.32,1.3416,1.3527,1.3651,1.3916,1.3941,1.4045,1.4208,1.4298,1.4304,1.4322,1.431,1.4304,1.4322,1.431,1.4298,1.4298,1.4298,1.4298,1.4298,1.514,1.5704,1.5798,1.664,1.7576,1.8603,1.9155,1.9894,2.0808,2.1338,2.153,2.1135,2.0741,2.0521,2.0521,2.0163,2.0145,2.0512,2.0879,2.1062,2.1062,2.1456,2.1447,2.1071,2.1493,2.1484,0.4463,0.0,0.4811,0.4999,0.5094,0.5135,0.0,0.5124,0.5121,0.5034,0.5018,0.5045,0.5129,0.5146,0.5246,0.5556,0.5703,0.5871,0.6146,0.6624,0.6989,0.71,0.7513,0.7717,0.7535,0.7733,0.7872,0.7872,0.7872,0.7872,0.7872,0.7845,0.7736,0.7527,0.7491,0.7372,0.7157,0.7154,0.7154,0.7154,0.7154,0.7154,0.7152,0.7065,0.8192,1.0289,1.002,1.1175,1.3087,1.2915,1.2813,1.2764,1.2764,1.2764,1.2764,1.2764,1.2764,1.2764,1.2764,1.2764,1.2764,1.2764,1.2915,1.3141,1.333,1.3513,1.3626,1.3804,1.4071,1.4299,1.4213,1.437,1.4472,1.4352,1.4298,1.4358,1.457,1.4449,1.4358,1.4576,1.4443,1.4298,1.4298,1.4298,1.4298,1.4298,1.4484,1.4956,1.5704,1.5988,1.6546,1.7576,1.8596,1.943,1.9803,2.0713,2.1209,2.1117,2.0741,2.0521,2.0521,2.0429,2.042,2.0521,2.0613,2.0659,2.0659,2.0759,2.075,2.0668,2.1071,2.12,0.4382,0.4504,0.4654,0.4732,0.4885,0.5018,0.5018,0.5064,0.5091,0.5029,0.0,0.5053,0.5165,0.5186,0.5306,0.5673,0.5784,0.5947,0.6295,0.6719,0.7054,0.722,0.7516,0.7701,0.7682,0.7796,0.7872,0.7872,0.7872,0.7872,0.7872,0.782,0.7709,0.7524,0.7464,0.7345,0.7157,0.7154,0.7154,0.7154,0.7154,0.7154,0.7154,0.7092,0.8186,1.0164,0.9975,1.1019,1.2937,1.2813,1.2764,1.2764,1.2764,1.2764,1.2764,1.2764,1.2764,1.2764,1.2764,1.2764,1.2802,1.3023,1.3173,1.3319,1.3561,1.3803,1.3965,1.4041,1.4228,1.437,1.419,1.4202,1.4376,1.4326,1.429,1.4332,1.4684,1.469,1.4642,1.4545,1.4509,1.4449,1.4322,1.4298,1.4298,1.4298,1.4298,1.4484,1.5045,1.5514,1.5988,1.6546,1.7755,1.8588,1.878,1.9881,2.0686,2.1117,2.0741,2.0521,2.0521,2.0347,2.0328,2.0512,2.0521,2.0521,2.0521,2.0521,2.0521,2.0521,2.0741,2.0842,0.4423,0.4635,0.4809,0.4705,0.4849,0.5018,0.5018,0.0,0.0,0.0,0.0,0.5083,0.5216,0.5257,0.5382,0.573,0.5817,0.6007,0.648,0.6741,0.6997,0.7298,0.7475,0.7638,0.7801,0.785,0.7864,0.7847,0.7861,0.7856,0.7818,0.7744,0.7635,0.7494,0.7391,0.7277,0.7157,0.7154,0.7154,0.7154,0.7154,0.7154,0.7154,0.7135,0.8192,1.0028,1.0003,1.1028,1.2764,1.2764,1.2764,1.2764,1.2764,1.2764,1.2764,1.2764,1.2764,1.2764,1.2764,1.2764,1.2834,1.3276,1.3448,1.3518,1.3706,1.3943,1.4137,1.4137,1.4226,1.4234,1.3962,1.4061,1.4119,1.4284,1.4372,1.4483,1.4724,1.498,1.4974,1.4509,1.4582,1.4624,1.4346,1.4298,1.4298,1.4298,1.4298,1.4298,1.4298,1.5045,1.5609,1.5609,1.6633,1.7468,1.7755,1.8872,1.9881,2.0515,2.0525,2.0457,2.0338,2.0017,1.9989,2.0328,2.0338,2.0338,2.0338,2.0338,2.0338,2.0338,2.0393,2.0429,0.4349,0.4575,0.483,0.4811,0.4912,0.5018,0.5018,0.0,0.0,0.0,0.0,0.0,0.5453,0.5578,0.5733,0.5991,0.6198,0.6497,0.6978,0.7165,0.7274,0.7328,0.7619,0.7752,0.7589,0.7755,0.7831,0.7736,0.7818,0.7782,0.7584,0.7655,0.7597,0.7372,0.7345,0.7277,0.7157,0.7154,0.7154,0.7154,0.7154,0.7154,0.7152,0.7054,0.8107,1.002,0.9879,1.1007,1.2764,1.2764,1.2764,1.2764,1.2764,1.2764,1.2764,1.2764,1.2764,1.2764,1.2764,1.2764,1.2807,1.3071,1.3303,1.3486,1.3523,1.369,1.3879,1.3879,1.421,1.4445,1.4304,1.4619,1.49,1.4689,1.4838,1.5005,1.533,1.5234,1.5083,1.4998,1.4835,1.4624,1.4346,1.4298,1.4298,1.4298,1.4298,1.4298,1.4298,1.4388,1.4484,1.4484,1.5514,1.6257,1.6727,1.7662,1.8229,1.8224,1.9683,2.0209,1.9522,1.943,1.943,1.9485,1.9485,1.9485,1.9485,1.9485,1.9485,1.9494,1.9852,2.0017,0.4314,0.4466,0.4654,0.4719,0.4879,0.4999,0.4934,0.0,0.0,0.0,0.0,0.526,0.5504,0.5651,0.5852,0.6217,0.6532,0.6812,0.7032,0.7163,0.7288,0.7418,0.7581,0.7687,0.7706,0.7807,0.7823,0.7709,0.775,0.7703,0.7529,0.7508,0.7453,0.7339,0.7271,0.7211,0.7154,0.7095,0.7095,0.7154,0.7154,0.7154,0.7154,0.71,0.7834,0.9197,0.9637,1.0668,1.1965,1.2559,1.2764,1.2764,1.2764,1.2764,1.2764,1.2764,1.2764,1.278,1.2904,1.2867,1.2824,1.319,1.3292,1.3303,1.3437,1.355,1.3636,1.3636,1.3908,1.4144,1.4025,1.4269,1.447,1.47,1.48,1.4969,1.5439,1.5517,1.5445,1.5161,1.5125,1.5052,1.4781,1.4618,1.4521,1.4521,1.4395,1.4298,1.4298,1.4298,1.4298,1.4298,1.4669,1.5146,1.5717,1.664,1.7385,1.7707,1.8574,1.8947,1.8585,1.9054,1.9301,1.9301,1.9301,1.9301,1.9301,1.9301,1.9301,1.9301,1.9503,1.9595,0.43,0.4384,0.4488,0.4624,0.4773,0.4972,0.0,0.0,0.0,0.5284,0.5336,0.542,0.5638,0.582,0.6067,0.6458,0.6782,0.7016,0.71,0.7184,0.7328,0.7573,0.7603,0.7663,0.7815,0.7856,0.7801,0.7627,0.7668,0.7622,0.7442,0.7345,0.7282,0.7255,0.7135,0.707,0.707,0.6986,0.6999,0.7114,0.7086,0.707,0.707,0.707,0.76,0.8425,0.9457,1.0399,1.1268,1.2365,1.2764,1.2764,1.2764,1.2764,1.2764,1.2764,1.2764,1.2786,1.2964,1.291,1.2834,1.3254,1.326,1.3141,1.333,1.3394,1.3394,1.3394,1.3518,1.3663,1.3723,1.3817,1.4054,1.4619,1.4729,1.4956,1.5425,1.5753,1.5734,1.5209,1.5318,1.5396,1.5071,1.4853,1.4714,1.4714,1.4479,1.4298,1.4298,1.4298,1.4298,1.4298,1.4298,1.4496,1.5083,1.5846,1.6487,1.7007,1.7495,1.7759,1.7674,1.8318,1.8727,1.8727,1.8895,1.8975,1.8975,1.9222,1.9301,1.9301,1.9301,1.9301,0.43,0.4384,0.4447,0.4349,0.4588,0.0,0.5257,0.5339,0.0,0.5646,0.5776,0.589,0.6024,0.6325,0.6603,0.6752,0.6893,0.7103,0.7432,0.7489,0.7581,0.7818,0.7845,0.7809,0.7722,0.7809,0.7731,0.7388,0.7573,0.7548,0.7201,0.7173,0.7119,0.7013,0.6891,0.6828,0.6828,0.682,0.6877,0.6997,0.6883,0.6828,0.6828,0.6828,0.738,0.8265,0.9388,1.0384,1.1268,1.2365,1.2764,1.2764,1.2764,1.2764,1.2764,1.2764,1.2764,1.2764,1.2786,1.2775,1.2802,1.305,1.312,1.3109,1.3125,1.313,1.313,1.313,1.3147,1.3211,1.3443,1.3685,1.4037,1.4613,1.4862,1.5222,1.5801,1.5879,1.5734,1.5209,1.5318,1.5342,1.4829,1.4733,1.4714,1.4714,1.4479,1.4298,1.4298,1.4298,1.4298,1.4298,1.4298,1.4496,1.5083,1.5304,1.5382,1.5246,1.6447,1.7032,1.6788,1.6862,1.6862,1.6862,1.7674,1.8078,1.8078,1.8895,1.9301,1.9301,1.9301,1.9301,0.43,0.4384,0.4461,0.4417,0.4621,0.0,0.0,0.5322,0.5529,0.5697,0.5885,0.6053,0.6179,0.6366,0.657,0.6771,0.6964,0.7163,0.7375,0.747,0.7551,0.7641,0.7652,0.7635,0.7592,0.7627,0.7565,0.735,0.7353,0.7269,0.7059,0.6978,0.6915,0.6872,0.6825,0.6801,0.6801,0.6725,0.6711,0.6757,0.6787,0.6801,0.6804,0.7536,0.7982,0.8252,1.0074,1.097,1.1268,1.2365,1.2764,1.2764,1.2764,1.2764,1.2764,1.2764,1.2764,1.2764,1.2764,1.2764,1.2775,1.2861,1.2888,1.2888,1.2888,1.2888,1.292,1.3066,1.3001,1.298,1.3378,1.3565,1.3707,1.4156,1.4412,1.4718,1.5338,1.5539,1.5638,1.5602,1.5541,1.5487,1.5451,1.504,1.4829,1.5155,1.4684,1.4358,1.4533,1.4407,1.4298,1.4298,1.4592,1.4885,1.5083,1.5455,1.5538,1.5251,1.59,1.6139,1.5899,1.637,1.6698,1.6698,1.7025,1.718,1.718,1.7513,1.7997,1.8487,1.8487,1.8807,0.43,0.4384,0.4469,0.4469,0.0,0.0,0.514,0.5404,0.5687,0.5956,0.614,0.6279,0.6363,0.6442,0.6562,0.6768,0.697,0.7154,0.7312,0.7407,0.7475,0.7513,0.7519,0.7502,0.7464,0.7497,0.7437,0.7241,0.7182,0.7089,0.6937,0.6812,0.6744,0.6744,0.6706,0.6687,0.6687,0.6603,0.6562,0.6562,0.6646,0.6687,0.6687,0.741,0.7869,0.8278,1.0088,1.101,1.1268,1.2365,1.2764,1.2764,1.2764,1.2764,1.2764,1.2764,1.2764,1.2764,1.2764,1.2764,1.2764,1.2764,1.2764,1.2764,1.2764,1.2764,1.2797,1.2953,1.2883,1.284,1.3168,1.3325,1.3353,1.3696,1.3993,1.443,1.4877,1.5231,1.5499,1.5517,1.5511,1.5529,1.5626,1.5197,1.4992,1.5433,1.4811,1.4395,1.4684,1.4473,1.4298,1.4298,1.4688,1.4987,1.5083,1.5458,1.5611,1.5411,1.5542,1.5474,1.5148,1.5708,1.599,1.5884,1.6124,1.6288,1.6288,1.6535,1.7025,1.7594,1.7594,1.7917,0.43,0.4384,0.4469,0.4471,0.0,0.0,0.5384,0.5646,0.5901,0.6497,0.6619,0.6619,0.6619,0.6619,0.666,0.6782,0.6904,0.7065,0.7301,0.7334,0.738,0.75,0.7516,0.7467,0.7345,0.7442,0.7366,0.7013,0.7086,0.7048,0.6815,0.6684,0.6619,0.6619,0.6499,0.6437,0.6437,0.6437,0.6437,0.6437,0.6437,0.6437,0.6437,0.6437,0.7033,0.812,0.911,1.0194,1.1272,1.2365,1.2764,1.2764,1.2764,1.2764,1.2764,1.2764,1.2764,1.2764,1.2764,1.2764,1.2764,1.2764,1.2764,1.2764,1.2764,1.2764,1.2764,1.2764,1.2764,1.2764,1.2764,1.2764,1.2916,1.3347,1.3892,1.4378,1.4587,1.51,1.5342,1.4823,1.5143,1.5415,1.5155,1.5113,1.5197,1.5457,1.4817,1.4401,1.4678,1.4467,1.4298,1.4298,1.4496,1.479,1.5083,1.5356,1.5516,1.5418,1.5398,1.5137,1.4543,1.4522,1.4382,1.4095,1.4992,1.5394,1.5394,1.6206,1.6698,1.6698,1.6698,1.6698,0.43,0.4384,0.449,0.4649,0.4868,0.523,0.5597,0.5706,0.5877,0.6385,0.6559,0.6619,0.6619,0.6619,0.666,0.6782,0.6834,0.694,0.7176,0.7209,0.7222,0.7258,0.7263,0.7249,0.7211,0.7168,0.71,0.6994,0.6858,0.6747,0.6676,0.6556,0.6491,0.6491,0.6453,0.6437,0.6437,0.6437,0.6437,0.6437,0.6437,0.6437,0.6437,0.7229,0.812,0.9213,1.0293,1.137,1.236,1.2662,1.2764,1.2764,1.2764,1.2764,1.2764,1.2764,1.2764,1.2764,1.2764,1.2764,1.2764,1.2764,1.2764,1.2764,1.2764,1.2764,1.2764,1.2764,1.2764,1.2764,1.2764,1.2764,1.2878,1.2943,1.3411,1.3808,1.4084,1.4583,1.4956,1.4986,1.5119,1.5258,1.5366,1.5228,1.5197,1.5457,1.498,1.4552,1.4437,1.4346,1.4298,1.4298,1.4496,1.4688,1.479,1.5261,1.5507,1.5516,1.5604,1.5344,1.4549,1.4522,1.4382,1.4095,1.4334,1.4496,1.4496,1.4741,1.5151,1.5801,1.5801,1.6124,0.43,0.442,0.4583,0.4754,0.5067,0.5415,0.573,0.5947,0.6168,0.645,0.6567,0.6619,0.6619,0.6581,0.6586,0.6709,0.6728,0.6796,0.6989,0.7016,0.7016,0.7016,0.7016,0.7016,0.7016,0.6953,0.6893,0.6842,0.6703,0.6597,0.6548,0.6478,0.6437,0.6437,0.6437,0.6437,0.6437,0.6437,0.6437,0.6437,0.6437,0.6437,0.6437,0.703,0.8219,0.9706,1.1179,1.2165,1.2764,1.2764,1.2764,1.2764,1.2764,1.2764,1.2764,1.2764,1.2764,1.2764,1.2764,1.2764,1.2764,1.2764,1.2764,1.2764,1.2764,1.2764,1.2764,1.2764,1.2764,1.2764,1.2764,1.2764,1.2764,1.2764,1.3224,1.3699,1.3751,1.4242,1.4733,1.4775,1.4877,1.5004,1.5161,1.5059,1.5077,1.5445,1.5143,1.4733,1.4346,1.4298,1.4298,1.4298,1.4394,1.4592,1.4688,1.507,1.5356,1.5445,1.5737,1.5538,1.4897,1.4756,1.4502,1.4095,1.4088,1.4088,1.4088,1.4088,1.4334,1.4908,1.4908,1.5151,0.43,0.4471,0.4711,0.4955,0.5311,0.5662,0.5896,0.629,0.66,0.6589,0.6613,0.6632,0.6622,0.6526,0.6488,0.66,0.6619,0.6662,0.6785,0.6801,0.6801,0.6801,0.6801,0.6801,0.6801,0.6793,0.6738,0.6627,0.6608,0.6554,0.6442,0.6337,0.6337,0.6337,0.6337,0.6337,0.6337,0.6337,0.6337,0.6437,0.6437,0.6437,0.6437,0.6437,0.7528,0.9706,1.1873,1.2764,1.2764,1.2764,1.2764,1.2764,1.2764,1.2764,1.2764,1.2764,1.2764,1.2764,1.2764,1.2764,1.2764,1.2764,1.2764,1.2764,1.2764,1.2764,1.2764,1.2764,1.2764,1.2764,1.2764,1.2764,1.2764,1.2764,1.3319,1.3813,1.3591,1.4113,1.4606,1.4346,1.4521,1.4714,1.4714,1.4739,1.4908,1.536,1.5203,1.4853,1.4358,1.4298,1.4298,1.4298,1.4298,1.4394,1.4688,1.4885,1.5172,1.5452,1.5642,1.5698,1.5404,1.5144,1.4723,1.4135,1.4128,1.4115,1.4088,1.4088,1.4088,1.4088,1.4088,1.4088,0.43,0.4471,0.4711,0.4955,0.5499,0.6032,0.6268,0.6401,0.645,0.6363,0.6567,0.6733,0.6638,0.6597,0.6589,0.6616,0.6619,0.6662,0.6785,0.6801,0.6801,0.6801,0.6801,0.6801,0.6801,0.6714,0.6646,0.6622,0.6329,0.6165,0.6437,0.6037,0.5837,0.6042,0.5837,0.5837,0.6042,0.6042,0.6239,0.6437,0.6437,0.6437,0.6437,0.6437,0.7528,0.9706,1.1873,1.2764,1.2764,1.2764,1.2764,1.2764,1.2764,1.2764,1.2764,1.2764,1.2764,1.2764,1.2764,1.2764,1.2764,1.2764,1.2764,1.2764,1.2764,1.2764,1.2764,1.2764,1.2764,1.2764,1.2764,1.2764,1.2764,1.2764,1.2997,1.3311,1.3454,1.3779,1.4093,1.431,1.4521,1.4714,1.4714,1.4883,1.4992,1.4902,1.4648,1.4431,1.431,1.4298,1.4298,1.4298,1.4298,1.4298,1.4394,1.4592,1.4885,1.5172,1.5452,1.551,1.5411,1.5337,1.503,1.4436,1.4429,1.4315,1.4088,1.4088,1.4088,1.4088,1.4088,1.4088,0.4303,0.4477,0.4683,0.517,0.5727,0.6206,0.6328,0.6396,0.642,0.6361,0.6497,0.6608,0.6543,0.6532,0.6532,0.6532,0.6532,0.6554,0.6619,0.6627,0.6627,0.6627,0.6627,0.6627,0.6627,0.6567,0.6532,0.6532,0.6176,0.6039,0.6239,0.5837,0.5636,0.5839,0.5636,0.5636,0.5839,0.5942,0.6042,0.6237,0.6283,0.6358,0.6358,0.7499,0.881,1.0489,1.2068,1.2764,1.2764,1.2764,1.2764,1.2764,1.2764,1.2764,1.2764,1.2764,1.2764,1.2764,1.2764,1.2764,1.2764,1.2764,1.2764,1.2764,1.2764,1.2764,1.2764,1.2764,1.2764,1.2764,1.2764,1.2764,1.2764,1.2764,1.2953,1.3147,1.3443,1.3738,1.4027,1.4202,1.4419,1.4515,1.4515,1.4739,1.4829,1.4558,1.4509,1.4449,1.4316,1.4298,1.4298,1.4298,1.4298,1.4298,1.4298,1.4592,1.479,1.4885,1.5261,1.5475,1.5424,1.5511,1.5331,1.4743,1.473,1.4656,1.4509,1.4509,1.4509,1.4509,1.4509,1.4509,0.4033,0.4281,0.4686,0.5349,0.5882,0.6192,0.6255,0.6339,0.6407,0.6407,0.6423,0.6437,0.6437,0.6437,0.6437,0.6437,0.6437,0.6437,0.6437,0.6437,0.6437,0.6437,0.6437,0.6437,0.6437,0.6437,0.6337,0.6337,0.6039,0.5942,0.5942,0.5636,0.5527,0.5511,0.5511,0.5501,0.5483,0.5683,0.5884,0.5981,0.6184,0.6332,0.6625,0.8481,0.9824,1.0919,1.2164,1.2662,1.27,1.2657,1.2667,1.27,1.2657,1.2667,1.27,1.27,1.2727,1.2764,1.2764,1.2764,1.2764,1.2764,1.2764,1.2764,1.2764,1.2764,1.2764,1.2764,1.2764,1.2764,1.2764,1.2764,1.2764,1.2764,1.2958,1.3152,1.3443,1.3642,1.3925,1.4202,1.4298,1.4298,1.4298,1.4491,1.4564,1.4334,1.4491,1.4564,1.4328,1.4298,1.4298,1.4298,1.4298,1.4298,1.4298,1.4496,1.4688,1.4688,1.5166,1.535,1.554,1.5589,1.5458,1.5124,1.5064,1.5017,1.4963,1.4963,1.4963,1.4963,1.4963,1.4963,0.3086,0.3904,0.4878,0.5559,0.5757,0.5888,0.6198,0.6279,0.629,0.629,0.6369,0.6437,0.6437,0.6437,0.6437,0.6437,0.6437,0.6437,0.6437,0.6437,0.6437,0.6437,0.6437,0.6437,0.6437,0.6437,0.6337,0.6042,0.5837,0.5636,0.5636,0.5135,0.4999,0.5114,0.492,0.488,0.5081,0.5079,0.5365,0.5746,0.6021,0.6582,0.7523,0.7823,0.8467,0.9544,1.1376,1.2264,1.2447,1.2231,1.2269,1.2441,1.2226,1.2274,1.2463,1.2463,1.2587,1.2764,1.2764,1.2764,1.2764,1.2764,1.2764,1.2764,1.2764,1.2764,1.2764,1.2764,1.2764,1.2764,1.2764,1.2764,1.2764,1.2764,1.2861,1.2958,1.3443,1.3539,1.3732,1.4202,1.4298,1.4298,1.4298,1.4328,1.434,1.4304,1.4328,1.434,1.4298,1.4298,1.4298,1.4298,1.4298,1.4298,1.4298,1.4298,1.449,1.4688,1.4783,1.4975,1.5445,1.5204,1.5252,1.5712,1.5464,1.5217,1.4963,1.4963,1.4963,1.4963,1.4963,1.4963,0.3633,0.4375,0.4931,0.5328,0.5581,0.5773,0.5934,0.6072,0.6165,0.6165,0.6206,0.6282,0.6412,0.6437,0.6437,0.6437,0.6437,0.6437,0.6437,0.6437,0.6437,0.6437,0.6437,0.6437,0.6437,0.6437,0.631,0.595,0.5652,0.5426,0.5271,0.488,0.4766,0.4822,0.4728,0.4708,0.4761,0.4946,0.5202,0.5614,0.5769,0.6139,0.6722,0.727,0.8366,1.0028,1.1007,1.176,1.221,1.2242,1.2237,1.2199,1.2091,1.2199,1.2414,1.2414,1.2565,1.2748,1.2614,1.2651,1.2743,1.2608,1.2657,1.2764,1.2764,1.2764,1.2764,1.2764,1.2764,1.2764,1.2764,1.2764,1.2764,1.2764,1.2764,1.2958,1.3443,1.3539,1.3636,1.4202,1.4298,1.4298,1.4298,1.4298,1.4298,1.4298,1.4298,1.4298,1.4298,1.4298,1.4298,1.4298,1.4298,1.4298,1.4298,1.4298,1.4394,1.4496,1.4592,1.4879,1.5267,1.5078,1.5245,1.5825,1.5545,1.5418,1.5444,1.5444,1.5444,1.5444,1.5444,1.5444,0.4041,0.4686,0.4849,0.5086,0.5371,0.5619,0.5714,0.5871,0.6013,0.6072,0.6086,0.6149,0.6355,0.6369,0.6358,0.6388,0.6369,0.6347,0.6347,0.6347,0.6347,0.6347,0.6347,0.6347,0.6246,0.6275,0.6145,0.5741,0.547,0.5248,0.4953,0.4666,0.4561,0.4538,0.4538,0.4526,0.4504,0.4782,0.5115,0.541,0.555,0.5621,0.5719,0.649,0.7867,0.971,1.0431,1.1046,1.1689,1.1999,1.207,1.1951,1.1892,1.2016,1.2231,1.2231,1.2382,1.2554,1.2094,1.2047,1.2161,1.1706,1.1762,1.191,1.1966,1.1986,1.19,1.1955,1.217,1.2365,1.2365,1.2565,1.2764,1.2764,1.2764,1.2958,1.3443,1.3636,1.3823,1.4202,1.4298,1.4298,1.4298,1.4298,1.4298,1.4298,1.4298,1.4298,1.4298,1.4298,1.4298,1.4298,1.4298,1.4298,1.4298,1.4298,1.4298,1.4298,1.449,1.4694,1.4987,1.4897,1.5058,1.5724,1.5451,1.5445,1.5832,1.5832,1.5832,1.5832,1.5832,1.5832,0.3581,0.4571,0.4806,0.4966,0.5121,0.5306,0.5654,0.5744,0.5814,0.604,0.6086,0.6124,0.6252,0.6184,0.6143,0.626,0.6181,0.6105,0.6105,0.6105,0.6105,0.6105,0.6105,0.6008,0.5718,0.5818,0.564,0.5054,0.5138,0.4955,0.4672,0.4573,0.4532,0.4444,0.4442,0.44,0.4314,0.4585,0.4764,0.4757,0.51,0.5224,0.5213,0.5447,0.6065,0.7079,0.9121,1.0097,1.0433,1.1051,1.1532,1.1698,1.1472,1.1532,1.1736,1.1736,1.1887,1.1989,1.1037,1.0667,1.0579,0.9638,0.9359,0.9401,0.9581,0.954,0.9577,0.9755,1.0489,1.1268,1.1268,1.2063,1.2764,1.2764,1.2764,1.2958,1.3443,1.3919,1.4298,1.4298,1.4298,1.4298,1.4298,1.4298,1.4298,1.4298,1.4298,1.4298,1.4298,1.4298,1.4298,1.4298,1.4298,1.4298,1.4298,1.4298,1.4298,1.4298,1.4298,1.4394,1.4694,1.4427,1.4684,1.5534,1.5158,1.5252,1.5832,1.5832,1.5832,1.5832,1.5832,1.5832,0.1442,0.2977,0.4564,0.4947,0.5053,0.5065,0.5194,0.5363,0.5523,0.5608,0.5687,0.5757,0.5801,0.5961,0.61,0.6143,0.6113,0.6086,0.6086,0.6086,0.6086,0.6086,0.5989,0.5797,0.57,0.5646,0.5341,0.4864,0.4891,0.4773,0.4402,0.4398,0.4381,0.4349,0.4349,0.4332,0.43,0.4389,0.4569,0.4661,0.4975,0.5132,0.5305,0.5454,0.5656,0.6075,0.785,0.907,0.9832,1.0823,1.1305,1.1246,1.1322,1.1494,1.1609,1.1064,1.0925,1.0997,0.9853,0.9614,0.9599,0.9113,0.9062,0.9189,0.9374,0.9431,0.9468,0.9555,0.9899,1.0194,1.0194,1.0489,1.0886,1.157,1.236,1.3055,1.3443,1.3919,1.4298,1.4298,1.4298,1.4298,1.4298,1.4298,1.4298,1.4298,1.4298,1.4298,1.4298,1.4298,1.4298,1.4298,1.4298,1.4298,1.4298,1.4298,1.4298,1.4298,1.4298,1.4394,1.4688,1.4427,1.4503,1.5261,1.4891,1.5071,1.5832,1.5832,1.5832,1.5832,1.5832,1.5832,0.0619,0.1691,0.304,0.3863,0.4081,0.4288,0.4805,0.5143,0.5322,0.536,0.5434,0.5502,0.5456,0.5711,0.5871,0.5956,0.5874,0.5874,0.5874,0.5747,0.5723,0.5723,0.5504,0.5312,0.5346,0.5201,0.5011,0.4669,0.4695,0.458,0.4304,0.43,0.43,0.43,0.43,0.43,0.43,0.43,0.4374,0.4524,0.475,0.4976,0.5112,0.5257,0.5371,0.5449,0.7145,0.8286,0.9082,1.0465,1.1015,1.0891,1.1133,1.1322,1.138,1.048,1.0234,1.0148,0.8755,0.834,0.8421,0.8007,0.7935,0.8015,0.823,0.8295,0.8332,0.8496,0.8773,0.911,0.911,0.9604,1.0194,1.0587,1.1668,1.2651,1.2948,1.3624,1.4202,1.4298,1.4298,1.4298,1.4298,1.4298,1.4298,1.4298,1.4298,1.4298,1.4298,1.4298,1.4298,1.4298,1.4298,1.4298,1.4298,1.4298,1.4298,1.4298,1.4298,1.4394,1.4592,1.4319,1.4502,1.4981,1.471,1.498,1.5547,1.5642,1.573,1.5832,1.5832,1.5832,0.0,0.0,0.0,0.166,0.222,0.2805,0.4353,0.4857,0.5052,0.533,0.5358,0.5393,0.5427,0.5445,0.5447,0.5684,0.5544,0.5366,0.5361,0.51,0.486,0.4858,0.4765,0.4657,0.4499,0.4594,0.4563,0.4295,0.4375,0.4385,0.43,0.4295,0.4297,0.43,0.4297,0.4297,0.43,0.4293,0.4251,0.4171,0.4502,0.4649,0.4544,0.4836,0.5023,0.5098,0.678,0.7659,0.8143,0.9877,1.0627,1.0659,1.0891,1.0988,1.0852,1.0129,0.9859,0.9593,0.7665,0.7051,0.6897,0.6133,0.5822,0.5776,0.601,0.6083,0.6111,0.6233,0.7128,0.7915,0.7915,0.9497,1.0877,0.9805,1.0587,1.1658,1.1955,1.2942,1.3925,1.4202,1.4298,1.4298,1.4298,1.4298,1.4298,1.4298,1.4298,1.4298,1.4298,1.4298,1.4298,1.4298,1.4298,1.4298,1.4298,1.4298,1.4298,1.4298,1.4298,1.4298,1.4298,1.4298,1.4394,1.4688,1.4688,1.479,1.5083,1.5356,1.5635,1.5737,1.5825,1.5825,0.0202,0.0,0.0,0.0,0.0,0.0,0.2372,0.3213,0.386,0.4892,0.5137,0.5044,0.4916,0.5028,0.5136,0.5037,0.5109,0.5135,0.4969,0.4918,0.4834,0.4756,0.4636,0.4459,0.4402,0.4263,0.4222,0.4202,0.4169,0.4165,0.4206,0.4208,0.4236,0.4297,0.424,0.4236,0.4297,0.4173,0.413,0.4171,0.4502,0.4687,0.4656,0.4952,0.514,0.5214,0.6132,0.6979,0.7774,0.9592,1.0487,1.0573,1.0133,1.0059,1.0038,0.8436,0.7841,0.7665,0.6526,0.6086,0.6091,0.5858,0.576,0.5763,0.5909,0.6015,0.6111,0.6233,0.6485,0.6801,0.6801,0.7848,0.881,0.8517,0.9308,1.0489,1.176,1.2252,1.284,1.41,1.4298,1.4298,1.4298,1.4298,1.4298,1.4298,1.4298,1.4298,1.4298,1.4298,1.4298,1.4298,1.4298,1.4298,1.4298,1.4298,1.4298,1.4298,1.4298,1.4298,1.4298,1.4298,1.4298,1.4394,1.4394,1.4496,1.479,1.5077,1.5274,1.5267,1.5452,1.5642,0.0,0.0,-0.0277,-0.0709,0.0,0.0,0.1432,0.2239,0.2842,0.388,0.4525,0.4788,0.463,0.4693,0.4745,0.455,0.4639,0.4784,0.46,0.4651,0.4549,0.4408,0.4259,0.4199,0.4199,0.4153,0.4116,0.4169,0.4157,0.4169,0.4222,0.4226,0.4249,0.4297,0.4253,0.4232,0.4246,0.4144,0.4081,0.4059,0.4417,0.4613,0.4568,0.4988,0.5116,0.519,0.5892,0.6468,0.7088,0.8517,0.9428,0.9731,0.9128,0.8977,0.893,0.7614,0.7139,0.6966,0.5997,0.5733,0.5741,0.5787,0.5771,0.5754,0.5869,0.5953,0.6034,0.6157,0.6263,0.6328,0.6282,0.7134,0.7908,0.7359,0.8181,0.941,1.048,1.1002,1.194,1.3884,1.4298,1.4298,1.4298,1.4298,1.4298,1.4298,1.4298,1.4298,1.4298,1.4298,1.4298,1.4298,1.4298,1.4298,1.4298,1.4298,1.4298,1.4298,1.4298,1.4298,1.4298,1.4298,1.4298,1.4298,1.4298,1.4394,1.4496,1.479,1.4987,1.5083,1.5267,1.5356,0.0,0.0,0.0,-0.0574,-0.0855,0.0,0.0908,0.1494,0.187,0.2525,0.3485,0.4208,0.4148,0.4148,0.4012,0.3883,0.4045,0.4212,0.4396,0.4327,0.4093,0.392,0.3963,0.4006,0.4006,0.4089,0.4146,0.4157,0.4236,0.4285,0.4285,0.4285,0.4289,0.43,0.4289,0.4249,0.4173,0.4153,0.4061,0.3899,0.429,0.4398,0.4384,0.4779,0.5018,0.5015,0.5783,0.6086,0.624,0.6927,0.7787,0.8539,0.8002,0.7823,0.7816,0.7184,0.6949,0.6789,0.5997,0.5733,0.5749,0.585,0.5814,0.5752,0.5852,0.5893,0.5926,0.6034,0.6236,0.6388,0.6263,0.7003,0.7569,0.6566,0.7208,0.8276,0.8754,0.9623,1.1015,1.3724,1.4256,1.4262,1.4292,1.4298,1.4298,1.4298,1.4298,1.4298,1.4298,1.4298,1.4298,1.4298,1.4298,1.4298,1.4298,1.4298,1.4298,1.4298,1.4298,1.4298,1.4298,1.4298,1.4298,1.4298,1.4298,1.4298,1.4298,1.4496,1.479,1.5083,1.5083,1.5083,-0.1085,-0.1065,-0.0976,-0.0986,-0.1055,0.0,-0.0683,-0.0346,0.0141,0.1191,0.1553,0.18,0.2099,0.2122,0.2083,0.1935,0.2525,0.321,0.3962,0.4063,0.4022,0.3912,0.385,0.3816,0.3816,0.3899,0.3983,0.4057,0.4146,0.4197,0.4197,0.4197,0.4228,0.4297,0.4232,0.4189,0.4173,0.4026,0.3936,0.3897,0.4064,0.4252,0.4384,0.4621,0.4859,0.5018,0.5171,0.5631,0.6163,0.5705,0.6471,0.7853,0.7046,0.6901,0.7045,0.6168,0.5909,0.5911,0.5733,0.5733,0.5738,0.576,0.5752,0.5738,0.576,0.5831,0.5909,0.5931,0.6113,0.6249,0.6032,0.6328,0.656,0.6247,0.6328,0.7098,0.9157,0.925,0.9918,1.3302,1.3978,1.4051,1.4262,1.4298,1.4298,1.4298,1.4298,1.4298,1.4298,1.4298,1.4298,1.4298,1.4298,1.4298,1.4298,1.4298,1.4298,1.4298,1.4298,1.4298,1.4298,1.4298,1.4298,1.4298,1.4298,1.4298,1.4298,1.4394,1.4496,1.479,1.479,1.4885,-0.1189,-0.1167,-0.1147,-0.1162,-0.1143,0.0,0.0,-0.0963,-0.0552,0.0629,0.0779,0.0936,0.1402,0.1437,0.1474,0.1431,0.2093,0.2617,0.2763,0.3446,0.3985,0.3848,0.3871,0.3899,0.3899,0.3983,0.4071,0.4161,0.4171,0.4191,0.4234,0.4236,0.4255,0.4297,0.4218,0.4151,0.4106,0.3967,0.3877,0.3832,0.4023,0.4233,0.4384,0.4621,0.4779,0.5018,0.5018,0.5246,0.5553,0.5171,0.5517,0.6366,0.5962,0.5909,0.6037,0.5605,0.5537,0.5643,0.5643,0.5684,0.5733,0.5733,0.5733,0.5733,0.5733,0.5812,0.5904,0.5904,0.6034,0.6135,0.595,0.604,0.6146,0.6024,0.6134,0.6646,0.8038,0.8788,0.9868,1.2047,1.2657,1.3113,1.4106,1.4298,1.4298,1.4298,1.4298,1.4298,1.4298,1.4298,1.4298,1.4298,1.4298,1.4298,1.4298,1.4298,1.4298,1.4298,1.4298,1.4298,1.4298,1.4298,1.4298,1.4298,1.4298,1.4298,1.4298,1.4298,1.4394,1.4496,1.4496,1.4592,-0.1221,-0.1198,-0.1181,-0.1205,-0.1174,-0.1137,0.0,0.0,0.0,0.0141,0.0215,0.0292,0.0805,0.0833,0.0856,0.0856,0.1586,0.1862,0.1316,0.2482,0.3442,0.3328,0.3755,0.3918,0.3735,0.3982,0.4163,0.4267,0.4212,0.421,0.4295,0.43,0.4291,0.4275,0.4208,0.412,0.401,0.3936,0.3852,0.3763,0.3999,0.4153,0.4384,0.4543,0.4779,0.5018,0.5018,0.5018,0.5018,0.5018,0.5018,0.5026,0.5118,0.5167,0.52,0.5298,0.5412,0.5515,0.5515,0.5581,0.5667,0.5692,0.5714,0.5733,0.5733,0.5798,0.5871,0.5871,0.5958,0.6024,0.5901,0.5961,0.6021,0.5899,0.6129,0.6479,0.6855,0.8154,0.9522,1.058,1.1141,1.2031,1.3909,1.4028,1.4028,1.422,1.4262,1.4298,1.4298,1.4298,1.4298,1.4298,1.4298,1.4298,1.4298,1.4298,1.4298,1.4298,1.4298,1.4298,1.4298,1.4298,1.4298,1.4298,1.4298,1.4298,1.4298,1.4298,1.4298,1.4298,1.4298,1.4298,-0.1252,-0.123,-0.1208,-0.1211,-0.1206,-0.1194,-0.1168,0.0,-0.1116,-0.102,0.0,-0.0954,-0.0901,0.0,0.0,-0.0912,-0.0232,0.0234,0.0154,0.1014,0.159,0.1695,0.3006,0.3561,0.2773,0.3473,0.4001,0.4173,0.4179,0.421,0.4295,0.43,0.4265,0.4189,0.4179,0.4089,0.3916,0.3906,0.3852,0.3763,0.3841,0.3997,0.4384,0.4462,0.4621,0.5018,0.5018,0.5018,0.5018,0.5018,0.5018,0.5018,0.5031,0.5097,0.5186,0.5203,0.5284,0.539,0.539,0.5398,0.5428,0.5537,0.5646,0.5733,0.5733,0.5741,0.5754,0.5754,0.5836,0.5896,0.5782,0.5839,0.5893,0.5779,0.5763,0.6129,0.719,0.7192,0.764,0.9754,1.0419,1.1431,1.3608,1.3285,1.3003,1.3854,1.4147,1.4298,1.4298,1.4298,1.4298,1.4298,1.4298,1.4298,1.4298,1.4298,1.4298,1.4298,1.4298,1.4298,1.4298,1.4298,1.4298,1.4298,1.4298,1.4298,1.4298,1.4298,1.4298,1.4298,1.4298,1.4298,-0.1335,-0.1248,-0.1238,-0.1238,-0.1225,-0.1209,-0.1196,-0.1189,-0.1187,-0.1192,0.0,0.0,0.0,0.0,0.0,0.0,-0.054,-0.0156,-0.0697,0.0473,0.1358,0.1353,0.2387,0.3109,0.328,0.3679,0.4032,0.4163,0.4173,0.421,0.4295,0.43,0.4283,0.4246,0.4146,0.4057,0.3979,0.3873,0.3801,0.3763,0.3763,0.3921,0.4233,0.4384,0.4543,0.4859,0.4937,0.5018,0.5018,0.5018,0.5018,0.5018,0.5018,0.5048,0.5089,0.5089,0.5162,0.5262,0.5262,0.5311,0.5388,0.5513,0.5499,0.564,0.5711,0.5733,0.5733,0.5733,0.5768,0.5795,0.5746,0.5768,0.5793,0.5744,0.5733,0.5911,0.6523,0.692,0.7524,0.8964,0.9225,0.9889,1.2202,1.3044,1.3432,1.3812,1.4129,1.4244,1.4087,1.4201,1.4298,1.4298,1.4298,1.4298,1.4298,1.4298,1.4298,1.4298,1.4298,1.4298,1.4298,1.4298,1.4298,1.4298,1.4298,1.4298,1.4298,1.4298,1.4298,1.4298,1.4298,1.4298,-0.1335,-0.1335,-0.1335,-0.1335,-0.1241,-0.1224,-0.1224,-0.1207,-0.1198,-0.122,-0.1224,0.0,0.0,0.0,-0.1247,-0.1217,0.0,-0.0548,-0.1168,-0.0159,0.0639,0.0628,0.1489,0.2526,0.3454,0.3759,0.3999,0.4091,0.4122,0.4173,0.4261,0.4285,0.4287,0.4265,0.414,0.4048,0.3999,0.3867,0.3789,0.3763,0.3763,0.3921,0.4079,0.4231,0.4465,0.4701,0.4859,0.4937,0.5018,0.5018,0.5018,0.5018,0.5018,0.5018,0.5018,0.5018,0.5069,0.514,0.514,0.5219,0.5333,0.5423,0.5496,0.548,0.5657,0.5706,0.5733,0.5733,0.5733,0.5733,0.5733,0.5733,0.5733,0.5733,0.5733,0.5733,0.5908,0.6612,0.7258,0.7818,0.8004,0.8673,1.0558,1.1962,1.313,1.3597,1.3972,1.4123,1.393,1.4135,1.4298,1.4298,1.4298,1.4298,1.4298,1.4298,1.4298,1.4298,1.4298,1.4298,1.4298,1.4298,1.4298,1.4298,1.4298,1.4298,1.4298,1.4298,1.4298,1.4298,1.4298,1.4298,-0.1335,-0.1335,-0.1335,-0.1335,-0.1335,-0.1334,-0.1334,-0.1333,-0.1333,-0.1334,-0.1334,-0.1334,-0.1334,-0.1335,-0.1247,-0.1217,-0.1237,0.0,0.0,-0.1239,-0.118,-0.1178,0.0314,0.1647,0.2434,0.3299,0.381,0.3901,0.3989,0.4079,0.4171,0.4255,0.4261,0.4179,0.4171,0.4083,0.3906,0.3897,0.385,0.3763,0.3763,0.3921,0.4079,0.4079,0.4311,0.4701,0.4701,0.4857,0.5018,0.5018,0.5018,0.5018,0.5018,0.5018,0.5018,0.5018,0.5021,0.5023,0.5023,0.5097,0.5195,0.5197,0.5358,0.5464,0.5467,0.564,0.5733,0.5733,0.5733,0.5733,0.5733,0.5733,0.5733,0.5733,0.5733,0.5733,0.5733,0.5908,0.6174,0.6177,0.7048,0.7974,0.8599,0.9633,1.099,1.288,1.3586,1.3918,1.3906,1.4135,1.4298,1.4298,1.4298,1.4298,1.4298,1.4298,1.4298,1.4298,1.4298,1.4298,1.4298,1.4298,1.4298,1.4298,1.4298,1.4298,1.4298,1.4298,1.4298,1.4298,1.4298,1.4298,-0.1335,-0.1335,-0.1335,-0.1335,-0.1335,-0.1335,-0.1335,-0.1335,-0.1335,-0.1335,-0.1335,-0.1335,-0.1335,-0.1335,-0.1332,-0.1243,-0.1251,-0.1254,0.0,-0.1251,-0.1335,-0.1335,-0.0235,0.1019,0.2353,0.2746,0.3168,0.3812,0.3928,0.4012,0.4165,0.42,0.4228,0.4257,0.4202,0.4144,0.4081,0.402,0.3944,0.3852,0.3852,0.3901,0.3921,0.4001,0.4233,0.454,0.4621,0.4779,0.5018,0.5018,0.5018,0.5018,0.5018,0.5018,0.5018,0.5018,0.5018,0.5018,0.5018,0.5042,0.5086,0.5162,0.5298,0.5445,0.5526,0.5638,0.5733,0.5733,0.5733,0.5733,0.5733,0.5733,0.5733,0.5733,0.5733,0.5733,0.5733,0.5733,0.5908,0.6083,0.6435,0.7064,0.8174,0.9155,1.0396,1.2226,1.3303,1.3906,1.3906,1.4135,1.4298,1.4298,1.4298,1.4298,1.4298,1.4298,1.4298,1.4298,1.4298,1.4298,1.4298,1.4298,1.4298,1.4298,1.4298,1.4298,1.4298,1.4298,1.4298,1.4298,1.4298,1.4298,-0.1335,-0.1335,-0.1335,-0.1335,-0.1335,-0.1335,-0.1335,-0.1335,-0.1335,-0.1335,-0.1335,-0.1335,-0.1335,-0.1335,-0.1335,-0.1335,-0.1335,-0.1335,0.0,-0.1335,-0.1335,-0.1335,-0.0549,0.0548,0.196,0.2353,0.2843,0.3766,0.3912,0.3999,0.4118,0.4183,0.4242,0.4297,0.4246,0.4204,0.4173,0.4114,0.4022,0.3899,0.3899,0.385,0.3841,0.3921,0.4153,0.4384,0.4543,0.4779,0.5018,0.5018,0.5018,0.5018,0.5018,0.5018,0.5018,0.5018,0.5018,0.5018,0.5018,0.5018,0.5029,0.5102,0.5208,0.5328,0.5447,0.5572,0.5678,0.5722,0.5733,0.5733,0.5733,0.5733,0.5733,0.5733,0.5733,0.5733,0.5733,0.5733,0.5733,0.5908,0.5997,0.6257,0.7309,0.8269,0.9605,1.1653,1.294,1.3803,1.3894,1.4135,1.4298,1.4298,1.4298,1.4298,1.4298,1.4298,1.4298,1.4298,1.4298,1.4298,1.4298,1.4298,1.4298,1.4298,1.4298,1.4298,1.4298,1.4298,1.4298,1.4298,1.4298,1.4298]}]]